[[{"header":{"parameterUnit":"m.s-1","parameterCategory":1,"la1":31.0,"la2":29.5877,"lo1":-88.7671,"lo2":-86.6584,"dy":0.0162,"dx":0.0185,"nx":115,"ny":88,"refTime":"2024-06-20T06:00:00:Z","depth":0,"parameterNumber":2,"parameterNumberName":"U-component_of_WINDS"},"data":[0.0,0.0,0.0,0.0,0.0,0.0,0.0,0.0,0.0,0.0,0.0,0.0,0.0,0.0,0.0,0.0,0.0,0.0,0.0,0.0,0.0,0.0,0.0,0.0,0.0,0.0,0.0,0.0,0.0,0.0,0.0,0.0,0.0,0.0,0.0,0.0,0.0,0.0,0.0,0.0,0.0,0.0,0.0,0.0,0.0,0.0,0.0,0.0,0.0,0.0,0.0,0.0,0.0,0.0,0.0,0.0,0.0,0.0,0.0,0.0,0.0,0.0,0.0,0.0,0.0,0.0,0.0,0.0,0.0,0.0,0.0,0.0,0.0,0.0,0.0,0.0,0.0,0.0,0.0,0.0,0.0,0.0,0.0,0.0,0.0,0.0,0.0,0.0,0.0,0.0,0.0,0.0,0.0,0.0,0.0,0.0,0.0,0.0,0.0,0.0,0.0,0.0,0.0,0.0,0.0,0.0,0.0,0.0,0.0,0.0,0.0,0.0,0.0,0.0,0.0,0.0,0.0,0.0,0.0,0.0,0.0,0.0,0.0,0.0,0.0,0.0,0.0,0.0,0.0,0.0,0.0,0.0,0.0,0.0,0.0,0.0,0.0,0.0,0.0,0.0,0.0,0.0,0.0,0.0,0.0,0.0,0.0,0.0,0.0,0.0,0.0,0.0,0.0,0.0,0.0,0.0,0.0,0.0,0.0,0.0,0.0,0.0,0.0,0.0,0.0,0.0,0.0,0.0,0.0,0.0,0.0,0.0,0.0,0.0,0.0,0.0,0.0,0.0,0.0,0.0,0.0,0.0,0.0,0.0,0.0,0.0,0.0,0.0,0.0,0.0,0.0,0.0,0.0,0.0,0.0,0.0,0.0,0.0,0.0,0.0,0.0,0.0,0.0,0.0,0.0,0.0,0.0,0.0,0.0,0.0,0.0,0.0,0.0,0.0,0.0,0.0,0.0,0.0,0.0,0.0,0.0,0.0,0.0,0.0,0.0,0.0,0.0,0.0,0.0,0.0,0.0,0.0,0.0,0.0,0.0,0.0,0.0,0.0,0.0,0.0,0.0,0.0,0.0,0.0,0.0,0.0,0.0,0.0,0.0,0.0,0.0,0.0,0.0,0.0,0.0,0.0,0.0,0.0,0.0,0.0,0.0,0.0,0.0,0.0,0.0,0.0,0.0,0.0,0.0,0.0,0.0,0.0,0.0,0.0,0.0,0.0,0.0,0.0,0.0,0.0,0.0,0.0,0.0,0.0,0.0,0.0,0.0,0.0,0.0,0.0,0.0,0.0,0.0,0.0,0.0,0.0,0.0,0.0,0.0,0.0,0.0,0.0,0.0,0.0,0.0,0.0,0.0,0.0,0.0,0.0,0.0,0.0,0.0,0.0,0.0,0.0,0.0,0.0,0.0,0.0,0.0,0.0,0.0,0.0,0.0,0.0,0.0,0.0,0.0,0.0,0.0,0.0,0.0,0.0,0.0,0.0,0.0,0.0,0.0,0.0,0.0,0.0,0.0,0.0,0.0,0.0,0.0,0.0,0.0,0.0,0.0,0.0,0.0,0.0,0.0,0.0,0.0,0.0,0.0,0.0,0.0,0.0,0.0,0.0,0.0,0.0,0.0,0.0,0.0,0.0,0.0,0.0,0.0,0.0,0.0,0.0,0.0,0.0,0.0,0.0,0.0,0.0,0.0,0.0,0.0,0.0,0.0,0.0,0.0,0.0,0.0,0.0,0.0,0.0,0.0,0.0,0.0,0.0,0.0,0.0,0.0,0.0,0.0,0.0,0.0,0.0,0.0,0.0,0.0,0.0,0.0,0.0,0.0,0.0,0.0,0.0,0.0,0.0,0.0,0.0,0.0,0.0,0.0,0.0,0.0,0.0,0.0,0.0,0.0,0.0,0.0,0.0,0.0,0.0,0.0,0.0,0.0,0.0,0.0,0.0,0.0,0.0,0.0,0.0,0.0,0.0,0.0,0.0,0.0,0.0,0.0,0.0,0.0,0.0,0.0,0.0,0.0,0.0,0.0,0.0,0.0,0.0,0.0,0.0,0.0,0.0,0.0,0.0,0.0,0.0,0.0,0.0,0.0,0.0,0.0,0.0,0.0,0.0,0.0,0.0,0.0,0.0,0.0,0.0,0.0,0.0,0.0,0.0,0.0,0.0,0.0,0.0,0.0,0.0,0.0,0.0,0.0,0.0,0.0,0.0,0.0,0.0,0.0,0.0,0.0,0.0,0.0,0.0,0.0,0.0,0.0,0.0,0.0,0.0,0.0,0.0,0.0,0.0,0.0,0.0,0.0,0.0,0.0,0.0,0.0,0.0,0.0,0.0,0.0,0.0,0.0,0.0,0.0,0.0,0.0,0.0,0.0,0.0,0.0,0.0,0.0,0.0,0.0,0.0,0.0,0.0,0.0,0.0,0.0,0.0,0.0,0.0,0.0,0.0,0.0,0.0,0.0,0.0,0.0,0.0,0.0,0.0,0.0,0.0,0.0,0.0,0.0,0.0,0.0,0.0,0.0,0.0,0.0,0.0,0.0,0.0,0.0,0.0,0.0,0.0,0.0,0.0,0.0,0.0,0.0,0.0,0.0,0.0,0.0,0.0,0.0,0.0,0.0,0.0,0.0,0.0,0.0,0.0,0.0,0.0,0.0,0.0,0.0,0.0,0.0,0.0,0.0,0.0,0.0,0.0,0.0,0.0,0.0,0.0,0.0,0.0,0.0,0.0,0.0,0.0,0.0,0.0,0.0,0.0,0.0,0.0,0.0,0.0,0.0,0.0,0.0,0.0,0.0,0.0,0.0,0.0,0.0,0.0,0.0,0.0,0.0,0.0,0.0,0.0,0.0,0.0,0.0,0.0,0.0,0.0,0.0,0.0,0.0,0.0,0.0,0.0,0.0,0.0,0.0,0.0,0.0,0.0,0.0,0.0,0.0,0.0,0.0,0.0,0.0,0.0,0.0,0.0,0.0,0.0,0.0,0.0,0.0,0.0,0.0,0.0,0.0,0.0,0.0,0.0,0.0,0.0,0.0,0.0,0.0,0.0,0.0,0.0,0.0,0.0,0.0,0.0,0.0,0.0,0.0,0.0,0.0,0.0,0.0,0.0,0.0,0.0,0.0,0.0,0.0,0.0,0.0,0.0,0.0,0.0,0.0,0.0,0.0,0.0,0.0,0.0,0.0,0.0,0.0,0.0,0.0,0.0,0.0,0.0,0.0,0.0,0.0,0.0,0.0,0.0,0.0,0.0,0.0,0.0,0.0,0.0,0.0,0.0,0.0,0.0,0.0,0.0,0.0,0.0,0.0,0.0,0.0,0.0,0.0,0.0,0.0,0.0,0.0,0.0,0.0,0.0,0.0,0.0,0.0,0.0,0.0,0.0,0.0,0.0,0.0,0.0,0.0,0.0,0.0,0.0,0.0,0.0,0.0,0.0,0.0,0.0,0.0,0.0,0.0,0.0,0.0,0.0,0.0,0.0,0.0,0.0,0.0,0.0,0.0,0.0,0.0,0.0,0.0,0.0,0.0,0.0,0.0,0.0,0.0,0.0,0.0,0.0,0.0,0.0,0.0,0.0,0.0,0.0,0.0,0.0,0.0,0.0,0.0,0.0,0.0,0.0,0.0,0.0,0.0,0.0,0.0,0.0,0.0,0.0,0.0,0.0,0.0,0.0,0.0,0.0,0.0,0.0,0.0,0.0,0.0,0.0,0.0,0.0,0.0,0.0,0.0,0.0,0.0,0.0,0.0,0.0,0.0,0.0,0.0,0.0,0.0,0.0,0.0,0.0,0.0,0.0,0.0,0.0,0.0,0.0,0.0,0.0,0.0,0.0,0.0,0.0,0.0,0.0,0.0,0.0,0.0,0.0,0.0,0.0,0.0,0.0,0.0,0.0,0.0,0.0,0.0,0.0,0.0,0.0,0.0,0.0,0.0,0.0,0.0,0.0,0.0,0.0,0.0,0.0,0.0,0.0,0.0,0.0,0.0,0.0,0.0,0.0,0.0,0.0,0.0,0.0,0.0,0.0,0.0,0.0,0.0,0.0,0.0,0.0,0.0,0.0,0.0,0.0,0.0,0.0,0.0,0.0,0.0,0.0,0.0,0.0,0.0,0.0,0.0,0.0,0.0,0.0,0.0,0.0,0.0,0.0,0.0,0.0,0.0,0.0,0.0,0.0,0.0,0.0,0.0,0.0,0.0,0.0,0.0,0.0,0.0,0.0,0.0,0.0,0.0,0.0,0.0,0.0,0.0,0.0,0.0,0.0,-0.5127,0.0,0.0,0.0,0.0,0.0,0.0,0.0,0.0,0.0,0.0,0.0,0.0,0.0,0.0,0.0,0.0,0.0,0.0,0.0,0.0,0.0,0.0,0.0,0.0,0.0,0.0,0.0,0.0,0.0,0.0,0.0,0.0,0.0,0.0,0.0,0.0,0.0,0.0,0.0,0.0,0.0,0.0,0.0,0.0,0.0,0.0,0.0,0.0,0.0,0.0,0.0,0.0,0.0,0.0,0.0,0.0,0.0,0.0,0.0,0.0,0.0,0.0,0.0,0.0,0.0,0.0,0.0,0.0,0.0,0.0,0.0,0.0,0.0,0.0,0.0,0.0,0.0,0.0,0.0,0.0,0.0,0.0,0.0,0.0,0.0,0.0,0.0,0.0,0.0,0.0,0.0,0.0,0.0,0.0,0.0,0.0,0.0,0.0,0.0,0.0,0.0,0.0,0.0,0.0,0.0,0.0,0.0,0.0,0.0,0.0,-0.4333,-0.4467,-0.4548,-0.4648,-0.4818,0.0,0.0,0.0,0.0,0.0,0.0,0.0,0.0,0.0,0.0,0.0,0.0,0.0,0.0,0.0,0.0,0.0,0.0,0.0,0.0,0.0,0.0,0.0,0.0,0.0,0.0,0.0,0.0,0.0,0.0,0.0,0.0,0.0,0.0,0.0,0.0,0.0,0.0,0.0,0.0,0.0,0.0,0.0,0.0,0.0,0.0,0.0,0.0,0.0,0.0,0.0,0.0,0.0,0.0,0.0,0.0,0.0,0.0,0.0,0.0,0.0,0.0,0.0,0.0,0.0,0.0,0.0,0.0,0.0,0.0,0.0,0.0,0.0,0.0,0.0,0.0,0.0,0.0,0.0,0.0,0.0,0.0,0.0,0.0,0.0,0.0,0.0,0.0,0.0,0.0,0.0,0.0,0.0,0.0,0.0,0.0,0.0,0.0,0.0,0.0,0.0,0.0,0.0,0.0,0.0,0.0,0.0,0.0,0.0,0.0,0.0,0.0,-0.4223,-0.4366,-0.4564,0.0,0.0,0.0,0.0,0.0,0.0,0.0,0.0,0.0,0.0,0.0,0.0,0.0,0.0,0.0,0.0,0.0,0.0,0.0,0.0,0.0,0.0,0.0,0.0,0.0,0.0,0.0,0.0,0.0,0.0,0.0,0.0,0.0,0.0,0.0,0.0,0.0,0.0,0.0,0.0,0.0,0.0,0.0,0.0,0.0,0.0,0.0,0.0,0.0,0.0,0.0,0.0,0.0,0.0,0.0,0.0,0.0,0.0,0.0,0.0,0.0,0.0,0.0,0.0,0.0,0.0,0.0,0.0,0.0,0.0,0.0,0.0,0.0,0.0,0.0,0.0,0.0,0.0,0.0,0.0,0.0,0.0,0.0,0.0,0.0,0.0,0.0,0.0,0.0,0.0,0.0,0.0,0.0,0.0,0.0,0.0,0.0,0.0,0.0,0.0,0.0,0.0,0.0,0.0,0.0,0.0,0.0,0.0,0.0,0.0,-0.3633,-0.3821,-0.3914,0.0,-0.4491,0.0,0.0,0.0,0.0,0.0,0.0,0.0,0.0,0.0,0.0,0.0,0.0,0.0,0.0,0.0,0.0,0.0,0.0,0.0,0.0,0.0,0.0,0.0,0.0,0.0,0.0,0.0,0.0,0.0,0.0,0.0,0.0,0.0,0.0,0.0,0.0,0.0,0.0,0.0,0.0,0.0,0.0,0.0,0.0,0.0,0.0,0.0,0.0,0.0,0.0,0.0,0.0,0.0,0.0,0.0,0.0,0.0,0.0,0.0,0.0,0.0,0.0,0.0,0.0,0.0,0.0,0.0,0.0,0.0,0.0,0.0,0.0,0.0,0.0,0.0,0.0,0.0,0.0,0.0,0.0,0.0,0.0,0.0,0.0,0.0,0.0,0.0,0.0,0.0,0.0,0.0,0.0,0.0,0.0,0.0,0.0,0.0,0.0,0.0,0.0,0.0,0.0,0.0,0.0,0.0,0.0,0.0,0.0,0.0,0.0,-0.3302,-0.3493,-0.3762,-0.4052,0.0,0.0,0.0,0.0,0.0,0.0,0.0,0.0,0.0,0.0,0.0,0.0,0.0,0.0,0.0,0.0,0.0,0.0,0.0,0.0,0.0,0.0,0.0,0.0,0.0,0.0,0.0,0.0,0.0,0.0,0.0,0.0,0.0,0.0,0.0,0.0,0.0,0.0,0.0,0.0,0.0,0.0,0.0,0.0,0.0,0.0,0.0,0.0,0.0,0.0,0.0,0.0,0.0,0.0,0.0,0.0,0.0,0.0,0.0,0.0,0.0,0.0,0.0,0.0,0.0,0.0,0.0,0.0,0.0,0.0,0.0,0.0,0.0,0.0,0.0,0.0,0.0,0.0,0.0,0.0,0.0,0.0,0.0,0.0,0.0,0.0,0.0,0.0,0.0,0.0,0.0,0.0,0.0,0.0,0.0,0.0,0.0,0.0,0.0,0.0,0.0,0.0,0.0,0.0,0.0,0.0,0.0,0.0,0.0,0.0,-0.2915,0.0,-0.3293,-0.3654,-0.3965,-0.4232,0.0,0.0,0.0,0.0,0.0,0.0,0.0,0.0,0.0,0.0,0.0,0.0,0.0,0.0,0.0,0.0,0.0,0.0,0.0,0.0,0.0,0.0,0.0,0.0,0.0,0.0,0.0,0.0,0.0,0.0,0.0,0.0,0.0,0.0,0.0,0.0,0.0,0.0,0.0,0.0,0.0,0.0,0.0,0.0,0.0,0.0,0.0,0.0,0.0,0.0,0.0,0.0,0.0,0.0,0.0,0.0,0.0,0.0,0.0,0.0,0.0,0.0,0.0,0.0,0.0,0.0,0.0,0.0,0.0,0.0,0.0,0.0,0.0,0.0,0.0,0.0,0.0,0.0,0.0,0.0,0.0,0.0,0.0,0.0,0.0,0.0,0.0,0.0,0.0,0.0,0.0,0.0,0.0,0.0,0.0,0.0,0.0,0.0,0.0,0.0,0.0,0.0,0.0,0.0,0.0,0.0,0.0,0.0,0.0,-0.2753,-0.2958,-0.3293,-0.3559,-0.3831,0.0,0.0,0.0,0.0,0.0,0.0,0.0,0.0,0.0,0.0,0.0,0.0,0.0,0.0,0.0,0.0,0.0,0.0,0.0,0.0,0.0,0.0,0.0,0.0,0.0,0.0,0.0,0.0,0.0,0.0,0.0,0.0,0.0,0.0,0.0,0.0,0.0,0.0,0.0,0.0,0.0,0.0,0.0,0.0,0.0,0.0,0.0,0.0,0.0,0.0,0.0,0.0,0.0,0.0,0.0,0.0,0.0,0.0,0.0,0.0,0.0,0.0,0.0,0.0,0.0,0.0,0.0,0.0,0.0,0.0,0.0,0.0,0.0,0.0,0.0,0.0,0.0,0.0,0.0,0.0,0.0,0.0,0.0,0.0,0.0,0.0,0.0,0.0,0.0,0.0,0.0,0.0,0.0,0.0,0.0,0.0,0.0,0.0,0.0,0.0,0.0,0.0,0.0,0.0,0.0,0.0,0.0,0.0,0.0,-0.2609,-0.2859,-0.3089,-0.3296,-0.3601,-0.3877,0.0,0.0,0.0,0.0,0.0,0.0,0.0,0.0,0.0,0.0,0.0,0.0,0.0,0.0,0.0,0.0,0.0,0.0,0.0,0.0,0.0,0.0,0.0,0.0,0.0,0.0,0.0,0.0,0.0,0.0,0.0,0.0,0.0,0.0,0.0,0.0,0.0,0.0,0.0,0.0,0.0,0.0,0.0,0.0,0.0,0.0,0.0,0.0,0.0,0.0,0.0,0.0,0.0,0.0,0.0,0.0,0.0,0.0,0.0,0.0,0.0,0.0,0.0,0.0,0.0,0.0,0.0,0.0,0.0,0.0,0.0,0.0,0.0,0.0,0.0,0.0,0.0,0.0,0.0,0.0,0.0,0.0,0.0,0.0,0.0,0.0,0.0,0.0,0.0,0.0,0.0,0.0,0.0,0.0,0.0,0.0,0.0,0.0,0.0,0.0,0.0,0.0,0.0,0.0,0.0,0.0,0.0,0.0,0.0,-0.2696,0.0,-0.3196,0.0,-0.3647,-0.3914,0.0,0.0,0.0,0.0,0.0,0.0,0.0,0.0,0.0,0.0,0.0,0.0,0.0,0.0,0.0,0.0,0.0,0.0,0.0,0.0,0.0,0.0,0.0,0.0,0.0,0.0,0.0,0.0,0.0,0.0,0.0,0.0,0.0,0.0,0.0,0.0,0.0,0.0,0.0,0.0,0.0,0.0,0.0,0.0,0.0,0.0,0.0,0.0,0.0,0.0,0.0,0.0,0.0,0.0,0.0,0.0,0.0,0.0,0.0,0.0,0.0,0.0,0.0,0.0,0.0,0.0,0.0,0.0,0.0,0.0,0.0,0.0,0.0,0.0,0.0,0.0,0.0,0.0,0.0,0.0,0.0,0.0,0.0,0.0,0.0,0.0,0.0,0.0,0.0,0.0,0.0,0.0,0.0,0.0,0.0,0.0,0.0,0.0,0.0,0.0,0.0,0.0,0.0,0.0,0.0,0.0,0.0,0.0,-0.258,-0.2891,-0.3131,-0.3334,-0.3513,-0.3738,-0.3969,0.0,0.0,0.0,0.0,0.0,0.0,0.0,0.0,0.0,0.0,0.0,0.0,0.0,0.0,0.0,0.0,0.0,0.0,0.0,0.0,0.0,0.0,0.0,0.0,0.0,0.0,0.0,0.0,0.0,0.0,0.0,0.0,0.0,0.0,0.0,0.0,0.0,0.0,0.0,0.0,0.0,0.0,0.0,0.0,0.0,0.0,0.0,0.0,0.0,0.0,0.0,0.0,0.0,0.0,0.0,0.0,0.0,0.0,0.0,0.0,0.0,0.0,0.0,0.0,0.0,0.0,0.0,0.0,0.0,0.0,0.0,0.0,0.0,0.0,0.0,0.0,0.0,0.0,0.0,0.0,0.0,0.0,0.0,0.0,0.0,0.0,0.0,0.0,0.0,0.0,0.0,0.0,0.0,0.0,0.0,0.0,0.0,0.0,0.0,0.0,0.0,0.0,0.0,0.0,0.0,0.0,0.0,0.0,0.0,-0.3519,-0.3755,-0.3981,-0.4197,-0.4372,-0.4482,0.0,0.0,0.0,0.0,0.0,0.0,0.0,0.0,0.0,0.0,0.0,0.0,0.0,0.0,0.0,0.0,0.0,0.0,0.0,0.0,0.0,0.0,0.0,0.0,0.0,0.0,0.0,0.0,0.0,0.0,0.0,0.0,0.0,0.0,0.0,0.0,0.0,0.0,0.0,0.0,0.0,0.0,0.0,0.0,0.0,0.0,0.0,0.0,0.0,0.0,0.0,0.0,0.0,0.0,0.0,0.0,0.0,0.0,0.0,0.0,0.0,0.0,0.0,0.0,0.0,0.0,0.0,0.0,0.0,0.0,0.0,0.0,0.0,0.0,0.0,0.0,0.0,0.0,0.0,0.0,0.0,0.0,0.0,0.0,0.0,0.0,0.0,0.0,0.0,0.0,0.0,0.0,0.0,0.0,0.0,0.0,0.0,0.0,0.0,0.0,0.0,0.0,0.0,0.0,0.0,0.0,0.0,0.0,0.0,-0.4487,-0.452,-0.4653,-0.4949,-0.5128,-0.5158,-0.5024,0.0,0.0,0.0,0.0,0.0,0.0,0.0,0.0,0.0,0.0,0.0,0.0,0.0,0.0,0.0,0.0,0.0,0.0,0.0,0.0,0.0,0.0,0.0,0.0,0.0,0.0,0.0,0.0,0.0,0.0,0.0,0.0,0.0,0.0,0.0,0.0,0.0,0.0,0.0,0.0,0.0,0.0,0.0,0.0,0.0,0.0,0.0,0.0,0.0,0.0,0.0,0.0,0.0,0.0,0.0,0.0,0.0,0.0,0.0,0.0,0.0,0.0,0.0,0.0,0.0,0.0,0.0,0.0,0.0,0.0,0.0,0.0,0.0,0.0,0.0,0.0,0.0,0.0,0.0,0.0,0.0,0.0,0.0,0.0,0.0,0.0,0.0,0.0,0.0,0.0,0.0,0.0,0.0,0.0,0.0,0.0,0.0,0.0,0.0,0.0,0.0,0.0,0.0,0.0,0.0,0.0,0.0,0.0,-0.5751,-0.5396,-0.54,-0.5756,-0.5882,-0.5879,0.0,0.0,0.0,0.0,0.0,0.0,0.0,0.0,0.0,0.0,0.0,0.0,0.0,0.0,0.0,0.0,0.0,0.0,0.0,0.0,0.0,0.0,0.0,0.0,0.0,0.0,0.0,0.0,0.0,0.0,0.0,0.0,0.0,0.0,0.0,0.0,0.0,0.0,0.0,0.0,0.0,0.0,0.0,0.0,0.0,0.0,0.0,0.0,0.0,0.0,0.0,0.0,0.0,0.0,0.0,0.0,0.0,0.0,0.0,0.0,0.0,0.0,0.0,0.0,0.0,0.0,0.0,0.0,0.0,0.0,0.0,0.0,0.0,0.0,0.0,0.0,0.0,0.0,0.0,0.0,0.0,0.0,0.0,0.0,0.0,0.0,0.0,0.0,0.0,0.0,0.0,0.0,0.0,0.0,0.0,0.0,0.0,0.0,0.0,0.0,0.0,0.0,0.0,0.0,0.0,0.0,0.0,0.0,0.0,-0.6407,-0.663,-0.6647,-0.6474,-0.6719,-0.6607,0.0,0.0,0.0,0.0,0.0,0.0,0.0,0.0,0.0,0.0,0.0,0.0,0.0,0.0,0.0,0.0,0.0,0.0,0.0,0.0,0.0,0.0,0.0,0.0,0.0,0.0,0.0,0.0,0.0,0.0,0.0,0.0,0.0,0.0,0.0,0.0,0.0,0.0,0.0,0.0,0.0,0.0,0.0,0.0,0.0,0.0,0.0,0.0,0.0,0.0,0.0,0.0,0.0,0.0,0.0,0.0,0.0,0.0,0.0,0.0,0.0,0.0,0.0,0.0,0.0,0.0,0.0,0.0,0.0,0.0,0.0,0.0,0.0,0.0,0.0,0.0,0.0,0.0,0.0,0.0,0.0,0.0,0.0,0.0,0.0,0.0,0.0,0.0,0.0,0.0,0.0,0.0,0.0,0.0,0.0,0.0,0.0,0.0,0.0,0.0,0.0,0.0,0.0,0.0,0.0,0.0,0.0,0.0,-0.6289,-0.7029,-0.7413,-0.7554,-0.7452,-0.7621,-0.7478,0.0,0.0,0.0,0.0,0.0,0.0,0.0,0.0,0.0,0.0,0.0,0.0,0.0,0.0,0.0,0.0,0.0,0.0,0.0,0.0,0.0,0.0,0.0,0.0,0.0,0.0,0.0,0.0,0.0,0.0,0.0,0.0,0.0,0.0,0.0,0.0,0.0,0.0,0.0,0.0,0.0,0.0,0.0,0.0,0.0,0.0,0.0,0.0,0.0,0.0,0.0,0.0,0.0,0.0,0.0,0.0,0.0,0.0,0.0,0.0,0.0,0.0,0.0,0.0,0.0,0.0,0.0,0.0,0.0,0.0,0.0,0.0,0.0,0.0,0.0,0.0,0.0,0.0,0.0,0.0,0.0,0.0,0.0,0.0,0.0,0.0,0.0,0.0,0.0,0.0,0.0,0.0,0.0,0.0,0.0,0.0,0.0,0.0,0.0,0.0,0.0,0.0,0.0,0.0,0.0,0.0,0.0,0.0,-0.6746,-0.7539,-0.7869,-0.8192,-0.854,-0.8489,-0.8366,0.0,0.0,0.0,0.0,0.0,0.0,0.0,0.0,0.0,0.0,0.0,0.0,0.0,0.0,0.0,0.0,0.0,0.0,0.0,0.0,0.0,0.0,0.0,0.0,0.0,0.0,0.0,0.0,0.0,0.0,0.0,0.0,0.0,0.0,0.0,0.0,0.0,0.0,0.0,0.0,0.0,0.0,0.0,0.0,0.0,0.0,0.0,0.0,0.0,0.0,0.0,0.0,0.0,0.0,0.0,0.0,0.0,0.0,0.0,0.0,0.0,0.0,0.0,0.0,0.0,0.0,0.0,0.0,0.0,0.0,0.0,0.0,0.0,0.0,0.0,0.0,0.0,0.0,0.0,0.0,0.0,0.0,0.0,0.0,0.0,0.0,0.0,0.0,0.0,0.0,0.0,0.0,0.0,0.0,0.0,0.0,0.0,0.0,0.0,0.0,0.0,0.0,0.0,0.0,0.0,0.0,0.0,0.0,-0.7255,-0.7806,-0.8156,-0.85,-0.8894,-0.8944,-0.8775,0.0,0.0,0.0,0.0,0.0,0.0,0.0,0.0,0.0,0.0,0.0,0.0,0.0,0.0,0.0,0.0,0.0,0.0,0.0,0.0,0.0,0.0,0.0,0.0,0.0,0.0,0.0,0.0,0.0,0.0,0.0,0.0,0.0,0.0,0.0,0.0,0.0,0.0,0.0,0.0,0.0,0.0,0.0,0.0,0.0,0.0,0.0,0.0,-0.3052,0.0,0.0,0.0,0.0,0.0,0.0,0.0,0.0,0.0,0.0,0.0,0.0,0.0,0.0,0.0,0.0,0.0,0.0,0.0,0.0,0.0,0.0,0.0,0.0,0.0,0.0,0.0,0.0,0.0,0.0,0.0,0.0,0.0,0.0,0.0,0.0,0.0,0.0,0.0,0.0,0.0,0.0,0.0,0.0,0.0,0.0,0.0,0.0,0.0,0.0,0.0,0.0,0.0,0.0,0.0,0.0,0.0,0.0,0.0,-0.7744,-0.8213,-0.8539,-0.885,-0.9157,-0.9271,-0.9221,0.0,0.0,0.0,0.0,0.0,0.0,0.0,0.0,0.0,0.0,0.0,0.0,0.0,0.0,0.0,0.0,0.0,0.0,0.0,0.0,0.0,0.0,0.0,0.0,0.0,0.0,0.0,0.0,0.0,0.0,0.0,0.0,0.0,0.0,0.0,0.0,0.0,0.0,0.0,0.0,0.0,0.0,0.0,0.0,0.0,0.0,0.0,0.0,0.0,0.0,0.0,0.0,0.0,0.0,0.0,0.0,0.0,0.0,0.0,0.0,0.0,0.0,0.0,0.0,0.0,0.0,0.0,0.0,0.0,0.0,0.0,0.0,0.0,0.0,0.0,0.0,0.0,0.0,0.0,0.0,0.0,0.0,0.0,0.0,0.0,0.0,0.0,0.0,0.0,0.0,0.0,0.0,0.0,0.0,0.0,0.0,0.0,0.0,0.0,0.0,0.0,0.0,0.0,0.0,0.0,0.0,0.0,-0.7644,-0.8207,-0.8645,-0.8889,-0.919,-0.9434,-0.9579,-0.9611,-0.9573,0.0,0.0,0.0,0.0,0.0,0.0,0.0,0.0,0.0,0.0,0.0,0.0,0.0,0.0,0.0,0.0,0.0,0.0,0.0,0.0,0.0,0.0,0.0,0.0,0.0,0.0,0.0,0.0,0.0,0.0,0.0,0.0,0.0,0.0,0.0,0.0,0.0,0.0,-0.3114,-0.339,0.0,0.0,0.0,0.0,0.0,0.0,0.0,0.0,-0.4513,0.0,0.0,0.0,0.0,0.0,0.0,0.0,0.0,0.0,0.0,0.0,0.0,0.0,0.0,0.0,0.0,0.0,0.0,0.0,0.0,0.0,0.0,0.0,0.0,0.0,0.0,0.0,0.0,0.0,0.0,0.0,0.0,0.0,0.0,0.0,0.0,0.0,0.0,0.0,0.0,0.0,0.0,0.0,0.0,0.0,0.0,0.0,0.0,0.0,0.0,0.0,0.0,0.0,0.0,0.0,0.0,-0.715,-0.7978,-0.8534,-0.886,-0.9112,-0.9366,-0.9638,-0.9736,-0.9828,-0.9855,0.0,0.0,0.0,0.0,0.0,0.0,0.0,0.0,0.0,0.0,0.0,0.0,0.0,0.0,0.0,0.0,0.0,0.0,0.0,0.0,0.0,0.0,0.0,0.0,0.0,0.0,0.0,0.0,0.0,0.0,0.0,0.0,0.0,0.0,0.0,0.0,0.0,0.0,0.0,-0.3594,-0.3919,0.0,0.0,0.0,0.0,0.0,0.0,0.0,0.0,-0.4339,0.0,0.0,0.0,0.0,0.0,0.0,0.0,0.0,0.0,0.0,0.0,0.0,0.0,0.0,0.0,0.0,0.0,0.0,0.0,0.0,0.0,0.0,0.0,0.0,0.0,0.0,0.0,0.0,0.0,0.0,0.0,0.0,0.0,0.0,0.0,0.0,0.0,0.0,0.0,0.0,0.0,0.0,0.0,0.0,0.0,0.0,0.0,0.0,0.0,0.0,0.0,0.0,0.0,0.0,0.0,-0.7831,-0.842,-0.886,-0.9218,-0.9402,-0.9646,-0.9899,-0.9951,-1.0034,0.0,0.0,0.0,0.0,0.0,0.0,0.0,0.0,0.0,0.0,0.0,0.0,0.0,0.0,0.0,0.0,0.0,0.0,0.0,0.0,0.0,0.0,0.0,0.0,0.0,0.0,0.0,0.0,0.0,0.0,0.0,0.0,0.0,0.0,0.0,0.0,0.0,0.0,0.0,0.0,-0.4127,-0.4501,-0.499,0.0,0.0,0.0,0.0,0.0,0.0,-0.5369,-0.4968,0.0,0.0,0.0,0.0,0.0,0.0,0.0,0.0,0.0,0.0,0.0,0.0,0.0,0.0,0.0,0.0,0.0,0.0,0.0,0.0,0.0,0.0,0.0,0.0,0.0,0.0,0.0,0.0,0.0,0.0,0.0,0.0,0.0,0.0,0.0,0.0,0.0,0.0,0.0,0.0,0.0,0.0,0.0,0.0,0.0,0.0,0.0,0.0,0.0,0.0,0.0,0.0,0.0,0.0,0.0,-0.8519,-0.8866,-0.9265,-0.9727,-0.9786,-0.9956,-1.0334,-1.0225,-1.028,0.0,0.0,0.0,0.0,0.0,0.0,0.0,0.0,0.0,0.0,0.0,0.0,0.0,0.0,0.0,0.0,0.0,0.0,0.0,0.0,0.0,0.0,0.0,0.0,0.0,0.0,0.0,0.0,0.0,0.0,0.0,0.0,0.0,0.0,0.0,0.0,0.0,0.0,0.0,0.0,0.0,-0.5126,-0.5613,-0.5758,0.0,0.0,0.0,0.0,-0.6261,-0.6008,0.0,0.0,0.0,0.0,0.0,0.0,0.0,0.0,0.0,0.0,0.0,0.0,0.0,0.0,0.0,0.0,0.0,0.0,0.0,0.0,0.0,0.0,0.0,0.0,0.0,0.0,0.0,0.0,0.0,0.0,0.0,0.0,0.0,0.0,0.0,0.0,0.0,0.0,0.0,0.0,0.0,0.0,0.0,0.0,0.0,0.0,0.0,0.0,0.0,0.0,0.0,0.0,0.0,0.0,0.0,0.0,-0.8815,-0.9251,-0.982,-1.0592,-1.0275,-1.0431,-1.1236,-1.0739,-1.0516,0.0,0.0,0.0,0.0,0.0,0.0,0.0,0.0,0.0,0.0,0.0,0.0,0.0,0.0,0.0,0.0,0.0,0.0,0.0,0.0,0.0,0.0,0.0,0.0,0.0,0.0,0.0,0.0,0.0,0.0,0.0,0.0,0.0,0.0,0.0,0.0,0.0,0.0,0.0,0.0,0.0,-0.5711,-0.6215,-0.6358,-0.6591,0.0,0.0,-0.6513,-0.6561,-0.6092,0.0,0.0,0.0,0.0,0.0,0.0,0.0,0.0,0.0,0.0,0.0,0.0,0.0,0.0,0.0,0.0,0.0,0.0,0.0,0.0,0.0,0.0,0.0,0.0,0.0,0.0,0.0,0.0,0.0,0.0,0.0,0.0,0.0,0.0,0.0,0.0,0.0,0.0,0.0,0.0,0.0,0.0,0.0,0.0,0.0,0.0,0.0,0.0,0.0,0.0,0.0,0.0,0.0,0.0,0.0,-0.7958,-0.9198,-0.9569,-1.0144,-1.0973,-1.0965,-1.1161,-1.1613,-1.1438,-1.1231,0.0,0.0,0.0,0.0,0.0,0.0,0.0,0.0,0.0,0.0,0.0,0.0,0.0,0.0,0.0,0.0,0.0,0.0,0.0,0.0,0.0,0.0,0.0,0.0,0.0,0.0,0.0,0.0,0.0,0.0,0.0,0.0,0.0,0.0,0.0,0.0,0.0,0.0,0.0,0.0,0.0,0.0,-0.697,-0.718,0.0,0.0,0.0,-0.7257,-0.7028,0.0,0.0,0.0,0.0,0.0,0.0,0.0,0.0,0.0,0.0,0.0,0.0,0.0,0.0,0.0,0.0,0.0,0.0,0.0,0.0,0.0,0.0,0.0,0.0,0.0,0.0,0.0,0.0,0.0,0.0,0.0,0.0,0.0,0.0,0.0,0.0,0.0,0.0,0.0,0.0,0.0,0.0,0.0,0.0,0.0,0.0,0.0,0.0,0.0,0.0,0.0,0.0,0.0,0.0,0.0,0.0,0.0,-0.9589,-1.0025,-1.0657,-1.1528,-1.1811,-1.1996,-1.216,-1.2148,0.0,0.0,0.0,0.0,0.0,0.0,0.0,0.0,0.0,0.0,0.0,0.0,0.0,0.0,0.0,0.0,0.0,0.0,0.0,0.0,0.0,0.0,0.0,0.0,0.0,0.0,0.0,-0.4315,0.0,0.0,0.0,0.0,0.0,0.0,0.0,0.0,0.0,0.0,0.0,0.0,0.0,0.0,-0.6837,-0.7676,-0.7906,-0.8075,0.0,0.0,-0.7813,-0.746,-0.6691,-0.5992,0.0,0.0,0.0,0.0,0.0,0.0,0.0,0.0,0.0,0.0,0.0,0.0,0.0,0.0,0.0,0.0,0.0,0.0,0.0,0.0,0.0,0.0,0.0,0.0,0.0,0.0,0.0,0.0,0.0,0.0,0.0,0.0,0.0,0.0,0.0,0.0,0.0,0.0,0.0,0.0,0.0,0.0,0.0,0.0,0.0,0.0,0.0,0.0,0.0,0.0,0.0,0.0,0.0,0.0,0.0,-0.9861,-1.0676,-1.1561,-1.2484,-1.2713,-1.2909,-1.3104,-1.2611,-1.2131,0.0,0.0,0.0,0.0,0.0,0.0,0.0,0.0,0.0,0.0,0.0,0.0,0.0,0.0,0.0,0.0,0.0,0.0,0.0,0.0,0.0,0.0,0.0,0.0,0.0,0.0,0.0,0.0,0.0,0.0,0.0,0.0,0.0,0.0,0.0,0.0,0.0,0.0,0.0,0.0,0.0,-0.7619,-0.8156,-0.8443,-0.855,0.0,-0.8225,-0.7929,-0.7727,-0.7059,-0.6404,-0.5935,0.0,0.0,0.0,0.0,0.0,0.0,0.0,0.0,0.0,0.0,0.0,0.0,0.0,0.0,0.0,0.0,0.0,0.0,0.0,0.0,0.0,0.0,0.0,0.0,0.0,0.0,0.0,0.0,0.0,0.0,0.0,0.0,0.0,0.0,0.0,0.0,0.0,0.0,0.0,0.0,0.0,0.0,0.0,0.0,0.0,0.0,0.0,0.0,0.0,0.0,0.0,0.0,0.0,-0.9455,-1.0255,-1.1172,-1.2051,-1.2884,-1.3555,-1.3718,-1.345,-1.3408,-1.2921,0.0,0.0,0.0,0.0,0.0,0.0,0.0,0.0,0.0,0.0,0.0,0.0,0.0,0.0,0.0,0.0,0.0,0.0,0.0,0.0,0.0,0.0,0.0,0.0,0.0,0.0,0.0,0.0,-0.6059,-0.5832,-0.5354,0.0,0.0,0.0,0.0,0.0,0.0,0.0,0.0,0.0,0.0,-0.8259,-0.8842,-0.9015,0.0,0.0,-0.8991,-0.8695,-0.8373,-0.7675,-0.6997,-0.6535,-0.572,0.0,0.0,0.0,0.0,0.0,0.0,0.0,0.0,0.0,0.0,0.0,0.0,0.0,0.0,0.0,0.0,0.0,0.0,0.0,0.0,0.0,0.0,0.0,0.0,0.0,0.0,0.0,0.0,0.0,0.0,0.0,0.0,0.0,0.0,0.0,0.0,0.0,0.0,0.0,0.0,0.0,0.0,0.0,0.0,0.0,0.0,0.0,0.0,0.0,0.0,0.0,0.0,-1.0026,-1.0645,-1.1714,-1.2588,-1.3221,-1.4319,-1.454,-1.378,-1.3995,-1.349,0.0,0.0,0.0,0.0,0.0,0.0,0.0,0.0,0.0,0.0,0.0,0.0,0.0,0.0,0.0,0.0,0.0,0.0,0.0,0.0,0.0,0.0,0.0,0.0,0.0,0.0,0.0,0.0,-0.6319,-0.5993,-0.5659,0.0,0.0,0.0,0.0,0.0,0.0,0.0,0.0,0.0,0.0,-0.8955,-0.9506,-0.9662,-0.9692,-0.9755,-0.9581,-0.9293,-0.885,-0.8202,-0.7617,-0.7125,0.0,0.0,0.0,0.0,0.0,0.0,0.0,0.0,0.0,0.0,0.0,0.0,0.0,0.0,0.0,0.0,0.0,0.0,0.0,0.0,0.0,0.0,0.0,0.0,0.0,0.0,0.0,-0.3342,0.0,0.0,-0.3942,0.0,0.0,0.0,0.0,0.0,0.0,0.0,0.0,0.0,0.0,0.0,0.0,0.0,0.0,0.0,0.0,0.0,0.0,0.0,0.0,0.0,0.0,-1.0715,-1.1026,-1.2433,-1.326,-1.3557,-1.5039,-1.5296,-1.4149,-1.4239,-1.3719,-1.2518,0.0,0.0,0.0,0.0,0.0,0.0,0.0,0.0,0.0,0.0,0.0,0.0,0.0,0.0,0.0,0.0,0.0,0.0,0.0,0.0,0.0,0.0,0.0,0.0,0.0,0.0,-0.6749,-0.6325,-0.6115,0.0,0.0,0.0,0.0,0.0,0.0,0.0,0.0,0.0,0.0,-0.924,-0.9775,-1.02,-1.0264,-1.0244,-1.0029,-0.9846,-0.9528,-0.909,-0.8667,-0.8201,0.0,0.0,0.0,0.0,0.0,0.0,0.0,0.0,0.0,0.0,0.0,0.0,0.0,0.0,0.0,0.0,0.0,0.0,0.0,0.0,0.0,0.0,0.0,0.0,0.0,0.0,0.0,-0.5524,-0.5337,0.0,0.0,0.0,0.0,0.0,0.0,0.0,0.0,0.0,0.0,0.0,-1.2265,-1.2472,0.0,0.0,0.0,0.0,0.0,0.0,0.0,0.0,0.0,0.0,0.0,0.0,-1.1336,-1.2065,-1.3051,-1.3846,-1.4491,-1.5602,-1.5579,-1.4365,-1.446,-1.3778,-1.209,0.0,0.0,0.0,0.0,0.0,0.0,0.0,0.0,0.0,0.0,0.0,0.0,0.0,0.0,0.0,0.0,0.0,0.0,0.0,0.0,0.0,0.0,0.0,0.0,0.0,-0.7098,0.0,0.0,0.0,0.0,0.0,0.0,0.0,0.0,0.0,0.0,0.0,-0.9065,-0.9607,-1.0116,-1.0482,-1.0552,-1.0834,-1.094,0.0,0.0,0.0,0.0,0.0,0.0,0.0,0.0,0.0,0.0,0.0,0.0,0.0,0.0,-0.4447,-0.3469,-0.3253,-0.3179,-0.3036,0.0,0.0,0.0,0.0,0.0,0.0,0.0,0.0,0.0,0.0,0.0,0.0,0.0,0.0,-0.848,-0.831,-0.8371,0.0,0.0,0.0,0.0,0.0,0.0,0.0,0.0,-1.3763,-1.3983,-1.4143,-1.4135,-1.416,0.0,-1.3682,-1.2665,0.0,0.0,0.0,0.0,0.0,0.0,0.0,0.0,-1.2169,-1.304,-1.3797,-1.4485,-1.5134,-1.5963,-1.5923,-1.494,-1.4631,-1.3626,-1.1882,-1.1368,-1.0667,0.0,0.0,0.0,0.0,0.0,0.0,0.0,0.0,0.0,0.0,0.0,0.0,0.0,0.0,0.0,0.0,0.0,0.0,0.0,0.0,0.0,0.0,0.0,-0.749,0.0,0.0,0.0,0.0,0.0,0.0,0.0,0.0,0.0,-1.0059,-0.9974,-1.0017,-1.0406,-1.0846,-1.1152,-1.1206,0.0,0.0,0.0,0.0,0.0,0.0,0.0,-1.0191,-0.9951,-0.9669,-0.9189,-0.8419,-0.762,-0.6946,-0.6563,0.0,0.0,-0.4553,-0.43,-0.4183,-0.4004,-0.3847,-0.369,-0.3506,-0.3385,-0.3248,0.0,0.0,0.0,0.0,0.0,0.0,0.0,0.0,-1.1554,-1.1808,0.0,-1.198,0.0,0.0,0.0,0.0,-1.2986,-1.337,0.0,0.0,-1.4396,-1.4491,-1.4678,-1.4709,-1.4639,-1.4569,-1.4684,-1.4652,-1.4512,-1.2784,0.0,0.0,0.0,0.0,0.0,0.0,-1.3136,-1.3945,-1.4712,-1.5204,-1.5469,-1.6208,-1.637,-1.5823,-1.4666,-1.3374,-1.2032,-1.1917,-1.1229,-0.9811,-0.9696,0.0,0.0,0.0,0.0,0.0,0.0,0.0,0.0,0.0,0.0,0.0,0.0,0.0,0.0,0.0,0.0,0.0,0.0,0.0,0.0,-0.7655,0.0,0.0,0.0,0.0,0.0,0.0,0.0,0.0,0.0,0.0,-1.0796,-1.0923,-1.1067,-1.116,0.0,0.0,0.0,0.0,-1.184,-1.2085,-1.1854,-1.1616,-1.141,-1.1006,-1.0678,-1.0489,0.0,0.0,-0.914,-0.8842,-0.8483,-0.8088,-0.7684,-0.6985,-0.5528,-0.5205,-0.5031,-0.4816,-0.4711,-0.4571,-0.4382,-0.4222,-0.4106,-1.5112,0.0,0.0,0.0,0.0,-1.3336,-1.3314,-1.2899,-1.3532,-1.3617,-1.3308,-1.3296,0.0,0.0,0.0,0.0,0.0,0.0,-1.5418,-1.6041,-1.6272,-1.6362,-1.6313,-1.6313,-1.6297,-1.6273,-1.583,-1.5612,-1.554,-1.4575,-1.3989,-1.3788,0.0,0.0,0.0,0.0,-1.4093,-1.4877,-1.5195,-1.5624,-1.6255,-1.661,-1.6362,-1.5433,-1.4542,-1.3653,-1.2785,-1.2248,-1.153,-1.0598,-1.0056,0.0,0.0,0.0,0.0,0.0,0.0,0.0,0.0,0.0,0.0,0.0,0.0,0.0,0.0,0.0,0.0,0.0,0.0,0.0,-0.8621,-0.8423,-0.8493,0.0,0.0,0.0,0.0,0.0,0.0,0.0,0.0,0.0,-1.301,-1.2561,-1.2248,0.0,0.0,-1.3287,-1.3156,-1.3176,-1.3103,-1.2858,-1.2777,0.0,-1.2453,-1.2115,-1.1776,-1.1622,-1.1006,-1.0445,-1.0208,-0.967,-0.9128,-0.8864,-0.8686,-0.8281,-0.7589,-0.6669,-0.6059,-0.5722,-0.5594,-0.547,-0.5094,-0.4968,-0.4899,-1.8013,-1.6585,-1.5703,-1.5159,-1.4976,-1.5379,-1.5289,-1.4837,-1.5329,-1.5353,-1.5099,-1.5057,-1.5082,-1.5156,-1.5057,0.0,0.0,0.0,-1.7033,-1.7446,-1.7968,-1.8159,-1.8042,-1.7772,-1.7633,-1.76,-1.6889,-1.6545,-1.6514,-1.6128,-1.5863,-1.5685,0.0,0.0,-1.49,-1.4772,-1.5059,-1.5772,-1.5873,-1.6206,-1.6779,-1.6992,-1.6652,-1.5725,-1.4949,-1.4261,-1.3596,-1.2873,-1.214,-1.141,-1.0673,-0.9806,0.0,0.0,0.0,0.0,0.0,0.0,0.0,0.0,0.0,0.0,0.0,-0.6878,-0.7619,0.0,0.0,0.0,-0.8469,-0.8682,-0.894,-0.8991,0.0,0.0,0.0,0.0,0.0,0.0,0.0,-1.1923,-1.2693,-1.341,-1.3958,-1.3895,-1.3788,-1.3712,-1.3921,-1.408,-1.3921,0.0,-1.3801,-1.3582,-1.3429,-1.3276,-1.3099,-1.2769,-1.2431,-1.2224,-1.1732,-1.1279,-1.1071,-1.0588,-1.0219,-0.9919,-0.9672,-0.9431,-0.8963,-0.812,-0.7331,-0.6806,-0.6672,-0.6487,-0.6172,-0.5997,-0.5813,-2.069,-2.0483,-1.8637,-1.7684,-1.7355,-1.7355,-1.7247,-1.7052,-1.706,-1.7146,-1.7314,-1.7189,-1.7197,-1.7322,-1.7205,0.0,-1.7171,-1.8074,-1.8515,-1.854,-1.9338,-1.9698,-1.9673,-1.9034,-1.871,-1.8701,-1.7946,-1.7583,-1.7527,-1.7583,-1.7583,-1.7559,-1.5987,-1.5405,-1.5806,-1.5741,-1.6016,-1.6615,-1.6712,-1.6849,-1.7108,-1.7298,-1.7088,-1.6428,-1.5699,-1.4974,-1.4322,-1.3594,-1.2866,-1.2123,-1.1456,-1.0361,-0.8812,0.0,0.0,0.0,0.0,0.0,0.0,0.0,0.0,0.0,0.0,0.0,0.0,0.0,0.0,0.0,-0.8888,0.0,-0.907,-0.9499,0.0,0.0,0.0,-1.116,-1.1462,-1.2216,-1.2692,-1.2503,0.0,0.0,-1.4082,-1.5031,-1.5446,-1.467,-1.4489,-1.4474,-1.4582,-1.4344,-1.4139,-1.4182,-1.3889,-1.3605,-1.342,-1.3104,-1.2783,-1.2421,-1.2234,-1.2004,-1.1746,-1.1592,-1.1355,-1.0969,-1.0685,-1.0319,-0.9786,-0.9433,-0.899,-0.8181,-0.7828,-0.7595,-0.7285,-0.7047,-0.6802,-2.104,-2.0923,-2.0458,-1.9999,-1.9549,-1.9549,-1.946,-1.9311,-1.9269,-1.9278,-1.9303,-1.9244,-1.9184,-1.9141,-1.9124,-1.908,-1.907,-1.9332,-1.9467,-1.9492,-1.9728,-1.9854,-1.9838,-1.9662,-1.9587,-1.9596,-1.9386,-1.9303,-1.9277,-1.9311,-1.9319,-1.9277,-1.8834,-1.8013,-1.6872,-1.674,-1.6744,-1.6905,-1.6965,-1.71,-1.7322,-1.7378,-1.711,-1.6489,-1.5758,-1.5048,-1.4322,-1.3586,-1.2866,-1.2155,-1.1946,-1.0897,-0.8821,-0.9217,0.0,0.0,0.0,0.0,0.0,0.0,0.0,0.0,0.0,-0.8326,-0.8549,0.0,-0.9081,0.0,-0.932,-0.999,-1.0462,-1.0886,0.0,0.0,-1.2324,-1.2703,-1.302,-1.3014,-1.329,-1.3964,-1.4464,-1.491,-1.5364,-1.5948,-1.6192,-1.5934,-1.5837,-1.5678,-1.5425,-1.5182,-1.4886,-1.4536,-1.4233,-1.3941,-1.361,-1.3205,-1.2871,-1.2779,-1.2578,-1.2323,-1.2071,-1.1968,-1.1832,-1.1427,-1.1308,-1.1089,-1.068,-1.0519,-1.0316,-0.9776,-0.8924,-0.8105,-0.777,-0.7535,-0.7382,-2.2329,-2.2318,-2.2306,-2.2117,-2.1756,-2.0903,-2.0454,-2.0371,-2.0323,-2.0298,-2.0258,-2.016,-2.0077,-2.001,-1.9993,-1.995,-1.9907,-2.0295,-2.0465,-2.049,-2.0872,-2.1067,-2.105,-2.0712,-2.056,-2.0491,-2.0187,-2.0001,-1.9958,-1.9958,-1.9924,-1.9898,-1.9864,-1.9351,-1.8392,-1.7895,-1.7483,-1.7133,-1.7232,-1.7321,-1.7386,-1.7457,-1.7359,-1.7034,-1.5988,-1.5255,-1.4893,-1.3868,-1.3084,-1.2648,-1.2313,-1.1704,-1.0758,-1.0466,-1.0145,0.0,0.0,0.0,0.0,0.0,0.0,0.0,0.0,0.0,0.0,0.0,-0.9737,-0.9679,-1.1007,-1.1749,-1.1472,-1.2127,-1.2671,-1.2917,-1.3327,-1.3728,-1.4054,-1.4033,-1.4293,-1.4987,-1.538,-1.5671,-1.5924,-1.6309,-1.6577,-1.6479,-1.6355,-1.615,-1.5792,-1.548,-1.5176,-1.4886,-1.4512,-1.414,-1.3663,-1.3382,-1.3152,-1.305,-1.2818,-1.2627,-1.2471,-1.2377,-1.217,-1.1823,-1.1773,-1.1623,-1.1272,-1.1171,-1.1023,-1.0618,-1.0011,-0.9373,-0.8806,-0.8499,-0.829,-2.3825,-2.3816,-2.3828,-2.3804,-2.3604,-2.1909,-2.1154,-2.1041,-2.1041,-2.0996,-2.0935,-2.0792,-2.072,-2.0623,-2.0582,-2.0508,-2.0484,-2.1147,-2.148,-2.1514,-2.2207,-2.2515,-2.2472,-2.1866,-2.1515,-2.1428,-2.0807,-2.0425,-2.0314,-2.0297,-2.0279,-2.0227,-2.0226,-2.0124,-1.9938,-1.9208,-1.8402,-1.7494,-1.7514,-1.7494,-1.744,-1.7566,-1.7627,-1.7636,-1.6366,-1.5637,-1.5561,-1.4267,-1.3472,-1.3312,-1.2697,-1.2621,-1.3151,-1.1902,-1.1118,0.0,-1.0953,0.0,0.0,0.0,0.0,0.0,0.0,0.0,0.0,-1.0379,-1.0455,-1.1259,-1.3091,-1.3659,-1.2391,-1.3255,-1.3841,-1.3705,-1.4152,-1.4554,-1.484,-1.5125,-1.5493,-1.5831,-1.612,-1.6237,-1.622,-1.6497,-1.6669,-1.6565,-1.6448,-1.6275,-1.5925,-1.562,-1.5306,-1.5147,-1.4702,-1.4233,-1.3852,-1.3668,-1.3525,-1.3271,-1.3094,-1.2929,-1.2886,-1.2686,-1.2475,-1.2234,-1.213,-1.2026,-1.1673,-1.1573,-1.1427,-1.1065,-1.0927,-1.0657,-1.0005,-0.9526,-0.9316,-2.3967,-2.3967,-2.3955,-2.3935,-2.3837,-2.3458,-2.3189,-2.2971,-2.2934,-2.2823,-2.2705,-2.2614,-2.2516,-2.2408,-2.2408,-2.2332,-2.222,-2.2349,-2.2444,-2.2452,-2.2599,-2.2641,-2.2579,-2.2433,-2.2346,-2.2257,-2.212,-2.2042,-2.2042,-2.1988,-2.1934,-2.1942,-2.1887,-2.1501,-2.0866,0.0,0.0,0.0,-1.7875,-1.7581,-1.7549,-1.7618,-1.7687,-1.7679,-1.6919,0.0,-1.5604,-1.4758,-1.4022,-1.343,-1.3244,0.0,0.0,0.0,0.0,0.0,0.0,0.0,0.0,0.0,0.0,0.0,-1.1717,-1.1428,-1.0925,-1.0744,-1.1326,-1.2943,-1.3773,-1.4098,-1.3829,-1.4263,-1.4576,-1.4532,-1.5294,-1.5758,-1.5618,-1.593,-1.6313,-1.6711,-1.6493,-1.6492,-1.6916,-1.6902,-1.6797,-1.6705,-1.6577,-1.6442,-1.6318,-1.5925,-1.557,-1.5159,-1.4697,-1.4373,-1.4233,-1.3894,-1.3615,-1.3515,-1.3314,-1.3089,-1.2968,-1.2881,-1.2735,-1.2485,-1.2421,-1.2328,-1.2026,-1.1972,-1.1877,-1.1469,-1.1377,-1.1175,-1.0514,-1.0106,-0.9844,-2.4096,-2.4105,-2.4056,-2.4025,0.0,-2.3958,-2.3873,-2.3743,-2.3625,-2.353,-2.3392,-2.3313,-2.3208,-2.3103,-2.3095,-2.3036,-2.291,-2.2893,-2.2876,-2.2833,-2.2868,-2.2799,-2.2738,-2.2729,-2.2694,-2.2667,-2.2614,-2.2587,-2.2533,-2.2487,-2.246,-2.2468,-2.2405,-2.2199,-2.179,-2.1425,-2.0424,-1.8784,-1.8405,-1.8051,-1.7675,-1.7718,-1.7749,-1.7732,-1.7067,0.0,0.0,0.0,0.0,0.0,0.0,0.0,0.0,0.0,0.0,-1.2547,-1.2303,-1.2127,-1.2112,-1.2438,-1.279,-1.3167,-1.3507,-1.3353,-1.2503,-1.2057,-1.248,-1.4012,-1.4892,-1.5197,-1.4762,-1.5465,-1.5911,-1.5748,-1.6362,-1.6866,-1.6979,-1.698,-1.7167,-1.7504,-1.7335,-1.7183,-1.7427,-1.7205,-1.7038,-1.696,-1.6748,-1.6571,-1.6442,-1.6094,-1.5614,-1.5198,-1.4926,-1.4656,-1.4419,-1.4233,-1.3899,-1.3805,-1.3568,-1.3377,-1.3248,-1.3147,-1.2958,-1.2774,-1.2671,-1.2627,-1.2377,-1.2283,-1.2234,-1.1977,-1.1823,-1.1673,-1.1276,-1.0816,-1.0411,-2.421,-2.421,-2.4181,-2.4133,-2.4124,-2.4084,-2.4056,-2.4036,-2.3873,0.0,0.0,-2.3576,-2.3485,-2.3369,-2.336,-2.328,-2.3168,-2.316,-2.3119,-2.3061,-2.3061,-2.3003,-2.297,-2.2936,-2.2876,-2.2842,-2.2756,-2.2712,-2.2659,-2.2587,-2.2533,-2.2533,-2.2506,-2.2523,-2.2463,-2.1883,-2.0824,-1.931,-1.9054,-1.8589,-1.7952,-1.7848,-1.7789,-1.7789,-1.7211,-1.6843,-1.6699,-1.5556,-1.4861,-1.4717,-1.4142,-1.3829,-1.382,-1.3837,-1.3803,-1.375,-1.3725,-1.37,-1.3639,-1.4192,-1.4517,-1.4509,-1.5186,-1.5184,-1.4279,-1.3645,-1.3751,-1.4846,-1.6152,-1.6603,-1.5743,-1.6704,-1.7272,-1.6977,-1.7411,-1.7843,-1.8141,-1.7998,-1.7986,-1.826,-1.8061,-1.7882,-1.7713,-1.7461,-1.7247,-1.7157,-1.696,-1.6712,-1.6472,-1.6094,-1.5659,-1.534,-1.5165,-1.4966,-1.4645,-1.4466,-1.4337,-1.4104,-1.3863,-1.371,-1.3568,-1.3415,-1.3228,-1.3012,-1.2968,-1.2866,-1.2671,-1.2573,-1.2529,-1.2372,-1.2269,-1.2121,-1.1972,-1.1523,-1.112,-2.4294,-2.4284,-2.4284,-2.4284,-2.4275,-2.4257,-2.4229,-2.4154,-2.3967,-2.3885,-2.3855,-2.3786,-2.3709,-2.3634,-2.3576,-2.3526,-2.3439,-2.3374,-2.3369,-2.3336,-2.3298,-2.3208,-2.3177,-2.3111,-2.3036,-2.2961,-2.2885,-2.2868,-2.2859,-2.279,-2.2738,-2.265,-2.2623,-2.2569,-2.2506,-2.2412,-2.1925,-2.1029,-1.9675,-1.8937,-1.8818,-1.8138,-1.7789,-1.7803,-1.7701,-1.7376,-1.6812,-1.6574,-1.622,-1.5656,-1.5519,-1.5468,-1.546,-1.5425,-1.546,-1.5432,-1.5386,-1.5369,-1.5333,-1.5395,-1.5379,-1.5373,-1.5959,-1.5969,-1.5122,-1.4878,-1.5079,-1.5813,-1.7351,-1.8124,-1.7491,-1.7846,-1.8084,-1.7975,-1.8288,-1.8483,-1.8379,-1.8585,-1.8698,-1.8489,-1.8268,-1.8083,-1.7916,-1.7726,-1.7502,-1.7282,-1.7164,-1.6989,-1.6565,-1.6094,-1.5792,-1.5665,-1.5441,-1.5204,-1.5017,-1.4789,-1.4605,-1.4384,-1.4233,-1.3988,-1.3716,-1.3605,-1.3467,-1.3223,-1.3185,-1.3089,-1.2958,-1.2871,-1.2779,-1.2671,-1.2529,-1.2431,-1.2278,-1.2121,-1.1923,-2.4428,-2.4401,-2.4374,-2.4348,-2.4358,-2.4321,-2.4294,-2.4238,-2.4172,-2.4057,-2.4005,-2.3953,-2.3882,-2.381,-2.3759,-2.3734,-2.3656,-2.3634,-2.3576,-2.3517,-2.3476,-2.3424,-2.3369,-2.3289,-2.3232,-2.3208,-2.3119,-2.3061,-2.3045,-2.2961,-2.2885,-2.2868,-2.279,-2.2729,-2.272,-2.2712,-2.2548,-2.2194,-2.0959,-1.9894,-1.9069,-1.8697,-1.8317,-1.7934,-1.7909,-1.7786,-1.7467,-1.707,-1.6715,-1.6419,-1.6,-1.5803,-1.5803,-1.5803,-1.5803,-1.5786,-1.5497,-1.5452,-1.5731,-1.6056,-1.6394,-1.6673,-1.6961,-1.6956,-1.6497,-1.6427,-1.6608,-1.7116,-1.8274,-1.8802,-1.8421,-1.8808,-1.903,-1.8841,-1.917,-1.9331,-1.9121,-1.9134,-1.9123,-1.8851,-1.8644,-1.8457,-1.8228,-1.8076,-1.7875,-1.7625,-1.7371,-1.7115,-1.6827,-1.6479,-1.6194,-1.5969,-1.5742,-1.5519,-1.534,-1.5114,-1.4875,-1.4686,-1.4507,-1.4326,-1.4093,-1.3988,-1.38,-1.3557,-1.3462,-1.3372,-1.3228,-1.3137,-1.3045,-1.2997,-1.2861,-1.2764,-1.2666,-1.2569,-1.2328,-2.4538,-2.4521,-2.4469,-2.4453,-2.4429,-2.4384,-2.4375,-2.4366,-2.4348,-2.4284,-2.4191,-2.4104,-2.4007,-2.3976,-2.3976,-2.3924,-2.3859,-2.3819,-2.3765,-2.3678,-2.3656,-2.3611,-2.3576,-2.3499,-2.3444,-2.3439,-2.3313,-2.3256,-2.3241,-2.3135,-2.3086,-2.3036,-2.2995,-2.2944,-2.2936,-2.2936,-2.2927,-2.2875,-2.2134,-2.1086,-1.9741,-1.9512,-1.9044,-1.8343,-1.8283,-1.8215,-1.8048,-1.7487,-1.719,-1.7185,-1.6669,-1.636,-1.6351,-1.6368,-1.636,-1.6306,-1.5961,-1.588,-1.628,-1.6768,-1.7237,-1.7712,-1.7943,-1.7983,-1.7825,-1.7605,-1.7691,-1.8194,-1.9134,-1.962,-1.9372,-1.9733,-1.9988,-1.9762,-1.9965,-2.0012,-1.9818,-1.9617,-1.9413,-1.9213,-1.9033,-1.8836,-1.8613,-1.8432,-1.8221,-1.7902,-1.7577,-1.7253,-1.7093,-1.6931,-1.6663,-1.6306,-1.6044,-1.5869,-1.5647,-1.5424,-1.5238,-1.5091,-1.4886,-1.4662,-1.4471,-1.4373,-1.4176,-1.3941,-1.38,-1.371,-1.3557,-1.3415,-1.3367,-1.3324,-1.318,-1.3094,-1.3002,-1.291,-1.2666,-2.4669,-2.4589,-2.4655,-2.4589,-2.4638,-2.4629,-2.4648,-2.4612,-2.4513,-2.4478,-2.449,-2.4275,-2.4172,-2.417,-2.4122,-2.4054,-2.3976,-2.3926,-2.3885,-2.3864,-2.3804,-2.378,-2.3765,-2.3709,-2.3634,-2.3585,-2.3517,-2.3439,-2.3383,-2.336,-2.3289,-2.3193,-2.3111,-2.3086,-2.3095,-2.3086,-2.3061,-2.2995,-2.2891,-2.2397,-2.1474,-2.0694,-1.9908,-1.9113,-1.9078,-1.8809,-1.8267,-1.812,-1.8104,-1.8165,-1.8078,-1.8035,-1.8035,-1.8044,-1.8052,-1.8026,-1.7921,-1.7898,-1.7783,-1.7808,-1.7807,-1.7943,-1.867,-1.8971,-1.8673,-1.7993,-1.7757,-1.8589,-2.0225,-2.0877,-2.0337,-2.0644,-2.0831,-2.0613,-2.0516,-2.0357,-2.0108,-1.9975,-1.9777,-1.9413,-1.9376,-1.9228,-1.8867,-1.8714,-1.8521,-1.8075,-1.7821,-1.759,-1.7419,-1.726,-1.7128,-1.6863,-1.6607,-1.6262,-1.5994,-1.583,-1.5653,-1.5463,-1.5238,-1.4971,-1.4794,-1.4662,-1.4471,-1.4269,-1.4176,-1.4087,-1.3957,-1.3815,-1.3758,-1.3705,-1.3515,-1.3324,-1.3218,-1.3175,-1.2982,-2.622,-2.6185,-2.6185,-2.6179,-2.6181,-2.6155,-2.6139,-2.6101,-2.559,-2.5368,-2.5241,-2.4746,-2.4438,-2.4312,-2.4256,-2.4181,-2.4134,-2.4105,-2.4075,-2.4025,-2.3987,-2.3965,-2.3924,-2.3852,-2.381,-2.3768,-2.3709,-2.3665,-2.362,-2.3553,-2.3462,-2.3383,-2.3369,-2.3321,-2.328,-2.3265,-2.3241,-2.3201,-2.3168,-2.3001,-2.2593,-2.171,-2.0841,-2.0073,-1.9629,-1.9256,-1.8948,-1.8527,-1.8307,-1.8348,-1.8348,-1.8368,-1.8417,-1.8417,-1.8397,-1.8357,-1.8287,-1.8218,-1.8138,-1.8108,-1.8237,-1.8589,-1.8928,-1.9222,-1.9553,-1.921,-1.9244,-1.9959,-2.1036,-2.1524,-2.1114,-2.1163,-2.1151,-2.1038,-2.0852,-2.0646,-2.0384,-2.0323,-2.0158,-1.982,-1.9748,-1.9603,-1.9206,-1.8943,-1.8714,-1.839,-1.8135,-1.7949,-1.7774,-1.7618,-1.7461,-1.7317,-1.706,-1.6729,-1.6386,-1.6144,-1.6013,-1.5824,-1.5603,-1.539,-1.5244,-1.5074,-1.4932,-1.4686,-1.4547,-1.4466,-1.4384,-1.4244,-1.414,-1.4041,-1.391,-1.3721,-1.3568,-1.3563,-1.342,-2.7355,-2.7355,-2.7349,-2.7349,-2.7346,-2.7295,-2.7276,-2.7229,-2.6638,-2.623,-2.5906,-2.532,-2.4846,-2.4526,-2.4402,-2.4321,-2.4257,-2.4248,-2.421,-2.4143,-2.4152,-2.4105,-2.4047,-2.4018,-2.3978,-2.3946,-2.3912,-2.3859,-2.3838,-2.3712,-2.3634,-2.3589,-2.3567,-2.3553,-2.3517,-2.3499,-2.3462,-2.3401,-2.3401,-2.3369,-2.3257,-2.2647,-2.1879,-2.1062,-2.0494,-2.011,-1.9865,-1.9125,-1.8734,-1.8781,-1.8579,-1.8476,-1.8524,-1.8515,-1.8505,-1.8445,-1.8397,-1.8307,-1.8256,-1.8465,-1.8775,-1.9136,-1.9568,-2.0083,-2.0374,-2.0526,-2.0818,-2.125,-2.1707,-2.1865,-2.1664,-2.1534,-2.1402,-2.1262,-2.1119,-2.0917,-2.0695,-2.062,-2.046,-2.02,-2.0088,-1.997,-1.9596,-1.9213,-1.8936,-1.8769,-1.8521,-1.83,-1.8161,-1.7975,-1.7801,-1.77,-1.7488,-1.715,-1.6735,-1.6504,-1.6324,-1.6188,-1.6019,-1.5792,-1.5691,-1.5564,-1.539,-1.5102,-1.4966,-1.4834,-1.4748,-1.461,-1.4466,-1.4326,-1.4239,-1.4109,-1.4004,-1.3952,-1.3905,-2.7495,-2.7532,-2.7507,-2.7574,-2.7532,-2.7564,-2.7536,-2.764,-2.742,-2.6932,-2.6331,-2.5991,-2.5496,-2.4817,-2.4615,-2.4462,-2.4403,-2.4403,-2.4348,-2.4294,-2.4294,-2.4238,-2.4192,-2.4192,-2.4153,-2.4113,-2.4094,-2.4025,-2.3915,-2.3825,-2.3795,-2.3774,-2.3777,-2.3783,-2.3761,-2.37,-2.3634,-2.3576,-2.3594,-2.3553,-2.3508,-2.3431,-2.2922,-2.2134,-2.1956,-2.1533,-2.0867,-2.0132,-1.9746,-1.9728,-1.9064,-1.8638,-1.862,-1.8603,-1.8601,-1.8579,-1.8548,-1.85,-1.8522,-1.9169,-1.9566,-1.9633,-2.1056,-2.2031,-2.1344,-2.1696,-2.1995,-2.213,-2.2166,-2.2123,-2.1857,-2.1759,-2.1639,-2.1464,-2.1332,-2.1206,-2.1095,-2.0893,-2.0736,-2.0535,-2.0407,-2.0243,-2.0005,-1.964,-1.9354,-1.9184,-1.8921,-1.8738,-1.8584,-1.8372,-1.8189,-1.8109,-1.7868,-1.7508,-1.708,-1.6846,-1.6718,-1.6583,-1.6405,-1.6188,-1.6094,-1.5963,-1.5736,-1.5558,-1.5507,-1.5373,-1.5153,-1.4971,-1.4834,-1.4697,-1.4616,-1.4482,-1.4419,-1.4378,-1.4326,-2.9232,-2.9227,-2.9179,-2.9164,-2.9164,-2.9169,-2.9163,-2.9116,-2.854,-2.8145,-2.7694,-2.6711,-2.5986,-2.5587,-2.5015,-2.4701,-2.461,-2.4558,-2.4479,-2.4426,-2.4436,-2.4392,-2.4329,-2.4329,-2.4321,-2.4284,-2.4256,-2.419,-2.4094,-2.4056,-2.4025,-2.3996,-2.3976,-2.3944,-2.3882,-2.3831,-2.381,-2.3728,-2.3728,-2.3716,-2.3694,-2.37,-2.3521,-2.3177,-2.2558,-2.21,-2.182,-2.1084,-2.0706,-2.0689,-1.9975,-1.9566,-1.9504,-1.9065,-1.8761,-1.8795,-1.9137,-1.9323,-1.9289,-1.9939,-2.0549,-2.0869,-2.1469,-2.2117,-2.2106,-2.2243,-2.231,-2.2358,-2.2338,-2.2209,-2.2106,-2.1966,-2.1811,-2.17,-2.1587,-2.1464,-2.1301,-2.1175,-2.1055,-2.0893,-2.0662,-2.0433,-2.0304,-1.999,-1.9726,-1.958,-1.9332,-1.9161,-1.9004,-1.8784,-1.8567,-1.8528,-1.8293,-1.8009,-1.7828,-1.7391,-1.7148,-1.7015,-1.684,-1.6705,-1.6577,-1.6392,-1.6213,-1.6007,-1.5957,-1.5824,-1.5603,-1.5379,-1.5244,-1.5114,-1.4989,-1.4937,-1.4834,-1.4834,-1.4834,-3.023,-3.0221,-3.018,-3.0161,-3.0156,-3.0176,-3.0176,-3.0085,-2.9522,-2.9103,-2.8636,-2.7623,-2.6788,-2.6152,-2.5603,-2.5116,-2.4815,-2.4686,-2.4613,-2.4571,-2.4561,-2.4526,-2.4493,-2.4502,-2.447,-2.4446,-2.4366,-2.4303,-2.4284,-2.4266,-2.4247,-2.42,-2.4143,-2.4086,-2.3998,-2.3998,-2.3976,-2.3937,-2.3917,-2.3905,-2.3896,-2.3882,-2.388,-2.3777,-2.3184,-2.2821,-2.2747,-2.2031,-2.1621,-2.1525,-2.0888,-2.0486,-2.0424,-1.9983,-1.9658,-1.9665,-2.0053,-2.0258,-2.0227,-2.0806,-2.1385,-2.1744,-2.1966,-2.2263,-2.2607,-2.2515,-2.2487,-2.2487,-2.2487,-2.2405,-2.2358,-2.2212,-2.2044,-2.1907,-2.1789,-2.1708,-2.154,-2.1433,-2.1317,-2.1127,-2.0901,-2.0703,-2.062,-2.0357,-2.0143,-2.005,-1.979,-1.9545,-1.9464,-1.9191,-1.8974,-1.8974,-1.8707,-1.8475,-1.8326,-1.8049,-1.7672,-1.7502,-1.7247,-1.717,-1.7044,-1.6863,-1.6693,-1.6491,-1.6362,-1.6231,-1.605,-1.583,-1.5653,-1.5525,-1.5435,-1.5345,-1.534,-1.5334,-1.5328,-3.0304,-3.0304,-3.0305,-3.0283,-3.0283,-3.0292,-3.0312,-3.027,-3.0173,-2.9668,-2.9077,-2.8811,-2.7836,-2.6662,-2.6293,-2.5791,-2.5181,-2.4917,-2.4763,-2.4707,-2.4698,-2.4698,-2.4682,-2.4679,-2.4666,-2.4589,-2.4478,-2.4407,-2.4416,-2.4419,-2.4403,-2.4367,-2.4284,-2.4201,-2.4201,-2.4191,-2.419,-2.4181,-2.4142,-2.4094,-2.4103,-2.4045,-2.3996,-2.3996,-2.3912,-2.3803,-2.3631,-2.2929,-2.2524,-2.2434,-2.1767,-2.1324,-2.1182,-2.111,-2.1225,-2.1161,-2.1225,-2.12,-2.1239,-2.1768,-2.2097,-2.2189,-2.2599,-2.2849,-2.2782,-2.2738,-2.2659,-2.2632,-2.2659,-2.2624,-2.2533,-2.247,-2.2343,-2.2056,-2.1957,-2.1878,-2.1797,-2.1694,-2.1497,-2.127,-2.1135,-2.1055,-2.0909,-2.0687,-2.052,-2.0452,-2.022,-1.999,-1.9955,-1.9654,-1.9442,-1.9332,-1.9161,-1.8959,-1.8808,-1.8662,-1.8326,-1.8029,-1.7733,-1.7523,-1.7482,-1.7352,-1.7144,-1.6983,-1.6863,-1.6686,-1.6411,-1.6231,-1.6088,-1.5963,-1.5875,-1.5792,-1.583,-1.5824,-1.5818,-3.0437,-3.0426,-3.0383,-3.0381,-3.0381,-3.0376,-3.0343,-3.0311,-3.0279,-3.0101,-2.9787,-2.9229,-2.8629,-2.7975,-2.7004,-2.6263,-2.5917,-2.5342,-2.4953,-2.4856,-2.4832,-2.4851,-2.4827,-2.4793,-2.4747,-2.4736,-2.4651,-2.4601,-2.461,-2.4608,-2.4584,-2.4523,-2.4453,-2.4373,-2.4337,-2.4347,-2.4348,-2.434,-2.4303,-2.4294,-2.4238,-2.4172,-2.4125,-2.4125,-2.4113,-2.4034,-2.3955,-2.3669,-2.3551,-2.3515,-2.277,-2.1924,-2.1234,-2.1316,-2.166,-2.1954,-2.2114,-2.2114,-2.2129,-2.2638,-2.2978,-2.2938,-2.3069,-2.3068,-2.297,-2.291,-2.2893,-2.2799,-2.279,-2.2738,-2.2659,-2.2587,-2.247,-2.2212,-2.2209,-2.2089,-2.1986,-2.1878,-2.17,-2.1526,-2.145,-2.1419,-2.1309,-2.1079,-2.0933,-2.0901,-2.0662,-2.0441,-2.0331,-2.0108,-1.9925,-1.9797,-1.9588,-1.9406,-1.9266,-1.9154,-1.8974,-1.8599,-1.8273,-1.8002,-1.7922,-1.7834,-1.7632,-1.7475,-1.7317,-1.7115,-1.6833,-1.6626,-1.6522,-1.6392,-1.6306,-1.6312,-1.6312,-1.6269,-1.6256,-3.053,-3.052,-3.0461,-3.045,-3.0449,-3.0447,-3.0425,-3.0383,-3.0383,-3.035,-3.0211,-2.9769,-2.9332,-2.8809,-2.7579,-2.6799,-2.6379,-2.5533,-2.5089,-2.5016,-2.4989,-2.4982,-2.4959,-2.4912,-2.4861,-2.4842,-2.4803,-2.4764,-2.4774,-2.4747,-2.4711,-2.4679,-2.4613,-2.4552,-2.45,-2.4521,-2.4523,-2.4507,-2.4473,-2.441,-2.4375,-2.4303,-2.4266,-2.4275,-2.4209,-2.4171,-2.4162,-2.4143,-2.4066,-2.3934,-2.3476,-2.2829,-2.2081,-2.2354,-2.2637,-2.2907,-2.303,-2.303,-2.301,-2.3311,-2.3562,-2.3448,-2.3345,-2.3265,-2.3168,-2.3135,-2.3044,-2.3003,-2.2952,-2.2867,-2.2799,-2.2764,-2.2632,-2.2497,-2.2405,-2.2313,-2.2166,-2.2044,-2.1928,-2.1759,-2.17,-2.167,-2.1579,-2.1433,-2.1302,-2.1262,-2.1046,-2.0851,-2.0695,-2.0512,-2.0342,-2.0212,-2.0058,-1.9889,-1.9726,-1.9617,-1.9537,-1.9236,-1.8846,-1.8584,-1.8397,-1.8273,-1.8101,-1.7882,-1.7727,-1.755,-1.7269,-1.715,-1.7018,-1.6899,-1.6814,-1.6778,-1.6784,-1.6784,-1.6772,-3.0614,-3.0586,-3.0539,-3.0511,-3.0501,-3.0501,-3.051,-3.0499,-3.0499,-3.0469,-3.0389,-3.0311,-2.9942,-2.9137,-2.8166,-2.7308,-2.6538,-2.5615,-2.5212,-2.5179,-2.5149,-2.5107,-2.5073,-2.5019,-2.4974,-2.4929,-2.4906,-2.4907,-2.4908,-2.4856,-2.4822,-2.4811,-2.4729,-2.4707,-2.4707,-2.4704,-2.4689,-2.4657,-2.458,-2.4528,-2.4504,-2.4454,-2.442,-2.4412,-2.4348,-2.4303,-2.4303,-2.4294,-2.421,-2.4047,-2.3963,-2.3861,-2.393,-2.4014,-2.3909,-2.3935,-2.3948,-2.3824,-2.3798,-2.3735,-2.3752,-2.3629,-2.3553,-2.3494,-2.3407,-2.3286,-2.3238,-2.3217,-2.316,-2.3077,-2.3011,-2.2961,-2.2876,-2.279,-2.2623,-2.2451,-2.2405,-2.2285,-2.2118,-2.1986,-2.192,-2.1899,-2.1857,-2.1708,-2.1625,-2.1542,-2.1356,-2.1199,-2.1103,-2.0925,-2.0695,-2.0618,-2.0571,-2.0628,-2.0553,-2.0775,-2.071,-2.0557,-2.0042,-1.9572,-1.8991,-1.8738,-1.8577,-1.8358,-1.8168,-1.7955,-1.7787,-1.7673,-1.755,-1.7386,-1.731,-1.7282,-1.7247,-1.7247,-1.7247,-3.0671,-3.0674,-3.0647,-3.0611,-3.0576,-3.0557,-3.0586,-3.0578,-3.0568,-3.053,-3.0491,-3.0471,-3.0315,-2.9965,-2.852,-2.772,-2.7141,-2.5977,-2.5313,-2.5264,-2.5253,-2.5177,-2.5111,-2.5089,-2.5077,-2.5056,-2.5031,-2.5054,-2.5051,-2.4989,-2.4953,-2.4935,-2.4889,-2.4861,-2.4847,-2.4861,-2.4817,-2.4766,-2.476,-2.4679,-2.4657,-2.4634,-2.4601,-2.4558,-2.447,-2.4444,-2.4436,-2.4402,-2.4321,-2.4229,-2.421,-2.4219,-2.416,-2.419,-2.4209,-2.419,-2.4142,-2.4074,-2.3976,-2.3905,-2.3843,-2.3841,-2.3756,-2.3678,-2.3643,-2.3477,-2.344,-2.343,-2.336,-2.3289,-2.3241,-2.316,-2.307,-2.2936,-2.2764,-2.2579,-2.2525,-2.2487,-2.2377,-2.2237,-2.2257,-2.222,-2.2155,-2.2003,-2.1869,-2.1811,-2.167,-2.1495,-2.1442,-2.1325,-2.1119,-2.1206,-2.125,-2.1384,-2.1529,-2.1786,-2.191,-2.1937,-2.1483,-2.082,-1.999,-1.9176,-1.8974,-1.8784,-1.8662,-1.8493,-1.8344,-1.8194,-1.8035,-1.7908,-1.7834,-1.7801,-1.7747,-1.7713,-1.7754,-3.0737,-3.073,-3.0707,-3.0673,-3.0639,-3.0649,-3.0634,-3.0655,-3.0639,-3.0622,-3.0577,-3.0549,-3.0337,-2.9873,-2.855,-2.7719,-2.7229,-2.6014,-2.5416,-2.536,-2.5341,-2.5293,-2.521,-2.5189,-2.5169,-2.5149,-2.5136,-2.5141,-2.5149,-2.5103,-2.5069,-2.5038,-2.5009,-2.4974,-2.498,-2.4972,-2.4931,-2.4889,-2.487,-2.4826,-2.4781,-2.476,-2.4739,-2.4689,-2.4629,-2.4578,-2.4573,-2.4515,-2.4446,-2.4358,-2.4312,-2.4275,-2.4256,-2.4275,-2.4303,-2.4331,-2.4275,-2.4181,-2.4114,-2.4048,-2.4008,-2.3996,-2.3944,-2.3861,-2.381,-2.368,-2.3584,-2.3603,-2.3558,-2.3499,-2.3448,-2.336,-2.328,-2.3184,-2.3011,-2.285,-2.2738,-2.265,-2.2587,-2.2515,-2.2496,-2.2496,-2.246,-2.2296,-2.2175,-2.2081,-2.1928,-2.1811,-2.1759,-2.1648,-2.1673,-2.1802,-2.2021,-2.2187,-2.2479,-2.2789,-2.2869,-2.293,-2.2613,-2.1995,-2.1118,-2.0063,-1.9553,-1.9398,-1.9228,-1.9042,-1.8884,-1.8731,-1.8584,-1.8461,-1.839,-1.8319,-1.83,-1.8235,-1.8235,-3.0789,-3.0789,-3.0724,-3.0707,-3.0714,-3.0704,-3.0701,-3.0707,-3.0712,-3.0715,-3.0651,-3.0539,-3.002,-2.924,-2.8241,-2.7431,-2.672,-2.5861,-2.5514,-2.541,-2.5403,-2.5387,-2.5332,-2.5302,-2.5263,-2.5243,-2.5233,-2.5221,-2.523,-2.5209,-2.5177,-2.5155,-2.513,-2.5106,-2.5082,-2.5054,-2.5028,-2.5002,-2.4963,-2.4935,-2.4908,-2.4851,-2.4826,-2.4802,-2.4763,-2.4723,-2.4686,-2.4647,-2.4566,-2.4456,-2.4375,-2.4348,-2.433,-2.433,-2.4393,-2.4456,-2.4384,-2.4303,-2.4229,-2.4211,-2.421,-2.42,-2.4086,-2.4036,-2.3998,-2.389,-2.3789,-2.3819,-2.3774,-2.3691,-2.3611,-2.3576,-2.3508,-2.343,-2.336,-2.3217,-2.302,-2.2893,-2.2808,-2.2721,-2.265,-2.2685,-2.2659,-2.2587,-2.2441,-2.2371,-2.2223,-2.211,-2.2052,-2.1974,-2.2175,-2.2541,-2.2775,-2.3063,-2.3413,-2.374,-2.3781,-2.3787,-2.3507,-2.2964,-2.2293,-2.1345,-2.0504,-2.0082,-2.0078,-1.9797,-1.9361,-1.9221,-1.9176,-1.9042,-1.8966,-1.8898,-1.8874,-1.8805,-1.8767,-3.0792,-3.0793,-3.0793,-3.0784,-3.0789,-3.0789,-3.0764,-3.0773,-3.0767,-3.0671,-3.0549,-2.9978,-2.9537,-2.9232,-2.7799,-2.6938,-2.6643,-2.588,-2.5473,-2.5469,-2.5469,-2.5485,-2.5448,-2.5405,-2.5388,-2.536,-2.5351,-2.5351,-2.5341,-2.5302,-2.5273,-2.5262,-2.524,-2.5219,-2.5176,-2.5164,-2.5141,-2.5099,-2.5069,-2.5032,-2.4996,-2.4957,-2.4916,-2.4893,-2.4851,-2.4856,-2.4837,-2.4796,-2.4736,-2.4686,-2.4596,-2.4523,-2.449,-2.4498,-2.4549,-2.4566,-2.4504,-2.4444,-2.4391,-2.4364,-2.4373,-2.4365,-2.4247,-2.4183,-2.4229,-2.4153,-2.4066,-2.4034,-2.3974,-2.3894,-2.378,-2.3756,-2.37,-2.3625,-2.3567,-2.3494,-2.3378,-2.3168,-2.3011,-2.2902,-2.2885,-2.2919,-2.2859,-2.2782,-2.2685,-2.2624,-2.2516,-2.2398,-2.2315,-2.2268,-2.2693,-2.3145,-2.3487,-2.384,-2.4564,-2.4858,-2.4878,-2.4832,-2.4512,-2.4283,-2.3582,-2.2949,-2.2192,-2.1571,-2.1042,-2.0668,-2.0271,-1.9967,-1.9912,-1.9721,-1.953,-1.9457,-1.9384,-1.9362,-1.9362,-3.0794,-3.0788,-3.0794,-3.0788,-3.0794,-3.079,-3.0796,-3.0695,-3.0341,-3.0171,-2.9951,-2.922,-2.8625,-2.8186,-2.7276,-2.6677,-2.6219,-2.5815,-2.555,-2.5548,-2.5548,-2.5551,-2.5547,-2.551,-2.548,-2.5439,-2.5441,-2.5443,-2.5434,-2.5397,-2.535,-2.5341,-2.5332,-2.5332,-2.5282,-2.5262,-2.5231,-2.5209,-2.5166,-2.5132,-2.5108,-2.5063,-2.5041,-2.5006,-2.4987,-2.4989,-2.4934,-2.4922,-2.488,-2.4842,-2.4764,-2.4682,-2.4582,-2.4606,-2.4654,-2.4676,-2.4645,-2.4594,-2.4543,-2.4543,-2.4552,-2.4545,-2.4433,-2.4417,-2.441,-2.4375,-2.4275,-2.4191,-2.4144,-2.4105,-2.3996,-2.3965,-2.3912,-2.3841,-2.3777,-2.3703,-2.3607,-2.3435,-2.3265,-2.3184,-2.3177,-2.3168,-2.3111,-2.3036,-2.2961,-2.2885,-2.279,-2.2677,-2.2642,-2.2673,-2.3247,-2.3701,-2.4142,-2.4709,-2.5605,-2.5991,-2.6022,-2.5911,-2.5648,-2.5512,-2.5201,-2.462,-2.4042,-2.3179,-2.2252,-2.1749,-2.1354,-2.1023,-2.0647,-2.0277,-2.0088,-2.0003,-1.996,-1.9987,-1.9987,-3.0793,-3.0821,-3.0806,-3.0823,-3.0794,-3.0672,-3.0562,-3.0462,-2.9689,-2.9328,-2.9158,-2.8406,-2.7686,-2.7045,-2.6777,-2.6257,-2.5819,-2.5639,-2.559,-2.5594,-2.5589,-2.5589,-2.5593,-2.5578,-2.555,-2.5519,-2.5515,-2.5524,-2.548,-2.5453,-2.5418,-2.5411,-2.5405,-2.5407,-2.5398,-2.536,-2.5322,-2.5312,-2.5263,-2.5242,-2.522,-2.5179,-2.5138,-2.5126,-2.5132,-2.5106,-2.5063,-2.5047,-2.5,-2.4945,-2.4945,-2.4856,-2.4729,-2.4698,-2.4774,-2.4832,-2.4774,-2.4734,-2.4725,-2.471,-2.4719,-2.4738,-2.4689,-2.4647,-2.4622,-2.4575,-2.4481,-2.4356,-2.4293,-2.4284,-2.4247,-2.4161,-2.4113,-2.4045,-2.3987,-2.3926,-2.3864,-2.3703,-2.3634,-2.3513,-2.3444,-2.3398,-2.3351,-2.3304,-2.3217,-2.3144,-2.3045,-2.297,-2.2927,-2.3059,-2.3604,-2.4238,-2.468,-2.5403,-2.6326,-2.6636,-2.6741,-2.6632,-2.6505,-2.6463,-2.6412,-2.5974,-2.5209,-2.4229,-2.3409,-2.2959,-2.2559,-2.2274,-2.179,-2.1082,-2.0819,-2.0921,-2.0834,-2.0636,-2.0605,-3.082,-3.0886,-3.0886,-3.0885,-3.0756,-3.0121,-2.9786,-2.9654,-2.8861,-2.8506,-2.8374,-2.7591,-2.712,-2.6802,-2.6149,-2.5798,-2.5677,-2.5636,-2.5603,-2.5609,-2.5609,-2.5609,-2.5618,-2.5614,-2.5586,-2.5591,-2.5587,-2.5554,-2.5512,-2.5476,-2.5485,-2.5485,-2.548,-2.5482,-2.5484,-2.5468,-2.5403,-2.5395,-2.5359,-2.536,-2.5351,-2.5312,-2.5254,-2.5254,-2.5262,-2.5251,-2.524,-2.5209,-2.5168,-2.5158,-2.5149,-2.5077,-2.4996,-2.493,-2.4944,-2.4989,-2.4921,-2.487,-2.4851,-2.4865,-2.4851,-2.4865,-2.4846,-2.4811,-2.4787,-2.4754,-2.4657,-2.4556,-2.4442,-2.4391,-2.4382,-2.433,-2.4275,-2.4238,-2.419,-2.4142,-2.4113,-2.4065,-2.3955,-2.3825,-2.3707,-2.3616,-2.3594,-2.3549,-2.3458,-2.3412,-2.3333,-2.3262,-2.3197,-2.3413,-2.377,-2.4489,-2.5204,-2.6075,-2.7004,-2.7137,-2.7221,-2.7132,-2.7034,-2.6978,-2.6946,-2.6906,-2.6301,-2.5389,-2.4771,-2.4354,-2.3974,-2.3579,-2.3005,-2.237,-2.2135,-2.1948,-2.1633,-2.1367,-2.1142,-3.0868,-3.0859,-3.0439,-3.0224,-3.0068,-2.9307,-2.8935,-2.8797,-2.8025,-2.7632,-2.7386,-2.676,-2.6337,-2.6226,-2.5951,-2.5693,-2.5683,-2.568,-2.5648,-2.5648,-2.5655,-2.5642,-2.5652,-2.5649,-2.5655,-2.5658,-2.5652,-2.561,-2.554,-2.5549,-2.5531,-2.5548,-2.5561,-2.5547,-2.5541,-2.5505,-2.5481,-2.5449,-2.5453,-2.5448,-2.5441,-2.5424,-2.5406,-2.5397,-2.5397,-2.5388,-2.536,-2.5322,-2.5313,-2.5313,-2.5293,-2.5253,-2.5201,-2.5179,-2.5157,-2.5153,-2.5065,-2.5,-2.5,-2.5,-2.4997,-2.5006,-2.497,-2.494,-2.4893,-2.4861,-2.4807,-2.4723,-2.4673,-2.4596,-2.4552,-2.4486,-2.4461,-2.4454,-2.4411,-2.4348,-2.4321,-2.4312,-2.4211,-2.4098,-2.4008,-2.3917,-2.3822,-2.378,-2.3685,-2.3642,-2.3598,-2.3544,-2.3499,-2.3654,-2.3931,-2.5134,-2.5968,-2.6804,-2.7508,-2.7566,-2.7642,-2.7565,-2.7496,-2.7474,-2.7452,-2.7391,-2.7189,-2.6656,-2.6136,-2.567,-2.5204,-2.472,-2.4179,-2.3649,-2.3243,-2.2816,-2.2396,-2.2076,-2.1878,-3.051,-3.0305,-2.9641,-2.9339,-2.9194,-2.8405,-2.8035,-2.786,-2.7108,-2.6738,-2.665,-2.6064,-2.5741,-2.5709,-2.5726,-2.5696,-2.5701,-2.5701,-2.5701,-2.5699,-2.5697,-2.5695,-2.5693,-2.5701,-2.5688,-2.5686,-2.5693,-2.5668,-2.5624,-2.561,-2.561,-2.56,-2.5604,-2.5603,-2.5583,-2.5543,-2.5531,-2.5531,-2.5521,-2.5519,-2.5532,-2.5524,-2.5524,-2.5524,-2.5524,-2.5488,-2.5453,-2.5434,-2.5435,-2.5437,-2.5429,-2.5412,-2.5378,-2.5395,-2.5367,-2.5284,-2.5203,-2.515,-2.5139,-2.5138,-2.5138,-2.5128,-2.5089,-2.5056,-2.5019,-2.4968,-2.4898,-2.4861,-2.4807,-2.4781,-2.4725,-2.4685,-2.4664,-2.4642,-2.4594,-2.4552,-2.4517,-2.4491,-2.451,-2.4416,-2.4302,-2.421,-2.4106,-2.4027,-2.3958,-2.3908,-2.3858,-2.3834,-2.3783,-2.375,-2.4271,-2.5757,-2.6848,-2.7611,-2.8066,-2.8002,-2.8036,-2.7963,-2.7934,-2.7915,-2.7895,-2.7867,-2.7654,-2.7496,-2.7399,-2.6914,-2.6415,-2.5957,-2.5536,-2.4989,-2.4291,-2.3702,-2.3273,-2.2897,-2.2669,-2.9249,-2.8601,-2.8503,-2.8457,-2.8327,-2.7516,-2.7145,-2.7038,-2.6257,-2.5859,-2.5961,-2.5795,-2.57,-2.5693,-2.5693,-2.5693,-2.5692,-2.5702,-2.5701,-2.57,-2.5699,-2.5698,-2.5698,-2.5698,-2.5696,-2.5693,-2.5701,-2.5698,-2.5678,-2.5671,-2.565,-2.5627,-2.5613,-2.5609,-2.5619,-2.5605,-2.56,-2.5579,-2.5583,-2.5572,-2.5579,-2.5579,-2.5579,-2.5579,-2.5579,-2.5579,-2.5544,-2.5544,-2.5564,-2.5564,-2.5573,-2.5541,-2.5495,-2.5473,-2.5515,-2.5478,-2.539,-2.5274,-2.5274,-2.5274,-2.5283,-2.5254,-2.5222,-2.5191,-2.5138,-2.5065,-2.499,-2.4981,-2.4938,-2.4907,-2.4907,-2.4889,-2.487,-2.4847,-2.4799,-2.476,-2.4727,-2.4697,-2.4706,-2.4706,-2.4604,-2.4502,-2.4409,-2.4312,-2.4238,-2.4173,-2.4145,-2.4115,-2.424,-2.4348,-2.4586,-2.6059,-2.7425,-2.8268,-2.848,-2.8464,-2.8421,-2.8369,-2.8361,-2.8361,-2.8335,-2.8299,-2.8282,-2.8148,-2.8129,-2.7991,-2.7434,-2.7019,-2.6822,-2.6346,-2.562,-2.4869,-2.4153,-2.3813,-2.3448,-2.8076,-2.8206,-2.7709,-2.7518,-2.7384,-2.6585,-2.6214,-2.6146,-2.5846,-2.5696,-2.5701,-2.5695,-2.5701,-2.5696,-2.5699,-2.57,-2.5702,-2.5693,-2.5693,-2.5693,-2.5693,-2.5693,-2.5693,-2.5693,-2.5692,-2.5702,-2.5701,-2.5699,-2.5701,-2.5701,-2.568,-2.5658,-2.5645,-2.5671,-2.5652,-2.5664,-2.5656,-2.5648,-2.5629,-2.5605,-2.56,-2.561,-2.561,-2.561,-2.561,-2.561,-2.561,-2.561,-2.56,-2.56,-2.561,-2.56,-2.5565,-2.5561,-2.5591,-2.5634,-2.5539,-2.5461,-2.5432,-2.5405,-2.5405,-2.5396,-2.5341,-2.5293,-2.5244,-2.518,-2.5143,-2.5157,-2.5147,-2.5113,-2.5087,-2.5072,-2.5044,-2.5019,-2.4987,-2.4964,-2.4942,-2.4915,-2.4911,-2.4915,-2.4915,-2.4809,-2.4706,-2.4623,-2.4536,-2.4453,-2.4426,-2.4392,-2.4875,-2.5439,-2.5768,-2.6358,-2.7658,-2.8838,-2.886,-2.8837,-2.8846,-2.8808,-2.8821,-2.8806,-2.8749,-2.8725,-2.8691,-2.8651,-2.8567,-2.8404,-2.8192,-2.793,-2.7586,-2.7282,-2.6952,-2.617,-2.5376,-2.4496,-2.4092,-2.6885,-2.7454,-2.6841,-2.6573,-2.6524,-2.5862,-2.5628,-2.5628,-2.567,-2.5671,-2.5681,-2.5678,-2.5683,-2.5701,-2.5695,-2.5697,-2.5701,-2.5694,-2.5697,-2.5698,-2.5699,-2.57,-2.5701,-2.5702,-2.5693,-2.5693,-2.5693,-2.5693,-2.5693,-2.57,-2.5694,-2.5697,-2.5687,-2.5693,-2.5696,-2.569,-2.5684,-2.5681,-2.5649,-2.5626,-2.5636,-2.5636,-2.5636,-2.5636,-2.5626,-2.5616,-2.5616,-2.5626,-2.5626,-2.5632,-2.5632,-2.5635,-2.5617,-2.5631,-2.5638,-2.5661,-2.5614,-2.558,-2.5541,-2.5514,-2.5519,-2.5497,-2.5453,-2.5383,-2.534,-2.5293,-2.5264,-2.5284,-2.5331,-2.5303,-2.5263,-2.5241,-2.5231,-2.5198,-2.5166,-2.5155,-2.5134,-2.5115,-2.5126,-2.5138,-2.5128,-2.5096,-2.5015,-2.4923,-2.4832,-2.4738,-2.4701,-2.4686,-2.5256,-2.6009,-2.6534,-2.6916,-2.8114,-2.917,-2.9224,-2.9224,-2.9212,-2.92,-2.9215,-2.9191,-2.9119,-2.9075,-2.9075,-2.9016,-2.8948,-2.8883,-2.8752,-2.8524,-2.8308,-2.8048,-2.7753,-2.7351,-2.6645,-2.5672,-2.4974,-2.5631,-2.5691,-2.5715,-2.5723,-2.5723,-2.5638,-2.5604,-2.559,-2.5605,-2.561,-2.5618,-2.5611,-2.5648,-2.5675,-2.5681,-2.5678,-2.5698,-2.5701,-2.5693,-2.5685,-2.5699,-2.5699,-2.5701,-2.5693,-2.5696,-2.5696,-2.5698,-2.5699,-2.5701,-2.5702,-2.5693,-2.57,-2.5699,-2.5697,-2.5694,-2.5701,-2.5699,-2.5697,-2.5676,-2.5676,-2.5683,-2.5683,-2.5683,-2.5683,-2.5685,-2.5685,-2.5695,-2.5683,-2.5671,-2.5679,-2.5676,-2.5673,-2.5671,-2.568,-2.5683,-2.568,-2.5681,-2.5644,-2.5604,-2.5585,-2.5595,-2.5579,-2.5538,-2.5482,-2.5466,-2.5422,-2.5395,-2.5392,-2.5437,-2.5441,-2.5403,-2.5387,-2.5378,-2.535,-2.5321,-2.5322,-2.5312,-2.5321,-2.5321,-2.535,-2.5331,-2.5283,-2.5264,-2.5176,-2.5051,-2.4945,-2.4907,-2.4893,-2.539,-2.6076,-2.683,-2.7516,-2.8668,-2.9401,-2.9542,-2.9542,-2.9504,-2.9494,-2.9503,-2.9483,-2.9454,-2.9443,-2.9392,-2.9383,-2.9323,-2.9312,-2.927,-2.9047,-2.8855,-2.8779,-2.8515,-2.8034,-2.7553,-2.6699,-2.6254,-2.5423,-2.5429,-2.5472,-2.55,-2.5548,-2.5528,-2.5534,-2.5525,-2.5543,-2.5564,-2.5609,-2.561,-2.562,-2.5634,-2.5642,-2.564,-2.5648,-2.5645,-2.5649,-2.5662,-2.5675,-2.5697,-2.57,-2.5696,-2.5701,-2.5701,-2.5695,-2.5697,-2.5699,-2.5689,-2.5694,-2.5699,-2.5693,-2.5693,-2.5692,-2.5702,-2.5702,-2.5701,-2.5699,-2.5699,-2.5698,-2.5697,-2.5696,-2.5696,-2.5697,-2.5697,-2.5696,-2.5696,-2.5696,-2.5694,-2.5694,-2.5693,-2.5701,-2.5701,-2.5701,-2.5699,-2.5695,-2.5681,-2.5644,-2.5625,-2.56,-2.56,-2.5576,-2.5546,-2.5562,-2.5502,-2.5492,-2.5509,-2.5531,-2.554,-2.5531,-2.5518,-2.5502,-2.5466,-2.5456,-2.5466,-2.5466,-2.5463,-2.5453,-2.5444,-2.5446,-2.543,-2.5432,-2.5418,-2.5274,-2.5142,-2.5117,-2.5213,-2.5707,-2.6329,-2.7143,-2.7956,-2.9055,-2.9677,-2.9832,-2.9827,-2.981,-2.9786,-2.9778,-2.9761,-2.9735,-2.9691,-2.9664,-2.9664,-2.9663,-2.9617,-2.9561,-2.9503,-2.9355,-2.9135,-2.8905,-2.8621,-2.8107,-2.7653,-2.7407,-2.5361,-2.5369,-2.536,-2.5404,-2.5456,-2.5473,-2.5471,-2.5471,-2.5485,-2.5515,-2.5577,-2.5579,-2.5582,-2.5564,-2.5571,-2.5586,-2.56,-2.5615,-2.561,-2.5624,-2.5652,-2.5666,-2.5664,-2.5661,-2.5658,-2.5668,-2.5681,-2.5675,-2.5661,-2.5658,-2.5664,-2.5661,-2.566,-2.5666,-2.5702,-2.5702,-2.5692,-2.5693,-2.5693,-2.5693,-2.5693,-2.5693,-2.5693,-2.5693,-2.5693,-2.5693,-2.5693,-2.5693,-2.5693,-2.5692,-2.5692,-2.5702,-2.5701,-2.5701,-2.5702,-2.5702,-2.5701,-2.5699,-2.5676,-2.5661,-2.5629,-2.5636,-2.5645,-2.5632,-2.5617,-2.5586,-2.5586,-2.5574,-2.561,-2.5632,-2.5618,-2.5585,-2.5565,-2.5522,-2.5532,-2.5532,-2.5541,-2.5532,-2.5527,-2.5517,-2.5527,-2.5527,-2.5522,-2.5522,-2.5492,-2.5365,-2.5312,-2.5534,-2.6098,-2.6806,-2.7656,-2.8475,-2.9346,-2.9811,-3.0128,-3.008,-3.0042,-3.0046,-3.0026,-3.0021,-3.0,-2.9956,-2.994,-2.9962,-2.9953,-2.9905,-2.9836,-2.9757,-2.9598,-2.9397,-2.9215,-2.9113,-2.9049,-2.866,-2.8454,-2.5252,-2.5301,-2.5311,-2.5332,-2.5387,-2.5403,-2.5401,-2.5401,-2.5464,-2.549,-2.5503,-2.5493,-2.5495,-2.5502,-2.5518,-2.5541,-2.5576,-2.5591,-2.5597,-2.5599,-2.56,-2.5595,-2.5596,-2.56,-2.5624,-2.5609,-2.5623,-2.5627,-2.5601,-2.5621,-2.5621,-2.5621,-2.5619,-2.5636,-2.5685,-2.5697,-2.5701,-2.5693,-2.5694,-2.5697,-2.5699,-2.57,-2.5701,-2.5701,-2.5701,-2.5701,-2.5701,-2.5701,-2.5702,-2.5692,-2.5692,-2.5693,-2.5693,-2.5693,-2.5693,-2.5693,-2.5693,-2.5693,-2.5693,-2.5698,-2.5683,-2.5673,-2.5681,-2.5681,-2.5689,-2.5681,-2.5661,-2.5637,-2.565,-2.566,-2.5634,-2.5607,-2.5595,-2.5595,-2.5595,-2.5598,-2.5605,-2.5605,-2.5595,-2.5595,-2.5595,-2.5595,-2.5598,-2.56,-2.563,-2.5589,-2.5527,-2.5877,-2.6499,-2.7401,-2.8309,-2.8849,-2.9628,-3.0032,-3.0327,-3.0311,-3.0288,-3.0295,-3.027,-3.0238,-3.0232,-3.0224,-3.0234,-3.0247,-3.0188,-3.0109,-3.0071,-3.0042,-2.9893,-2.9787,-2.9734,-2.9651,-2.9669,-2.9584,-2.9284,-2.5145,-2.5158,-2.5158,-2.518,-2.5214,-2.5303,-2.5332,-2.5331,-2.5387,-2.5433,-2.544,-2.5447,-2.5435,-2.5451,-2.5485,-2.5493,-2.5519,-2.5543,-2.5541,-2.5528,-2.5528,-2.5527,-2.5539,-2.5564,-2.5604,-2.5604,-2.5609,-2.56,-2.5609,-2.56,-2.56,-2.5609,-2.5595,-2.561,-2.5619,-2.5632,-2.5652,-2.569,-2.5696,-2.5693,-2.5699,-2.5691,-2.5693,-2.5691,-2.5693,-2.5693,-2.5691,-2.5691,-2.5683,-2.5684,-2.5684,-2.5694,-2.5696,-2.5696,-2.5696,-2.5696,-2.5694,-2.5701,-2.5697,-2.5696,-2.57,-2.5692,-2.5693,-2.5693,-2.5693,-2.5702,-2.5682,-2.5664,-2.5668,-2.5669,-2.5674,-2.5664,-2.5664,-2.5664,-2.5664,-2.5664,-2.5673,-2.5673,-2.5674,-2.5664,-2.5664,-2.5654,-2.5653,-2.5907,-2.5972,-2.637,-2.6453,-2.6539,-2.7037,-2.812,-2.9099,-2.9353,-2.9862,-3.0264,-3.0518,-3.0472,-3.0463,-3.0463,-3.0443,-3.0404,-3.0423,-3.0441,-3.0429,-3.0399,-3.0358,-3.0294,-3.0273,-3.0251,-3.0259,-3.0196,-3.0089,-2.9977,-2.9927,-2.9902,-2.982,-2.5028,-2.5034,-2.5065,-2.5065,-2.5089,-2.5201,-2.5273,-2.5273,-2.5312,-2.5351,-2.537,-2.5369,-2.5368,-2.5377,-2.5414,-2.5459,-2.5459,-2.5466,-2.5472,-2.5461,-2.5454,-2.5485,-2.5511,-2.5528,-2.5554,-2.5573,-2.5564,-2.5554,-2.5564,-2.5573,-2.5564,-2.5564,-2.557,-2.557,-2.5565,-2.5581,-2.5624,-2.5652,-2.5654,-2.5655,-2.5665,-2.5671,-2.5673,-2.5664,-2.5664,-2.5664,-2.5664,-2.5664,-2.5664,-2.5654,-2.5664,-2.5673,-2.5676,-2.5676,-2.5673,-2.5671,-2.5662,-2.5661,-2.5658,-2.5666,-2.5652,-2.5626,-2.5652,-2.5658,-2.567,-2.5675,-2.5672,-2.5661,-2.5658,-2.5655,-2.5659,-2.5664,-2.5664,-2.5664,-2.5661,-2.5657,-2.5654,-2.5654,-2.5654,-2.5657,-2.5659,-2.5676,-2.5808,-2.6132,-2.6382,-2.6924,-2.743,-2.7565,-2.7706,-2.8702,-2.9659,-2.9947,-3.0131,-3.0461,-3.0639,-3.0617,-3.0614,-3.0629,-3.0596,-3.0552,-3.0566,-3.057,-3.0573,-3.0565,-3.0519,-3.049,-3.0472,-3.0453,-3.0443,-3.0414,-3.0354,-3.0254,-3.0148,-3.0131,-3.014,-2.4902,-2.4902,-2.4957,-2.4989,-2.5015,-2.5118,-2.5177,-2.5191,-2.5191,-2.5232,-2.5301,-2.5282,-2.5302,-2.5303,-2.5351,-2.5379,-2.5398,-2.5397,-2.5415,-2.5394,-2.5392,-2.5429,-2.5456,-2.5464,-2.5474,-2.5484,-2.5474,-2.5464,-2.5493,-2.5484,-2.5484,-2.5484,-2.5484,-2.548,-2.5483,-2.5511,-2.555,-2.5583,-2.559,-2.5586,-2.559,-2.5603,-2.5603,-2.5607,-2.5607,-2.5621,-2.5621,-2.5617,-2.5617,-2.5611,-2.5611,-2.5611,-2.5611,-2.5607,-2.5603,-2.56,-2.5595,-2.5585,-2.5574,-2.5585,-2.557,-2.5535,-2.5537,-2.5571,-2.5607,-2.5632,-2.5638,-2.5604,-2.558,-2.5586,-2.5586,-2.5591,-2.5595,-2.5595,-2.5591,-2.5586,-2.5586,-2.5586,-2.5596,-2.5596,-2.5591,-2.5688,-2.5983,-2.6313,-2.6905,-2.768,-2.8286,-2.8816,-2.8984,-2.9206,-3.0038,-3.0443,-3.0604,-3.0679,-3.0749,-3.071,-3.0712,-3.0714,-3.0701,-3.0672,-3.0691,-3.0691,-3.0675,-3.0664,-3.0685,-3.0669,-3.0614,-3.0597,-3.06,-3.0569,-3.0535,-3.047,-3.0364,-3.0364,-3.0363,-2.4774,-2.4813,-2.4856,-2.4861,-2.487,-2.4944,-2.5044,-2.5118,-2.512,-2.5153,-2.5158,-2.52,-2.5239,-2.5231,-2.5242,-2.5253,-2.5283,-2.5302,-2.5332,-2.5332,-2.5313,-2.5341,-2.536,-2.5351,-2.5341,-2.5341,-2.5351,-2.536,-2.536,-2.537,-2.537,-2.537,-2.536,-2.5351,-2.536,-2.5387,-2.5445,-2.549,-2.5502,-2.5512,-2.5521,-2.5529,-2.5529,-2.5535,-2.556,-2.5585,-2.5594,-2.5585,-2.5594,-2.5604,-2.5609,-2.5604,-2.5604,-2.5604,-2.5599,-2.5531,-2.5525,-2.5514,-2.5456,-2.5451,-2.5443,-2.5418,-2.5393,-2.5446,-2.5499,-2.5558,-2.5579,-2.5528,-2.5464,-2.5444,-2.5473,-2.5496,-2.5489,-2.5489,-2.5482,-2.5466,-2.5459,-2.5459,-2.5469,-2.5498,-2.5505,-2.5909,-2.621,-2.6767,-2.7411,-2.8317,-2.9067,-2.9625,-2.9997,-3.0118,-3.0269,-3.0672,-3.0771,-3.0771,-3.0791,-3.076,-3.0778,-3.0784,-3.0759,-3.0745,-3.0753,-3.0748,-3.0764,-3.0755,-3.0745,-3.0741,-3.0738,-3.0724,-3.069,-3.0725,-3.0701,-3.0642,-3.0596,-3.0571,-3.0556,-2.4695,-2.472,-2.4754,-2.4766,-2.4768,-2.4803,-2.4861,-2.4944,-2.5006,-2.5028,-2.5056,-2.5106,-2.5137,-2.516,-2.5164,-2.5157,-2.5168,-2.52,-2.5231,-2.5221,-2.5222,-2.5222,-2.5223,-2.5213,-2.5213,-2.5203,-2.5203,-2.5223,-2.5233,-2.5222,-2.5213,-2.5223,-2.5214,-2.5213,-2.5223,-2.5234,-2.5264,-2.5331,-2.5385,-2.5408,-2.5432,-2.5447,-2.5464,-2.5471,-2.5507,-2.5524,-2.5531,-2.5521,-2.5541,-2.5567,-2.5573,-2.5557,-2.5531,-2.5498,-2.5481,-2.5424,-2.5421,-2.5395,-2.5359,-2.5322,-2.5322,-2.5293,-2.5225,-2.5235,-2.5339,-2.5418,-2.5408,-2.5383,-2.5321,-2.5293,-2.5349,-2.5393,-2.5375,-2.5366,-2.5339,-2.5311,-2.5312,-2.5312,-2.535,-2.5389,-2.5677,-2.612,-2.6611,-2.7199,-2.7883,-2.8731,-2.9407,-2.9943,-3.0273,-3.0428,-3.0495,-3.071,-3.0749,-3.0745,-3.076,-3.0767,-3.0763,-3.0767,-3.0789,-3.078,-3.079,-3.0791,-3.0781,-3.0779,-3.0787,-3.0776,-3.0765,-3.0774,-3.0772,-3.079,-3.079,-3.0743,-3.07,-3.0691,-3.0696,-2.4573,-2.4582,-2.4659,-2.4663,-2.4657,-2.4682,-2.4682,-2.4689,-2.4804,-2.4921,-2.4976,-2.4999,-2.5025,-2.506,-2.5057,-2.5082,-2.5072,-2.5087,-2.508,-2.5091,-2.5113,-2.5103,-2.5103,-2.5094,-2.5103,-2.5094,-2.5072,-2.5082,-2.5072,-2.5072,-2.5082,-2.5072,-2.5082,-2.5082,-2.5082,-2.5091,-2.5105,-2.5128,-2.5204,-2.5245,-2.5283,-2.5331,-2.5378,-2.5378,-2.5377,-2.5386,-2.5375,-2.5393,-2.5421,-2.5458,-2.5476,-2.544,-2.5394,-2.5349,-2.5321,-2.5303,-2.5303,-2.5282,-2.5241,-2.52,-2.5168,-2.5124,-2.5058,-2.5046,-2.5126,-2.5264,-2.5284,-2.5214,-2.515,-2.5139,-2.5183,-2.5204,-2.5204,-2.5203,-2.5192,-2.5152,-2.5141,-2.515,-2.518,-2.5334,-2.5784,-2.6266,-2.6958,-2.7568,-2.8472,-2.9215,-2.969,-3.0195,-3.0365,-3.0525,-3.0608,-3.0659,-3.0674,-3.0656,-3.0687,-3.0696,-3.0706,-3.0728,-3.0749,-3.0775,-3.0759,-3.078,-3.0798,-3.0779,-3.0761,-3.0763,-3.0764,-3.0765,-3.0767,-3.0776,-3.0776,-3.0785,-3.0781,-3.0749,-3.0771,-2.4411,-2.4446,-2.447,-2.4476,-2.4467,-2.4467,-2.4493,-2.4545,-2.4594,-2.4689,-2.4832,-2.4894,-2.4922,-2.4945,-2.4944,-2.4961,-2.4951,-2.4951,-2.4936,-2.4958,-2.4977,-2.499,-2.5003,-2.499,-2.5013,-2.5,-2.4977,-2.4936,-2.4936,-2.4936,-2.4945,-2.4945,-2.4945,-2.4945,-2.4945,-2.4945,-2.4968,-2.4968,-2.4997,-2.5072,-2.513,-2.5191,-2.5251,-2.5242,-2.5243,-2.5253,-2.5244,-2.5244,-2.5254,-2.5283,-2.5274,-2.5264,-2.5244,-2.5233,-2.5221,-2.5201,-2.5174,-2.5139,-2.5094,-2.5047,-2.5009,-2.497,-2.4921,-2.4889,-2.4944,-2.5101,-2.5126,-2.5034,-2.4981,-2.4994,-2.5006,-2.5031,-2.5034,-2.5041,-2.5038,-2.5003,-2.4981,-2.4994,-2.5003,-2.5384,-2.584,-2.6561,-2.727,-2.8116,-2.9021,-2.956,-2.986,-3.0169,-3.0206,-3.0304,-3.0393,-3.0463,-3.0536,-3.0552,-3.0593,-3.0605,-3.062,-3.0633,-3.0652,-3.0684,-3.0718,-3.0711,-3.0696,-3.0716,-3.0711,-3.072,-3.0728,-3.0722,-3.0722,-3.0732,-3.0732,-3.0732,-3.0728,-3.07,-3.0749,-2.4294,-2.4312,-2.4302,-2.432,-2.432,-2.4347,-2.4374,-2.4409,-2.4445,-2.4513,-2.4641,-2.4751,-2.4817,-2.4807,-2.4808,-2.4813,-2.4813,-2.4823,-2.4813,-2.4813,-2.4861,-2.4861,-2.4884,-2.4884,-2.487,-2.487,-2.4837,-2.4813,-2.4795,-2.4804,-2.4813,-2.4813,-2.4804,-2.4804,-2.4804,-2.4804,-2.4813,-2.4813,-2.4813,-2.4861,-2.4945,-2.5016,-2.5063,-2.5065,-2.5077,-2.5089,-2.5111,-2.5101,-2.5113,-2.5113,-2.5113,-2.5111,-2.5099,-2.5087,-2.5072,-2.5047,-2.5006,-2.4966,-2.4907,-2.4865,-2.4808,-2.4779,-2.4719,-2.4664,-2.4682,-2.4814,-2.4898,-2.4808,-2.4779,-2.4789,-2.4837,-2.4856,-2.4856,-2.4851,-2.4851,-2.4828,-2.4828,-2.4837,-2.4879,-2.5039,-2.5827,-2.7,-2.7768,-2.8651,-2.9412,-2.9599,-2.9928,-3.0013,-3.0055,-3.008,-3.0159,-3.0251,-3.0314,-3.0421,-3.0491,-3.0501,-3.0501,-3.0529,-3.0537,-3.0563,-3.0587,-3.0593,-3.0598,-3.0615,-3.0639,-3.0662,-3.0659,-3.0646,-3.0656,-3.0656,-3.0656,-3.0656,-3.0649,-3.0636,-3.066,-2.4164,-2.4182,-2.4173,-2.4164,-2.4182,-2.4247,-2.4284,-2.4275,-2.433,-2.4376,-2.4412,-2.4541,-2.4631,-2.466,-2.4657,-2.4657,-2.4657,-2.4648,-2.4657,-2.4682,-2.4742,-2.4732,-2.4723,-2.4742,-2.4717,-2.4692,-2.4667,-2.4657,-2.4639,-2.4648,-2.4639,-2.4648,-2.4657,-2.4667,-2.4667,-2.4667,-2.4667,-2.4657,-2.4657,-2.4648,-2.4725,-2.4808,-2.4856,-2.4884,-2.4884,-2.4898,-2.4934,-2.4957,-2.4961,-2.4961,-2.4938,-2.497,-2.4944,-2.4921,-2.487,-2.4861,-2.4803,-2.4768,-2.4723,-2.4667,-2.461,-2.4552,-2.4476,-2.4469,-2.4478,-2.4521,-2.4596,-2.4606,-2.4566,-2.4589,-2.4635,-2.4657,-2.4657,-2.4657,-2.4657,-2.4686,-2.4695,-2.4779,-2.4881,-2.497,-2.607,-2.7312,-2.8108,-2.8997,-2.9456,-2.9634,-2.9736,-2.9808,-2.9859,-2.9874,-2.9921,-2.999,-3.0066,-3.0184,-3.0321,-3.0348,-3.0331,-3.0365,-3.0369,-3.0422,-3.0462,-3.0462,-3.0482,-3.052,-3.0539,-3.0529,-3.0538,-3.0519,-3.0547,-3.0556,-3.0556,-3.0537,-3.0509,-3.051,-3.0538,-2.4047,-2.4027,-2.4027,-2.4036,-2.4056,-2.4056,-2.4094,-2.4133,-2.4161,-2.4181,-2.4256,-2.4256,-2.4339,-2.4476,-2.4459,-2.4486,-2.4495,-2.4486,-2.4512,-2.4554,-2.4564,-2.458,-2.458,-2.4547,-2.4528,-2.4495,-2.4469,-2.445,-2.4469,-2.4459,-2.445,-2.4459,-2.445,-2.445,-2.445,-2.4459,-2.4469,-2.4469,-2.4469,-2.4459,-2.451,-2.4591,-2.4723,-2.4753,-2.4753,-2.4744,-2.4759,-2.4768,-2.4759,-2.4759,-2.4759,-2.4798,-2.4774,-2.4734,-2.4679,-2.4632,-2.4594,-2.4571,-2.4521,-2.4453,-2.4392,-2.4329,-2.4275,-2.4238,-2.4257,-2.4266,-2.4294,-2.4312,-2.4312,-2.4383,-2.4417,-2.4459,-2.4459,-2.4459,-2.4459,-2.4543,-2.459,-2.4962,-2.527,-2.5745,-2.6526,-2.7363,-2.7921,-2.8695,-2.9311,-2.9434,-2.9483,-2.9541,-2.9636,-2.9673,-2.9692,-2.9737,-2.9798,-2.9905,-3.0032,-3.0118,-3.0128,-3.0165,-3.0205,-3.0257,-3.0292,-3.0333,-3.0357,-3.0354,-3.0342,-3.0342,-3.0342,-3.0358,-3.0377,-3.0378,-3.0417,-3.0417,-3.0386,-3.0356,-3.0367]},{"header":{"parameterUnit":"m.s-1","parameterCategory":1,"la1":31.0,"la2":29.5877,"lo1":-88.7671,"lo2":-86.6584,"dy":0.0162,"dx":0.0185,"nx":115,"ny":88,"refTime":"2024-06-20T06:00:00:Z","depth":0,"parameterNumber":3,"parameterNumberName":"V-component_of_WINDS"},"data":[0.0,0.0,0.0,0.0,0.0,0.0,0.0,0.0,0.0,0.0,0.0,0.0,0.0,0.0,0.0,0.0,0.0,0.0,0.0,0.0,0.0,0.0,0.0,0.0,0.0,0.0,0.0,0.0,0.0,0.0,0.0,0.0,0.0,0.0,0.0,0.0,0.0,0.0,0.0,0.0,0.0,0.0,0.0,0.0,0.0,0.0,0.0,0.0,0.0,0.0,0.0,0.0,0.0,0.0,0.0,0.0,0.0,0.0,0.0,0.0,0.0,0.0,0.0,0.0,0.0,0.0,0.0,0.0,0.0,0.0,0.0,0.0,0.0,0.0,0.0,0.0,0.0,0.0,0.0,0.0,0.0,0.0,0.0,0.0,0.0,0.0,0.0,0.0,0.0,0.0,0.0,0.0,0.0,0.0,0.0,0.0,0.0,0.0,0.0,0.0,0.0,0.0,0.0,0.0,0.0,0.0,0.0,0.0,0.0,0.0,0.0,0.0,0.0,0.0,0.0,0.0,0.0,0.0,0.0,0.0,0.0,0.0,0.0,0.0,0.0,0.0,0.0,0.0,0.0,0.0,0.0,0.0,0.0,0.0,0.0,0.0,0.0,0.0,0.0,0.0,0.0,0.0,0.0,0.0,0.0,0.0,0.0,0.0,0.0,0.0,0.0,0.0,0.0,0.0,0.0,0.0,0.0,0.0,0.0,0.0,0.0,0.0,0.0,0.0,0.0,0.0,0.0,0.0,0.0,0.0,0.0,0.0,0.0,0.0,0.0,0.0,0.0,0.0,0.0,0.0,0.0,0.0,0.0,0.0,0.0,0.0,0.0,0.0,0.0,0.0,0.0,0.0,0.0,0.0,0.0,0.0,0.0,0.0,0.0,0.0,0.0,0.0,0.0,0.0,0.0,0.0,0.0,0.0,0.0,0.0,0.0,0.0,0.0,0.0,0.0,0.0,0.0,0.0,0.0,0.0,0.0,0.0,0.0,0.0,0.0,0.0,0.0,0.0,0.0,0.0,0.0,0.0,0.0,0.0,0.0,0.0,0.0,0.0,0.0,0.0,0.0,0.0,0.0,0.0,0.0,0.0,0.0,0.0,0.0,0.0,0.0,0.0,0.0,0.0,0.0,0.0,0.0,0.0,0.0,0.0,0.0,0.0,0.0,0.0,0.0,0.0,0.0,0.0,0.0,0.0,0.0,0.0,0.0,0.0,0.0,0.0,0.0,0.0,0.0,0.0,0.0,0.0,0.0,0.0,0.0,0.0,0.0,0.0,0.0,0.0,0.0,0.0,0.0,0.0,0.0,0.0,0.0,0.0,0.0,0.0,0.0,0.0,0.0,0.0,0.0,0.0,0.0,0.0,0.0,0.0,0.0,0.0,0.0,0.0,0.0,0.0,0.0,0.0,0.0,0.0,0.0,0.0,0.0,0.0,0.0,0.0,0.0,0.0,0.0,0.0,0.0,0.0,0.0,0.0,0.0,0.0,0.0,0.0,0.0,0.0,0.0,0.0,0.0,0.0,0.0,0.0,0.0,0.0,0.0,0.0,0.0,0.0,0.0,0.0,0.0,0.0,0.0,0.0,0.0,0.0,0.0,0.0,0.0,0.0,0.0,0.0,0.0,0.0,0.0,0.0,0.0,0.0,0.0,0.0,0.0,0.0,0.0,0.0,0.0,0.0,0.0,0.0,0.0,0.0,0.0,0.0,0.0,0.0,0.0,0.0,0.0,0.0,0.0,0.0,0.0,0.0,0.0,0.0,0.0,0.0,0.0,0.0,0.0,0.0,0.0,0.0,0.0,0.0,0.0,0.0,0.0,0.0,0.0,0.0,0.0,0.0,0.0,0.0,0.0,0.0,0.0,0.0,0.0,0.0,0.0,0.0,0.0,0.0,0.0,0.0,0.0,0.0,0.0,0.0,0.0,0.0,0.0,0.0,0.0,0.0,0.0,0.0,0.0,0.0,0.0,0.0,0.0,0.0,0.0,0.0,0.0,0.0,0.0,0.0,0.0,0.0,0.0,0.0,0.0,0.0,0.0,0.0,0.0,0.0,0.0,0.0,0.0,0.0,0.0,0.0,0.0,0.0,0.0,0.0,0.0,0.0,0.0,0.0,0.0,0.0,0.0,0.0,0.0,0.0,0.0,0.0,0.0,0.0,0.0,0.0,0.0,0.0,0.0,0.0,0.0,0.0,0.0,0.0,0.0,0.0,0.0,0.0,0.0,0.0,0.0,0.0,0.0,0.0,0.0,0.0,0.0,0.0,0.0,0.0,0.0,0.0,0.0,0.0,0.0,0.0,0.0,0.0,0.0,0.0,0.0,0.0,0.0,0.0,0.0,0.0,0.0,0.0,0.0,0.0,0.0,0.0,0.0,0.0,0.0,0.0,0.0,0.0,0.0,0.0,0.0,0.0,0.0,0.0,0.0,0.0,0.0,0.0,0.0,0.0,0.0,0.0,0.0,0.0,0.0,0.0,0.0,0.0,0.0,0.0,0.0,0.0,0.0,0.0,0.0,0.0,0.0,0.0,0.0,0.0,0.0,0.0,0.0,0.0,0.0,0.0,0.0,0.0,0.0,0.0,0.0,0.0,0.0,0.0,0.0,0.0,0.0,0.0,0.0,0.0,0.0,0.0,0.0,0.0,0.0,0.0,0.0,0.0,0.0,0.0,0.0,0.0,0.0,0.0,0.0,0.0,0.0,0.0,0.0,0.0,0.0,0.0,0.0,0.0,0.0,0.0,0.0,0.0,0.0,0.0,0.0,0.0,0.0,0.0,0.0,0.0,0.0,0.0,0.0,0.0,0.0,0.0,0.0,0.0,0.0,0.0,0.0,0.0,0.0,0.0,0.0,0.0,0.0,0.0,0.0,0.0,0.0,0.0,0.0,0.0,0.0,0.0,0.0,0.0,0.0,0.0,0.0,0.0,0.0,0.0,0.0,0.0,0.0,0.0,0.0,0.0,0.0,0.0,0.0,0.0,0.0,0.0,0.0,0.0,0.0,0.0,0.0,0.0,0.0,0.0,0.0,0.0,0.0,0.0,0.0,0.0,0.0,0.0,0.0,0.0,0.0,0.0,0.0,0.0,0.0,0.0,0.0,0.0,0.0,0.0,0.0,0.0,0.0,0.0,0.0,0.0,0.0,0.0,0.0,0.0,0.0,0.0,0.0,0.0,0.0,0.0,0.0,0.0,0.0,0.0,0.0,0.0,0.0,0.0,0.0,0.0,0.0,0.0,0.0,0.0,0.0,0.0,0.0,0.0,0.0,0.0,0.0,0.0,0.0,0.0,0.0,0.0,0.0,0.0,0.0,0.0,0.0,0.0,0.0,0.0,0.0,0.0,0.0,0.0,0.0,0.0,0.0,0.0,0.0,0.0,0.0,0.0,0.0,0.0,0.0,0.0,0.0,0.0,0.0,0.0,0.0,0.0,0.0,0.0,0.0,0.0,0.0,0.0,0.0,0.0,0.0,0.0,0.0,0.0,0.0,0.0,0.0,0.0,0.0,0.0,0.0,0.0,0.0,0.0,0.0,0.0,0.0,0.0,0.0,0.0,0.0,0.0,0.0,0.0,0.0,0.0,0.0,0.0,0.0,0.0,0.0,0.0,0.0,0.0,0.0,0.0,0.0,0.0,0.0,0.0,0.0,0.0,0.0,0.0,0.0,0.0,0.0,0.0,0.0,0.0,0.0,0.0,0.0,0.0,0.0,0.0,0.0,0.0,0.0,0.0,0.0,0.0,0.0,0.0,0.0,0.0,0.0,0.0,0.0,0.0,0.0,0.0,0.0,0.0,0.0,0.0,0.0,0.0,0.0,0.0,0.0,0.0,0.0,0.0,0.0,0.0,0.0,0.0,0.0,0.0,0.0,0.0,0.0,0.0,0.0,0.0,0.0,0.0,0.0,0.0,0.0,0.0,0.0,0.0,0.0,0.0,0.0,0.0,0.0,0.0,0.0,0.0,0.0,0.0,0.0,0.0,0.0,0.0,0.0,0.0,0.0,0.0,0.0,0.0,0.0,0.0,0.0,0.0,0.0,0.0,0.0,0.0,0.0,0.0,0.0,0.0,0.0,0.0,0.0,0.0,0.0,0.0,0.0,0.0,0.0,0.0,0.0,0.0,0.0,0.0,0.0,0.0,0.0,0.0,0.0,0.0,0.0,0.0,0.0,0.0,0.0,0.0,0.0,0.0,0.0,0.0,0.0,0.0,0.0,0.0,0.0,0.0,0.0,0.0,0.0,0.0,0.0,0.0,0.0,0.0,0.0,0.0,-0.888,0.0,0.0,0.0,0.0,0.0,0.0,0.0,0.0,0.0,0.0,0.0,0.0,0.0,0.0,0.0,0.0,0.0,0.0,0.0,0.0,0.0,0.0,0.0,0.0,0.0,0.0,0.0,0.0,0.0,0.0,0.0,0.0,0.0,0.0,0.0,0.0,0.0,0.0,0.0,0.0,0.0,0.0,0.0,0.0,0.0,0.0,0.0,0.0,0.0,0.0,0.0,0.0,0.0,0.0,0.0,0.0,0.0,0.0,0.0,0.0,0.0,0.0,0.0,0.0,0.0,0.0,0.0,0.0,0.0,0.0,0.0,0.0,0.0,0.0,0.0,0.0,0.0,0.0,0.0,0.0,0.0,0.0,0.0,0.0,0.0,0.0,0.0,0.0,0.0,0.0,0.0,0.0,0.0,0.0,0.0,0.0,0.0,0.0,0.0,0.0,0.0,0.0,0.0,0.0,0.0,0.0,0.0,0.0,0.0,0.0,-0.9293,-0.9262,-0.9223,-0.9173,-0.9062,0.0,0.0,0.0,0.0,0.0,0.0,0.0,0.0,0.0,0.0,0.0,0.0,0.0,0.0,0.0,0.0,0.0,0.0,0.0,0.0,0.0,0.0,0.0,0.0,0.0,0.0,0.0,0.0,0.0,0.0,0.0,0.0,0.0,0.0,0.0,0.0,0.0,0.0,0.0,0.0,0.0,0.0,0.0,0.0,0.0,0.0,0.0,0.0,0.0,0.0,0.0,0.0,0.0,0.0,0.0,0.0,0.0,0.0,0.0,0.0,0.0,0.0,0.0,0.0,0.0,0.0,0.0,0.0,0.0,0.0,0.0,0.0,0.0,0.0,0.0,0.0,0.0,0.0,0.0,0.0,0.0,0.0,0.0,0.0,0.0,0.0,0.0,0.0,0.0,0.0,0.0,0.0,0.0,0.0,0.0,0.0,0.0,0.0,0.0,0.0,0.0,0.0,0.0,0.0,0.0,0.0,0.0,0.0,0.0,0.0,0.0,0.0,-0.9376,-0.931,-0.9204,0.0,0.0,0.0,0.0,0.0,0.0,0.0,0.0,0.0,0.0,0.0,0.0,0.0,0.0,0.0,0.0,0.0,0.0,0.0,0.0,0.0,0.0,0.0,0.0,0.0,0.0,0.0,0.0,0.0,0.0,0.0,0.0,0.0,0.0,0.0,0.0,0.0,0.0,0.0,0.0,0.0,0.0,0.0,0.0,0.0,0.0,0.0,0.0,0.0,0.0,0.0,0.0,0.0,0.0,0.0,0.0,0.0,0.0,0.0,0.0,0.0,0.0,0.0,0.0,0.0,0.0,0.0,0.0,0.0,0.0,0.0,0.0,0.0,0.0,0.0,0.0,0.0,0.0,0.0,0.0,0.0,0.0,0.0,0.0,0.0,0.0,0.0,0.0,0.0,0.0,0.0,0.0,0.0,0.0,0.0,0.0,0.0,0.0,0.0,0.0,0.0,0.0,0.0,0.0,0.0,0.0,0.0,0.0,0.0,0.0,-0.9652,-0.9578,-0.9509,0.0,-0.9207,0.0,0.0,0.0,0.0,0.0,0.0,0.0,0.0,0.0,0.0,0.0,0.0,0.0,0.0,0.0,0.0,0.0,0.0,0.0,0.0,0.0,0.0,0.0,0.0,0.0,0.0,0.0,0.0,0.0,0.0,0.0,0.0,0.0,0.0,0.0,0.0,0.0,0.0,0.0,0.0,0.0,0.0,0.0,0.0,0.0,0.0,0.0,0.0,0.0,0.0,0.0,0.0,0.0,0.0,0.0,0.0,0.0,0.0,0.0,0.0,0.0,0.0,0.0,0.0,0.0,0.0,0.0,0.0,0.0,0.0,0.0,0.0,0.0,0.0,0.0,0.0,0.0,0.0,0.0,0.0,0.0,0.0,0.0,0.0,0.0,0.0,0.0,0.0,0.0,0.0,0.0,0.0,0.0,0.0,0.0,0.0,0.0,0.0,0.0,0.0,0.0,0.0,0.0,0.0,0.0,0.0,0.0,0.0,0.0,0.0,-0.9728,-0.9661,-0.9549,-0.943,0.0,0.0,0.0,0.0,0.0,0.0,0.0,0.0,0.0,0.0,0.0,0.0,0.0,0.0,0.0,0.0,0.0,0.0,0.0,0.0,0.0,0.0,0.0,0.0,0.0,0.0,0.0,0.0,0.0,0.0,0.0,0.0,0.0,0.0,0.0,0.0,0.0,0.0,0.0,0.0,0.0,0.0,0.0,0.0,0.0,0.0,0.0,0.0,0.0,0.0,0.0,0.0,0.0,0.0,0.0,0.0,0.0,0.0,0.0,0.0,0.0,0.0,0.0,0.0,0.0,0.0,0.0,0.0,0.0,0.0,0.0,0.0,0.0,0.0,0.0,0.0,0.0,0.0,0.0,0.0,0.0,0.0,0.0,0.0,0.0,0.0,0.0,0.0,0.0,0.0,0.0,0.0,0.0,0.0,0.0,0.0,0.0,0.0,0.0,0.0,0.0,0.0,0.0,0.0,0.0,0.0,0.0,0.0,0.0,0.0,-0.9841,0.0,-0.97,-0.9581,-0.9456,-0.934,0.0,0.0,0.0,0.0,0.0,0.0,0.0,0.0,0.0,0.0,0.0,0.0,0.0,0.0,0.0,0.0,0.0,0.0,0.0,0.0,0.0,0.0,0.0,0.0,0.0,0.0,0.0,0.0,0.0,0.0,0.0,0.0,0.0,0.0,0.0,0.0,0.0,0.0,0.0,0.0,0.0,0.0,0.0,0.0,0.0,0.0,0.0,0.0,0.0,0.0,0.0,0.0,0.0,0.0,0.0,0.0,0.0,0.0,0.0,0.0,0.0,0.0,0.0,0.0,0.0,0.0,0.0,0.0,0.0,0.0,0.0,0.0,0.0,0.0,0.0,0.0,0.0,0.0,0.0,0.0,0.0,0.0,0.0,0.0,0.0,0.0,0.0,0.0,0.0,0.0,0.0,0.0,0.0,0.0,0.0,0.0,0.0,0.0,0.0,0.0,0.0,0.0,0.0,0.0,0.0,0.0,0.0,0.0,0.0,-0.9928,-0.9828,-0.97,-0.9648,-0.9543,0.0,0.0,0.0,0.0,0.0,0.0,0.0,0.0,0.0,0.0,0.0,0.0,0.0,0.0,0.0,0.0,0.0,0.0,0.0,0.0,0.0,0.0,0.0,0.0,0.0,0.0,0.0,0.0,0.0,0.0,0.0,0.0,0.0,0.0,0.0,0.0,0.0,0.0,0.0,0.0,0.0,0.0,0.0,0.0,0.0,0.0,0.0,0.0,0.0,0.0,0.0,0.0,0.0,0.0,0.0,0.0,0.0,0.0,0.0,0.0,0.0,0.0,0.0,0.0,0.0,0.0,0.0,0.0,0.0,0.0,0.0,0.0,0.0,0.0,0.0,0.0,0.0,0.0,0.0,0.0,0.0,0.0,0.0,0.0,0.0,0.0,0.0,0.0,0.0,0.0,0.0,0.0,0.0,0.0,0.0,0.0,0.0,0.0,0.0,0.0,0.0,0.0,0.0,0.0,0.0,0.0,0.0,0.0,0.0,-0.9997,-0.9888,-0.9798,-0.971,-0.9632,-0.9535,0.0,0.0,0.0,0.0,0.0,0.0,0.0,0.0,0.0,0.0,0.0,0.0,0.0,0.0,0.0,0.0,0.0,0.0,0.0,0.0,0.0,0.0,0.0,0.0,0.0,0.0,0.0,0.0,0.0,0.0,0.0,0.0,0.0,0.0,0.0,0.0,0.0,0.0,0.0,0.0,0.0,0.0,0.0,0.0,0.0,0.0,0.0,0.0,0.0,0.0,0.0,0.0,0.0,0.0,0.0,0.0,0.0,0.0,0.0,0.0,0.0,0.0,0.0,0.0,0.0,0.0,0.0,0.0,0.0,0.0,0.0,0.0,0.0,0.0,0.0,0.0,0.0,0.0,0.0,0.0,0.0,0.0,0.0,0.0,0.0,0.0,0.0,0.0,0.0,0.0,0.0,0.0,0.0,0.0,0.0,0.0,0.0,0.0,0.0,0.0,0.0,0.0,0.0,0.0,0.0,0.0,0.0,0.0,0.0,-0.9974,0.0,-0.9764,0.0,-0.9625,-0.9509,0.0,0.0,0.0,0.0,0.0,0.0,0.0,0.0,0.0,0.0,0.0,0.0,0.0,0.0,0.0,0.0,0.0,0.0,0.0,0.0,0.0,0.0,0.0,0.0,0.0,0.0,0.0,0.0,0.0,0.0,0.0,0.0,0.0,0.0,0.0,0.0,0.0,0.0,0.0,0.0,0.0,0.0,0.0,0.0,0.0,0.0,0.0,0.0,0.0,0.0,0.0,0.0,0.0,0.0,0.0,0.0,0.0,0.0,0.0,0.0,0.0,0.0,0.0,0.0,0.0,0.0,0.0,0.0,0.0,0.0,0.0,0.0,0.0,0.0,0.0,0.0,0.0,0.0,0.0,0.0,0.0,0.0,0.0,0.0,0.0,0.0,0.0,0.0,0.0,0.0,0.0,0.0,0.0,0.0,0.0,0.0,0.0,0.0,0.0,0.0,0.0,0.0,0.0,0.0,0.0,0.0,0.0,0.0,-0.9975,-0.9919,-0.9856,-0.9821,-0.9717,-0.9611,-0.9465,0.0,0.0,0.0,0.0,0.0,0.0,0.0,0.0,0.0,0.0,0.0,0.0,0.0,0.0,0.0,0.0,0.0,0.0,0.0,0.0,0.0,0.0,0.0,0.0,0.0,0.0,0.0,0.0,0.0,0.0,0.0,0.0,0.0,0.0,0.0,0.0,0.0,0.0,0.0,0.0,0.0,0.0,0.0,0.0,0.0,0.0,0.0,0.0,0.0,0.0,0.0,0.0,0.0,0.0,0.0,0.0,0.0,0.0,0.0,0.0,0.0,0.0,0.0,0.0,0.0,0.0,0.0,0.0,0.0,0.0,0.0,0.0,0.0,0.0,0.0,0.0,0.0,0.0,0.0,0.0,0.0,0.0,0.0,0.0,0.0,0.0,0.0,0.0,0.0,0.0,0.0,0.0,0.0,0.0,0.0,0.0,0.0,0.0,0.0,0.0,0.0,0.0,0.0,0.0,0.0,0.0,0.0,0.0,0.0,-1.0593,-1.0532,-1.0439,-1.0322,-1.0238,-0.9891,0.0,0.0,0.0,0.0,0.0,0.0,0.0,0.0,0.0,0.0,0.0,0.0,0.0,0.0,0.0,0.0,0.0,0.0,0.0,0.0,0.0,0.0,0.0,0.0,0.0,0.0,0.0,0.0,0.0,0.0,0.0,0.0,0.0,0.0,0.0,0.0,0.0,0.0,0.0,0.0,0.0,0.0,0.0,0.0,0.0,0.0,0.0,0.0,0.0,0.0,0.0,0.0,0.0,0.0,0.0,0.0,0.0,0.0,0.0,0.0,0.0,0.0,0.0,0.0,0.0,0.0,0.0,0.0,0.0,0.0,0.0,0.0,0.0,0.0,0.0,0.0,0.0,0.0,0.0,0.0,0.0,0.0,0.0,0.0,0.0,0.0,0.0,0.0,0.0,0.0,0.0,0.0,0.0,0.0,0.0,0.0,0.0,0.0,0.0,0.0,0.0,0.0,0.0,0.0,0.0,0.0,0.0,0.0,0.0,-1.1614,-1.1329,-1.1095,-1.0923,-1.0873,-1.0403,-0.955,0.0,0.0,0.0,0.0,0.0,0.0,0.0,0.0,0.0,0.0,0.0,0.0,0.0,0.0,0.0,0.0,0.0,0.0,0.0,0.0,0.0,0.0,0.0,0.0,0.0,0.0,0.0,0.0,0.0,0.0,0.0,0.0,0.0,0.0,0.0,0.0,0.0,0.0,0.0,0.0,0.0,0.0,0.0,0.0,0.0,0.0,0.0,0.0,0.0,0.0,0.0,0.0,0.0,0.0,0.0,0.0,0.0,0.0,0.0,0.0,0.0,0.0,0.0,0.0,0.0,0.0,0.0,0.0,0.0,0.0,0.0,0.0,0.0,0.0,0.0,0.0,0.0,0.0,0.0,0.0,0.0,0.0,0.0,0.0,0.0,0.0,0.0,0.0,0.0,0.0,0.0,0.0,0.0,0.0,0.0,0.0,0.0,0.0,0.0,0.0,0.0,0.0,0.0,0.0,0.0,0.0,0.0,0.0,-1.2918,-1.2264,-1.178,-1.1545,-1.1482,-1.0998,0.0,0.0,0.0,0.0,0.0,0.0,0.0,0.0,0.0,0.0,0.0,0.0,0.0,0.0,0.0,0.0,0.0,0.0,0.0,0.0,0.0,0.0,0.0,0.0,0.0,0.0,0.0,0.0,0.0,0.0,0.0,0.0,0.0,0.0,0.0,0.0,0.0,0.0,0.0,0.0,0.0,0.0,0.0,0.0,0.0,0.0,0.0,0.0,0.0,0.0,0.0,0.0,0.0,0.0,0.0,0.0,0.0,0.0,0.0,0.0,0.0,0.0,0.0,0.0,0.0,0.0,0.0,0.0,0.0,0.0,0.0,0.0,0.0,0.0,0.0,0.0,0.0,0.0,0.0,0.0,0.0,0.0,0.0,0.0,0.0,0.0,0.0,0.0,0.0,0.0,0.0,0.0,0.0,0.0,0.0,0.0,0.0,0.0,0.0,0.0,0.0,0.0,0.0,0.0,0.0,0.0,0.0,0.0,0.0,-1.3509,-1.3226,-1.2768,-1.2175,-1.1997,-1.1273,0.0,0.0,0.0,0.0,0.0,0.0,0.0,0.0,0.0,0.0,0.0,0.0,0.0,0.0,0.0,0.0,0.0,0.0,0.0,0.0,0.0,0.0,0.0,0.0,0.0,0.0,0.0,0.0,0.0,0.0,0.0,0.0,0.0,0.0,0.0,0.0,0.0,0.0,0.0,0.0,0.0,0.0,0.0,0.0,0.0,0.0,0.0,0.0,0.0,0.0,0.0,0.0,0.0,0.0,0.0,0.0,0.0,0.0,0.0,0.0,0.0,0.0,0.0,0.0,0.0,0.0,0.0,0.0,0.0,0.0,0.0,0.0,0.0,0.0,0.0,0.0,0.0,0.0,0.0,0.0,0.0,0.0,0.0,0.0,0.0,0.0,0.0,0.0,0.0,0.0,0.0,0.0,0.0,0.0,0.0,0.0,0.0,0.0,0.0,0.0,0.0,0.0,0.0,0.0,0.0,0.0,0.0,0.0,-1.3111,-1.3648,-1.3443,-1.3083,-1.2588,-1.2498,-1.1852,0.0,0.0,0.0,0.0,0.0,0.0,0.0,0.0,0.0,0.0,0.0,0.0,0.0,0.0,0.0,0.0,0.0,0.0,0.0,0.0,0.0,0.0,0.0,0.0,0.0,0.0,0.0,0.0,0.0,0.0,0.0,0.0,0.0,0.0,0.0,0.0,0.0,0.0,0.0,0.0,0.0,0.0,0.0,0.0,0.0,0.0,0.0,0.0,0.0,0.0,0.0,0.0,0.0,0.0,0.0,0.0,0.0,0.0,0.0,0.0,0.0,0.0,0.0,0.0,0.0,0.0,0.0,0.0,0.0,0.0,0.0,0.0,0.0,0.0,0.0,0.0,0.0,0.0,0.0,0.0,0.0,0.0,0.0,0.0,0.0,0.0,0.0,0.0,0.0,0.0,0.0,0.0,0.0,0.0,0.0,0.0,0.0,0.0,0.0,0.0,0.0,0.0,0.0,0.0,0.0,0.0,0.0,0.0,-1.2959,-1.3462,-1.3227,-1.2983,-1.2781,-1.2826,-1.2462,0.0,0.0,0.0,0.0,0.0,0.0,0.0,0.0,0.0,0.0,0.0,0.0,0.0,0.0,0.0,0.0,0.0,0.0,0.0,0.0,0.0,0.0,0.0,0.0,0.0,0.0,0.0,0.0,0.0,0.0,0.0,0.0,0.0,0.0,0.0,0.0,0.0,0.0,0.0,0.0,0.0,0.0,0.0,0.0,0.0,0.0,0.0,0.0,0.0,0.0,0.0,0.0,0.0,0.0,0.0,0.0,0.0,0.0,0.0,0.0,0.0,0.0,0.0,0.0,0.0,0.0,0.0,0.0,0.0,0.0,0.0,0.0,0.0,0.0,0.0,0.0,0.0,0.0,0.0,0.0,0.0,0.0,0.0,0.0,0.0,0.0,0.0,0.0,0.0,0.0,0.0,0.0,0.0,0.0,0.0,0.0,0.0,0.0,0.0,0.0,0.0,0.0,0.0,0.0,0.0,0.0,0.0,0.0,-1.3362,-1.3253,-1.3052,-1.2842,-1.2644,-1.2597,-1.2189,0.0,0.0,0.0,0.0,0.0,0.0,0.0,0.0,0.0,0.0,0.0,0.0,0.0,0.0,0.0,0.0,0.0,0.0,0.0,0.0,0.0,0.0,0.0,0.0,0.0,0.0,0.0,0.0,0.0,0.0,0.0,0.0,0.0,0.0,0.0,0.0,0.0,0.0,0.0,0.0,0.0,0.0,0.0,0.0,0.0,0.0,0.0,0.0,-0.983,0.0,0.0,0.0,0.0,0.0,0.0,0.0,0.0,0.0,0.0,0.0,0.0,0.0,0.0,0.0,0.0,0.0,0.0,0.0,0.0,0.0,0.0,0.0,0.0,0.0,0.0,0.0,0.0,0.0,0.0,0.0,0.0,0.0,0.0,0.0,0.0,0.0,0.0,0.0,0.0,0.0,0.0,0.0,0.0,0.0,0.0,0.0,0.0,0.0,0.0,0.0,0.0,0.0,0.0,0.0,0.0,0.0,0.0,0.0,-1.3278,-1.3016,-1.284,-1.2639,-1.2431,-1.2359,-1.2127,0.0,0.0,0.0,0.0,0.0,0.0,0.0,0.0,0.0,0.0,0.0,0.0,0.0,0.0,0.0,0.0,0.0,0.0,0.0,0.0,0.0,0.0,0.0,0.0,0.0,0.0,0.0,0.0,0.0,0.0,0.0,0.0,0.0,0.0,0.0,0.0,0.0,0.0,0.0,0.0,0.0,0.0,0.0,0.0,0.0,0.0,0.0,0.0,0.0,0.0,0.0,0.0,0.0,0.0,0.0,0.0,0.0,0.0,0.0,0.0,0.0,0.0,0.0,0.0,0.0,0.0,0.0,0.0,0.0,0.0,0.0,0.0,0.0,0.0,0.0,0.0,0.0,0.0,0.0,0.0,0.0,0.0,0.0,0.0,0.0,0.0,0.0,0.0,0.0,0.0,0.0,0.0,0.0,0.0,0.0,0.0,0.0,0.0,0.0,0.0,0.0,0.0,0.0,0.0,0.0,0.0,0.0,-1.2849,-1.3008,-1.2757,-1.2636,-1.2419,-1.2185,-1.2096,-1.2083,-1.2089,0.0,0.0,0.0,0.0,0.0,0.0,0.0,0.0,0.0,0.0,0.0,0.0,0.0,0.0,0.0,0.0,0.0,0.0,0.0,0.0,0.0,0.0,0.0,0.0,0.0,0.0,0.0,0.0,0.0,0.0,0.0,0.0,0.0,0.0,0.0,0.0,0.0,0.0,-0.98,-0.9708,0.0,0.0,0.0,0.0,0.0,0.0,0.0,0.0,-1.1991,0.0,0.0,0.0,0.0,0.0,0.0,0.0,0.0,0.0,0.0,0.0,0.0,0.0,0.0,0.0,0.0,0.0,0.0,0.0,0.0,0.0,0.0,0.0,0.0,0.0,0.0,0.0,0.0,0.0,0.0,0.0,0.0,0.0,0.0,0.0,0.0,0.0,0.0,0.0,0.0,0.0,0.0,0.0,0.0,0.0,0.0,0.0,0.0,0.0,0.0,0.0,0.0,0.0,0.0,0.0,0.0,-1.22,-1.2645,-1.2772,-1.2537,-1.2427,-1.2262,-1.2062,-1.197,-1.1869,-1.1745,0.0,0.0,0.0,0.0,0.0,0.0,0.0,0.0,0.0,0.0,0.0,0.0,0.0,0.0,0.0,0.0,0.0,0.0,0.0,0.0,0.0,0.0,0.0,0.0,0.0,0.0,0.0,0.0,0.0,0.0,0.0,0.0,0.0,0.0,0.0,0.0,0.0,0.0,0.0,-0.9614,-0.976,0.0,0.0,0.0,0.0,0.0,0.0,0.0,0.0,-1.2003,0.0,0.0,0.0,0.0,0.0,0.0,0.0,0.0,0.0,0.0,0.0,0.0,0.0,0.0,0.0,0.0,0.0,0.0,0.0,0.0,0.0,0.0,0.0,0.0,0.0,0.0,0.0,0.0,0.0,0.0,0.0,0.0,0.0,0.0,0.0,0.0,0.0,0.0,0.0,0.0,0.0,0.0,0.0,0.0,0.0,0.0,0.0,0.0,0.0,0.0,0.0,0.0,0.0,0.0,0.0,-1.2472,-1.2602,-1.2537,-1.2288,-1.2197,-1.2018,-1.1797,-1.1754,-1.1696,0.0,0.0,0.0,0.0,0.0,0.0,0.0,0.0,0.0,0.0,0.0,0.0,0.0,0.0,0.0,0.0,0.0,0.0,0.0,0.0,0.0,0.0,0.0,0.0,0.0,0.0,0.0,0.0,0.0,0.0,0.0,0.0,0.0,0.0,0.0,0.0,0.0,0.0,0.0,0.0,-1.0087,-1.0289,-1.1012,0.0,0.0,0.0,0.0,0.0,0.0,-1.3124,-1.3114,0.0,0.0,0.0,0.0,0.0,0.0,0.0,0.0,0.0,0.0,0.0,0.0,0.0,0.0,0.0,0.0,0.0,0.0,0.0,0.0,0.0,0.0,0.0,0.0,0.0,0.0,0.0,0.0,0.0,0.0,0.0,0.0,0.0,0.0,0.0,0.0,0.0,0.0,0.0,0.0,0.0,0.0,0.0,0.0,0.0,0.0,0.0,0.0,0.0,0.0,0.0,0.0,0.0,0.0,0.0,-1.2689,-1.2545,-1.2351,-1.2228,-1.203,-1.1865,-1.1732,-1.1608,-1.1467,0.0,0.0,0.0,0.0,0.0,0.0,0.0,0.0,0.0,0.0,0.0,0.0,0.0,0.0,0.0,0.0,0.0,0.0,0.0,0.0,0.0,0.0,0.0,0.0,0.0,0.0,0.0,0.0,0.0,0.0,0.0,0.0,0.0,0.0,0.0,0.0,0.0,0.0,0.0,0.0,0.0,-1.0992,-1.1702,-1.174,0.0,0.0,0.0,0.0,-1.423,-1.4328,0.0,0.0,0.0,0.0,0.0,0.0,0.0,0.0,0.0,0.0,0.0,0.0,0.0,0.0,0.0,0.0,0.0,0.0,0.0,0.0,0.0,0.0,0.0,0.0,0.0,0.0,0.0,0.0,0.0,0.0,0.0,0.0,0.0,0.0,0.0,0.0,0.0,0.0,0.0,0.0,0.0,0.0,0.0,0.0,0.0,0.0,0.0,0.0,0.0,0.0,0.0,0.0,0.0,0.0,0.0,0.0,-1.2473,-1.2276,-1.2291,-1.2567,-1.1978,-1.179,-1.2102,-1.1617,-1.1277,0.0,0.0,0.0,0.0,0.0,0.0,0.0,0.0,0.0,0.0,0.0,0.0,0.0,0.0,0.0,0.0,0.0,0.0,0.0,0.0,0.0,0.0,0.0,0.0,0.0,0.0,0.0,0.0,0.0,0.0,0.0,0.0,0.0,0.0,0.0,0.0,0.0,0.0,0.0,0.0,0.0,-1.1709,-1.2397,-1.2478,-1.3005,0.0,0.0,-1.4128,-1.509,-1.4706,0.0,0.0,0.0,0.0,0.0,0.0,0.0,0.0,0.0,0.0,0.0,0.0,0.0,0.0,0.0,0.0,0.0,0.0,0.0,0.0,0.0,0.0,0.0,0.0,0.0,0.0,0.0,0.0,0.0,0.0,0.0,0.0,0.0,0.0,0.0,0.0,0.0,0.0,0.0,0.0,0.0,0.0,0.0,0.0,0.0,0.0,0.0,0.0,0.0,0.0,0.0,0.0,0.0,0.0,0.0,-1.1105,-1.2206,-1.203,-1.2089,-1.2458,-1.2072,-1.1864,-1.1973,-1.1639,-1.128,0.0,0.0,0.0,0.0,0.0,0.0,0.0,0.0,0.0,0.0,0.0,0.0,0.0,0.0,0.0,0.0,0.0,0.0,0.0,0.0,0.0,0.0,0.0,0.0,0.0,0.0,0.0,0.0,0.0,0.0,0.0,0.0,0.0,0.0,0.0,0.0,0.0,0.0,0.0,0.0,0.0,0.0,-1.3754,-1.3867,0.0,0.0,0.0,-1.5386,-1.5877,0.0,0.0,0.0,0.0,0.0,0.0,0.0,0.0,0.0,0.0,0.0,0.0,0.0,0.0,0.0,0.0,0.0,0.0,0.0,0.0,0.0,0.0,0.0,0.0,0.0,0.0,0.0,0.0,0.0,0.0,0.0,0.0,0.0,0.0,0.0,0.0,0.0,0.0,0.0,0.0,0.0,0.0,0.0,0.0,0.0,0.0,0.0,0.0,0.0,0.0,0.0,0.0,0.0,0.0,0.0,0.0,0.0,-1.2001,-1.1947,-1.2099,-1.2417,-1.223,-1.2048,-1.1897,-1.1629,0.0,0.0,0.0,0.0,0.0,0.0,0.0,0.0,0.0,0.0,0.0,0.0,0.0,0.0,0.0,0.0,0.0,0.0,0.0,0.0,0.0,0.0,0.0,0.0,0.0,0.0,0.0,-0.5966,0.0,0.0,0.0,0.0,0.0,0.0,0.0,0.0,0.0,0.0,0.0,0.0,0.0,0.0,-1.3712,-1.4984,-1.5107,-1.5349,0.0,0.0,-1.6289,-1.6658,-1.6255,-1.5921,0.0,0.0,0.0,0.0,0.0,0.0,0.0,0.0,0.0,0.0,0.0,0.0,0.0,0.0,0.0,0.0,0.0,0.0,0.0,0.0,0.0,0.0,0.0,0.0,0.0,0.0,0.0,0.0,0.0,0.0,0.0,0.0,0.0,0.0,0.0,0.0,0.0,0.0,0.0,0.0,0.0,0.0,0.0,0.0,0.0,0.0,0.0,0.0,0.0,0.0,0.0,0.0,0.0,0.0,0.0,-1.1804,-1.2121,-1.2453,-1.2815,-1.2602,-1.2358,-1.2166,-1.1505,-1.0827,0.0,0.0,0.0,0.0,0.0,0.0,0.0,0.0,0.0,0.0,0.0,0.0,0.0,0.0,0.0,0.0,0.0,0.0,0.0,0.0,0.0,0.0,0.0,0.0,0.0,0.0,0.0,0.0,0.0,0.0,0.0,0.0,0.0,0.0,0.0,0.0,0.0,0.0,0.0,0.0,0.0,-1.5035,-1.5836,-1.5795,-1.6081,0.0,-1.6588,-1.6439,-1.7458,-1.7043,-1.6684,-1.6877,0.0,0.0,0.0,0.0,0.0,0.0,0.0,0.0,0.0,0.0,0.0,0.0,0.0,0.0,0.0,0.0,0.0,0.0,0.0,0.0,0.0,0.0,0.0,0.0,0.0,0.0,0.0,0.0,0.0,0.0,0.0,0.0,0.0,0.0,0.0,0.0,0.0,0.0,0.0,0.0,0.0,0.0,0.0,0.0,0.0,0.0,0.0,0.0,0.0,0.0,0.0,0.0,0.0,-1.1022,-1.149,-1.1773,-1.2104,-1.2497,-1.2585,-1.2406,-1.19,-1.1502,-1.0794,0.0,0.0,0.0,0.0,0.0,0.0,0.0,0.0,0.0,0.0,0.0,0.0,0.0,0.0,0.0,0.0,0.0,0.0,0.0,0.0,0.0,0.0,0.0,0.0,0.0,0.0,0.0,0.0,-0.8078,-0.8446,-0.878,0.0,0.0,0.0,0.0,0.0,0.0,0.0,0.0,0.0,0.0,-1.5782,-1.6456,-1.6518,0.0,0.0,-1.7646,-1.7631,-1.8163,-1.7758,-1.7427,-1.7595,-1.7096,0.0,0.0,0.0,0.0,0.0,0.0,0.0,0.0,0.0,0.0,0.0,0.0,0.0,0.0,0.0,0.0,0.0,0.0,0.0,0.0,0.0,0.0,0.0,0.0,0.0,0.0,0.0,0.0,0.0,0.0,0.0,0.0,0.0,0.0,0.0,0.0,0.0,0.0,0.0,0.0,0.0,0.0,0.0,0.0,0.0,0.0,0.0,0.0,0.0,0.0,0.0,0.0,-1.0893,-1.1169,-1.1612,-1.1945,-1.2168,-1.2613,-1.2418,-1.1563,-1.1333,-1.0682,0.0,0.0,0.0,0.0,0.0,0.0,0.0,0.0,0.0,0.0,0.0,0.0,0.0,0.0,0.0,0.0,0.0,0.0,0.0,0.0,0.0,0.0,0.0,0.0,0.0,0.0,0.0,0.0,-0.8088,-0.844,-0.8969,0.0,0.0,0.0,0.0,0.0,0.0,0.0,0.0,0.0,0.0,-1.6407,-1.7062,-1.7165,-1.7394,-1.8061,-1.821,-1.8336,-1.8554,-1.8315,-1.8165,-1.8322,0.0,0.0,0.0,0.0,0.0,0.0,0.0,0.0,0.0,0.0,0.0,0.0,0.0,0.0,0.0,0.0,0.0,0.0,0.0,0.0,0.0,0.0,0.0,0.0,0.0,0.0,0.0,-1.1751,0.0,0.0,-1.1697,0.0,0.0,0.0,0.0,0.0,0.0,0.0,0.0,0.0,0.0,0.0,0.0,0.0,0.0,0.0,0.0,0.0,0.0,0.0,0.0,0.0,0.0,-1.1048,-1.0835,-1.1696,-1.2097,-1.1942,-1.2675,-1.2442,-1.1155,-1.0976,-1.0338,-0.9137,0.0,0.0,0.0,0.0,0.0,0.0,0.0,0.0,0.0,0.0,0.0,0.0,0.0,0.0,0.0,0.0,0.0,0.0,0.0,0.0,0.0,0.0,0.0,0.0,0.0,0.0,-0.7629,-0.8059,-0.8653,0.0,0.0,0.0,0.0,0.0,0.0,0.0,0.0,0.0,0.0,-1.6248,-1.6931,-1.7667,-1.7777,-1.7833,-1.8,-1.8134,-1.8303,-1.8535,-1.8694,-1.8861,0.0,0.0,0.0,0.0,0.0,0.0,0.0,0.0,0.0,0.0,0.0,0.0,0.0,0.0,0.0,0.0,0.0,0.0,0.0,0.0,0.0,0.0,0.0,0.0,0.0,0.0,0.0,-1.1452,-1.1065,0.0,0.0,0.0,0.0,0.0,0.0,0.0,0.0,0.0,0.0,0.0,-1.0615,-1.0794,0.0,0.0,0.0,0.0,0.0,0.0,0.0,0.0,0.0,0.0,0.0,0.0,-1.0852,-1.0959,-1.1496,-1.1878,-1.2052,-1.2466,-1.2117,-1.0924,-1.07,-0.9828,-0.8271,0.0,0.0,0.0,0.0,0.0,0.0,0.0,0.0,0.0,0.0,0.0,0.0,0.0,0.0,0.0,0.0,0.0,0.0,0.0,0.0,0.0,0.0,0.0,0.0,0.0,-0.6975,0.0,0.0,0.0,0.0,0.0,0.0,0.0,0.0,0.0,0.0,0.0,-1.539,-1.6068,-1.6753,-1.7274,-1.7562,-1.8031,-1.8388,0.0,0.0,0.0,0.0,0.0,0.0,0.0,0.0,0.0,0.0,0.0,0.0,0.0,0.0,-1.751,-1.6864,-1.6737,-1.6742,-1.6788,0.0,0.0,0.0,0.0,0.0,0.0,0.0,0.0,0.0,0.0,0.0,0.0,0.0,0.0,-1.1944,-1.149,-1.1469,0.0,0.0,0.0,0.0,0.0,0.0,0.0,0.0,-1.1446,-1.1223,-1.11,-1.1094,-1.1063,0.0,-1.0738,-1.0165,0.0,0.0,0.0,0.0,0.0,0.0,0.0,0.0,-1.0814,-1.1137,-1.1526,-1.1782,-1.1877,-1.2194,-1.1891,-1.0854,-1.0245,-0.9277,-0.7827,-0.7453,-0.7027,0.0,0.0,0.0,0.0,0.0,0.0,0.0,0.0,0.0,0.0,0.0,0.0,0.0,0.0,0.0,0.0,0.0,0.0,0.0,0.0,0.0,0.0,0.0,-0.7202,0.0,0.0,0.0,0.0,0.0,0.0,0.0,0.0,0.0,-1.4842,-1.5286,-1.5723,-1.61,-1.6781,-1.7338,-1.7675,0.0,0.0,0.0,0.0,0.0,0.0,0.0,-2.078,-2.0863,-2.0974,-2.1008,-2.0707,-2.038,-2.0031,-1.9615,0.0,0.0,-1.7604,-1.7406,-1.7425,-1.7517,-1.7532,-1.7546,-1.7623,-1.7617,-1.7742,0.0,0.0,0.0,0.0,0.0,0.0,0.0,0.0,-1.3351,-1.3114,0.0,-1.2903,0.0,0.0,0.0,0.0,-1.2163,-1.1829,0.0,0.0,-1.0947,-1.0772,-1.0567,-1.054,-1.0587,-1.0634,-1.0474,-1.0451,-1.0447,-1.0078,0.0,0.0,0.0,0.0,0.0,0.0,-1.1023,-1.1394,-1.1703,-1.1772,-1.1552,-1.1884,-1.1676,-1.0875,-0.9707,-0.8685,-0.7776,-0.7702,-0.7292,-0.6463,-0.6388,0.0,0.0,0.0,0.0,0.0,0.0,0.0,0.0,0.0,0.0,0.0,0.0,0.0,0.0,0.0,0.0,0.0,0.0,0.0,0.0,-0.6953,0.0,0.0,0.0,0.0,0.0,0.0,0.0,0.0,0.0,0.0,-1.4656,-1.5384,-1.5879,-1.579,0.0,0.0,0.0,0.0,-1.8765,-1.9624,-1.9924,-2.012,-2.0271,-2.0482,-2.0622,-2.0697,0.0,0.0,-2.1274,-2.1347,-2.1397,-2.1633,-2.097,-1.9862,-1.7804,-1.7433,-1.7403,-1.7514,-1.7583,-1.7519,-1.7577,-1.7757,-1.7964,-1.1182,0.0,0.0,0.0,0.0,-1.249,-1.247,-1.2241,-1.2509,-1.2315,-1.1825,-1.1867,0.0,0.0,0.0,0.0,0.0,0.0,-1.1408,-1.1548,-1.1341,-1.1245,-1.1212,-1.1212,-1.1201,-1.1236,-1.0829,-1.063,-1.063,-1.0206,-1.007,-1.0343,0.0,0.0,0.0,0.0,-1.121,-1.1571,-1.1607,-1.172,-1.1919,-1.1793,-1.1193,-1.007,-0.9398,-0.874,-0.8067,-0.7728,-0.731,-0.6719,-0.6407,0.0,0.0,0.0,0.0,0.0,0.0,0.0,0.0,0.0,0.0,0.0,0.0,0.0,0.0,0.0,0.0,0.0,0.0,0.0,-0.7013,-0.7354,-0.7817,0.0,0.0,0.0,0.0,0.0,0.0,0.0,0.0,0.0,-1.6355,-1.6223,-1.6327,0.0,0.0,-1.8121,-1.8529,-1.9171,-1.9797,-2.0281,-2.0953,0.0,-2.1678,-2.1857,-2.2031,-2.209,-2.1836,-2.1655,-2.1768,-2.1467,-2.1247,-2.1401,-2.1231,-2.0889,-2.0433,-1.9507,-1.8927,-1.9011,-1.9039,-1.9075,-1.9179,-1.9212,-1.929,-1.0558,-1.077,-1.0893,-1.1166,-1.1492,-1.1801,-1.1838,-1.1749,-1.1977,-1.1834,-1.1378,-1.145,-1.1417,-1.1318,-1.145,0.0,0.0,0.0,-1.1543,-1.1823,-1.1724,-1.1736,-1.1773,-1.1596,-1.1506,-1.1484,-1.102,-1.0796,-1.0879,-1.0524,-1.05,-1.073,0.0,0.0,-1.0876,-1.1081,-1.1399,-1.1831,-1.1745,-1.172,-1.1859,-1.1569,-1.0918,-0.9922,-0.9432,-0.8911,-0.8372,-0.7888,-0.7476,-0.7061,-0.6637,-0.6127,0.0,0.0,0.0,0.0,0.0,0.0,0.0,0.0,0.0,0.0,0.0,-0.5136,-0.5612,0.0,0.0,0.0,-0.6528,-0.6937,-0.724,-0.7713,0.0,0.0,0.0,0.0,0.0,0.0,0.0,-1.4723,-1.5745,-1.656,-1.7008,-1.7159,-1.7334,-1.7629,-1.806,-1.8516,-1.9073,0.0,-2.0269,-2.0814,-2.1491,-2.1986,-2.2126,-2.2341,-2.2542,-2.2632,-2.2418,-2.2256,-2.2328,-2.2074,-2.1914,-2.2019,-2.1852,-2.1691,-2.1909,-2.1015,-2.0278,-2.0491,-2.0535,-2.0574,-2.067,-2.0742,-2.0784,-1.0372,-1.0436,-1.0491,-1.0784,-1.127,-1.127,-1.147,-1.1775,-1.178,-1.162,-1.1351,-1.154,-1.1545,-1.1357,-1.155,0.0,-1.1636,-1.1794,-1.1795,-1.1811,-1.2084,-1.2189,-1.2174,-1.1721,-1.1522,-1.1516,-1.116,-1.104,-1.1166,-1.104,-1.104,-1.1133,-1.0632,-1.0637,-1.1171,-1.128,-1.1583,-1.2071,-1.192,-1.1743,-1.1485,-1.1233,-1.0782,-1.0216,-0.9668,-0.9131,-0.8606,-0.8168,-0.7731,-0.7393,-0.6986,-0.638,-0.556,0.0,0.0,0.0,0.0,0.0,0.0,0.0,0.0,0.0,0.0,0.0,0.0,0.0,0.0,0.0,-0.7039,0.0,-0.7543,-0.8185,0.0,0.0,0.0,-1.1406,-1.2292,-1.3627,-1.46,-1.4967,0.0,0.0,-1.7007,-1.8072,-1.8654,-1.8278,-1.8298,-1.8694,-1.9617,-1.9925,-2.0381,-2.1225,-2.1593,-2.1773,-2.1899,-2.2135,-2.2366,-2.2525,-2.2649,-2.2695,-2.2807,-2.2875,-2.3026,-2.3126,-2.2655,-2.2255,-2.2506,-2.1956,-2.1571,-2.188,-2.1801,-2.1749,-2.1772,-2.1851,-2.1908,-0.9644,-0.9757,-0.9758,-1.0245,-1.106,-1.106,-1.1235,-1.1489,-1.1578,-1.1583,-1.1541,-1.1677,-1.1756,-1.1845,-1.1892,-1.198,-1.2032,-1.1963,-1.193,-1.1945,-1.1971,-1.1989,-1.1979,-1.1873,-1.1827,-1.1774,-1.1706,-1.1656,-1.1698,-1.1661,-1.1666,-1.1698,-1.1598,-1.1475,-1.138,-1.1505,-1.167,-1.1782,-1.166,-1.148,-1.1195,-1.1018,-1.0692,-1.0154,-0.9609,-0.9086,-0.8606,-0.8163,-0.7731,-0.734,-0.7213,-0.6645,-0.5565,-0.5816,0.0,0.0,0.0,0.0,0.0,0.0,0.0,0.0,0.0,-0.5696,-0.5767,0.0,-0.6183,0.0,-0.7087,-0.8162,-0.851,-0.9298,0.0,0.0,-1.1542,-1.2375,-1.3192,-1.3835,-1.4631,-1.5784,-1.6786,-1.7612,-1.8149,-1.8922,-1.9469,-1.9416,-1.947,-1.971,-2.0193,-2.0424,-2.0678,-2.115,-2.1402,-2.157,-2.1781,-2.2086,-2.2293,-2.2358,-2.246,-2.2579,-2.2703,-2.2747,-2.2851,-2.3045,-2.293,-2.2863,-2.3035,-2.2948,-2.2901,-2.3031,-2.2368,-2.1679,-2.1791,-2.1884,-2.1905,-0.9478,-0.9531,-0.9583,-0.9963,-1.0552,-1.0536,-1.0705,-1.0945,-1.1034,-1.1079,-1.1172,-1.1348,-1.1475,-1.1611,-1.166,-1.1752,-1.1902,-1.1955,-1.1995,-1.2009,-1.2111,-1.2163,-1.2153,-1.1958,-1.187,-1.195,-1.1773,-1.1723,-1.1815,-1.1815,-1.1854,-1.1897,-1.1935,-1.1858,-1.1661,-1.1676,-1.1627,-1.1448,-1.1244,-1.1088,-1.1023,-1.0855,-1.0586,-1.0235,-0.9607,-0.9121,-0.8773,-0.8128,-0.7746,-0.7525,-0.7362,-0.7067,-0.6592,-0.6414,-0.6247,0.0,0.0,0.0,0.0,0.0,0.0,0.0,0.0,0.0,0.0,0.0,-0.6661,-0.6467,-0.8257,-0.9388,-0.9249,-1.0175,-1.0966,-1.1428,-1.2212,-1.3028,-1.3871,-1.4469,-1.526,-1.6427,-1.7308,-1.8027,-1.848,-1.9179,-1.9669,-1.9726,-1.9841,-2.0033,-2.0304,-2.0543,-2.0793,-2.0966,-2.1214,-2.1464,-2.1759,-2.1945,-2.2106,-2.2155,-2.2313,-2.2432,-2.2497,-2.256,-2.265,-2.2833,-2.2859,-2.2936,-2.3111,-2.316,-2.3241,-2.33,-2.2887,-2.249,-2.2645,-2.2731,-2.2776,-0.9566,-0.9562,-0.9688,-0.9799,-0.9898,-0.9927,-1.009,-1.0434,-1.0434,-1.0525,-1.0667,-1.0881,-1.1017,-1.1197,-1.1292,-1.1426,-1.1589,-1.1904,-1.2029,-1.2048,-1.231,-1.248,-1.2456,-1.2058,-1.1926,-1.2062,-1.1712,-1.1615,-1.1787,-1.1837,-1.1886,-1.1974,-1.2033,-1.2032,-1.2039,-1.1886,-1.1555,-1.1145,-1.0838,-1.072,-1.0845,-1.0659,-1.0539,-1.0389,-0.964,-0.9165,-0.8984,-0.8237,-0.7778,-0.7763,-0.7479,-0.7435,-0.7824,-0.7116,-0.6714,0.0,-0.6778,0.0,0.0,0.0,0.0,0.0,0.0,0.0,0.0,-0.7001,-0.7219,-0.7738,-0.9775,-1.0768,-0.9945,-1.0926,-1.1717,-1.1966,-1.2742,-1.3632,-1.4394,-1.5258,-1.6114,-1.6977,-1.7746,-1.8272,-1.8495,-1.9146,-1.9603,-1.9654,-1.9777,-1.9919,-2.02,-2.0449,-2.0685,-2.0753,-2.1095,-2.1402,-2.1639,-2.1768,-2.1857,-2.1978,-2.2118,-2.2282,-2.2319,-2.2422,-2.2506,-2.2649,-2.2694,-2.2738,-2.291,-2.2961,-2.3045,-2.3199,-2.3168,-2.325,-2.357,-2.3726,-2.3955,-0.926,-0.926,-0.9316,-0.9368,-0.951,-0.9537,-0.9903,-1.0469,-1.0573,-1.0764,-1.1012,-1.1152,-1.1349,-1.1603,-1.1603,-1.1749,-1.2002,-1.2071,-1.2059,-1.2064,-1.2143,-1.2229,-1.2323,-1.2244,-1.226,-1.2401,-1.2325,-1.2344,-1.2344,-1.244,-1.2536,-1.2541,-1.2637,-1.2602,-1.2352,0.0,0.0,0.0,-1.0847,-1.0616,-1.0649,-1.0534,-1.0418,-1.0413,-0.9817,0.0,-0.9009,-0.852,-0.8096,-0.7754,-0.7646,0.0,0.0,0.0,0.0,0.0,0.0,0.0,0.0,0.0,0.0,0.0,-0.7251,-0.7106,-0.686,-0.6944,-0.764,-0.9148,-1.0379,-1.1015,-1.0804,-1.1653,-1.2285,-1.2412,-1.3531,-1.4503,-1.4951,-1.5723,-1.6528,-1.7381,-1.7921,-1.8397,-1.887,-1.9273,-1.9494,-1.956,-1.9669,-1.9769,-1.9884,-2.02,-2.0475,-2.0769,-2.1087,-2.1309,-2.1402,-2.1601,-2.1789,-2.184,-2.194,-2.211,-2.2237,-2.231,-2.2394,-2.2523,-2.2525,-2.2587,-2.2738,-2.2756,-2.2816,-2.3003,-2.307,-2.3168,-2.3476,-2.3665,-2.3765,-0.889,-0.8893,-0.9054,-0.9162,0.0,-0.9256,-0.9524,-0.9895,-1.015,-1.0415,-1.0722,-1.0871,-1.107,-1.1331,-1.1326,-1.1423,-1.1673,-1.1728,-1.1719,-1.1823,-1.1778,-1.1868,-1.2026,-1.2022,-1.2067,-1.218,-1.2278,-1.2328,-1.2426,-1.2529,-1.2578,-1.2583,-1.2676,-1.2624,-1.2454,-1.2245,-1.1851,-1.1287,-1.095,-1.0686,-1.0515,-1.0385,-1.0351,-1.0341,-0.9853,0.0,0.0,0.0,0.0,0.0,0.0,0.0,0.0,0.0,0.0,-0.7465,-0.7283,-0.7215,-0.7241,-0.7437,-0.7723,-0.795,-0.8237,-0.8263,-0.7965,-0.7792,-0.8339,-0.9903,-1.0969,-1.1556,-1.1481,-1.2356,-1.3,-1.3273,-1.4223,-1.5054,-1.5627,-1.6255,-1.6944,-1.7657,-1.8108,-1.8507,-1.8853,-1.9108,-1.9258,-1.9339,-1.9523,-1.9661,-1.9769,-2.0053,-2.0441,-2.0728,-2.0925,-2.1127,-2.1277,-2.1402,-2.1609,-2.167,-2.1819,-2.1936,-2.2049,-2.2098,-2.222,-2.2349,-2.2396,-2.2432,-2.256,-2.2623,-2.2649,-2.2764,-2.2833,-2.291,-2.3119,-2.3327,-2.3522,-0.8573,-0.8573,-0.8801,-0.8903,-0.89,-0.9005,-0.9054,-0.9106,-0.9524,0.0,0.0,-1.0312,-1.0518,-1.0773,-1.0769,-1.0918,-1.1175,-1.1171,-1.1276,-1.1372,-1.1372,-1.1469,-1.1578,-1.1623,-1.1719,-1.1828,-1.1972,-1.2076,-1.2175,-1.2328,-1.2426,-1.2426,-1.2475,-1.2485,-1.2452,-1.213,-1.1722,-1.1318,-1.1001,-1.0732,-1.0469,-1.0356,-1.0322,-1.0322,-0.9937,-0.9675,-0.9592,-0.8936,-0.8537,-0.8454,-0.8083,-0.7864,-0.7859,-0.7869,-0.7929,-0.8019,-0.8004,-0.799,-0.8074,-0.8443,-0.868,-0.8675,-0.9215,-0.9442,-0.9229,-0.8861,-0.9145,-1.0347,-1.1628,-1.2286,-1.208,-1.2992,-1.3739,-1.4057,-1.474,-1.5511,-1.6192,-1.6784,-1.7293,-1.7866,-1.8219,-1.8517,-1.8666,-1.8889,-1.9071,-1.9139,-1.9339,-1.9567,-1.9718,-2.0053,-2.0407,-2.0636,-2.0777,-2.0885,-2.1111,-2.1246,-2.1356,-2.1511,-2.1656,-2.173,-2.1819,-2.189,-2.2015,-2.22,-2.2237,-2.2285,-2.2396,-2.2451,-2.2487,-2.2552,-2.2597,-2.2677,-2.2756,-2.2986,-2.3184,-0.8424,-0.8421,-0.848,-0.848,-0.8477,-0.8471,-0.858,-0.8732,-0.926,-0.9469,-0.9517,-0.9792,-1.0003,-1.0154,-1.0312,-1.0474,-1.062,-1.0714,-1.0773,-1.082,-1.0926,-1.107,-1.1179,-1.1272,-1.1423,-1.1573,-1.1723,-1.1778,-1.1773,-1.1927,-1.2026,-1.217,-1.2283,-1.2382,-1.2475,-1.2423,-1.2153,-1.1716,-1.1075,-1.0714,-1.0647,-1.0419,-1.0322,-1.0278,-1.022,-0.9982,-0.9512,-0.9377,-0.913,-0.8678,-0.8603,-0.8574,-0.8569,-0.855,-0.8569,-0.8598,-0.8661,-0.8651,-0.8675,-0.8843,-0.8969,-0.9055,-0.9636,-0.9882,-0.9634,-0.9616,-0.9933,-1.0716,-1.2319,-1.3168,-1.2825,-1.3509,-1.4129,-1.4298,-1.5076,-1.5786,-1.6189,-1.6881,-1.7436,-1.7855,-1.8109,-1.8321,-1.8471,-1.868,-1.8851,-1.9026,-1.9146,-1.9288,-1.9654,-2.0053,-2.0304,-2.0415,-2.0585,-2.0736,-2.086,-2.1023,-2.1151,-2.1325,-2.1402,-2.154,-2.1738,-2.1773,-2.1869,-2.2007,-2.2052,-2.211,-2.222,-2.2293,-2.2358,-2.2396,-2.2487,-2.2542,-2.2614,-2.2677,-2.2782,-0.7996,-0.8046,-0.8096,-0.8206,-0.8268,-0.8374,-0.8424,-0.8524,-0.8738,-0.8995,-0.9215,-0.9375,-0.9528,-0.9681,-0.9781,-0.9892,-1.0102,-1.0154,-1.0312,-1.047,-1.0514,-1.0675,-1.0773,-1.0922,-1.1019,-1.107,-1.1276,-1.1372,-1.1427,-1.1573,-1.1723,-1.1778,-1.1927,-1.2022,-1.2081,-1.2076,-1.1926,-1.1739,-1.1439,-1.1084,-1.0679,-1.0524,-1.0363,-1.0147,-1.0132,-1.0012,-0.9782,-0.9511,-0.9265,-0.9054,-0.8823,-0.8715,-0.8715,-0.8715,-0.8715,-0.8705,-0.8723,-0.8742,-0.8765,-0.9084,-0.9417,-0.9772,-1.0091,-1.0289,-1.0309,-1.0365,-1.0734,-1.1491,-1.2618,-1.3227,-1.314,-1.3854,-1.4405,-1.4588,-1.5385,-1.6006,-1.6331,-1.678,-1.7218,-1.7502,-1.7693,-1.7902,-1.8149,-1.8314,-1.851,-1.8736,-1.8957,-1.9176,-1.9442,-1.9726,-1.9998,-2.0166,-2.0331,-2.0501,-2.0636,-2.0802,-2.095,-2.1071,-2.1206,-2.134,-2.1495,-2.154,-2.1661,-2.1802,-2.1861,-2.1928,-2.2015,-2.2081,-2.2147,-2.2175,-2.2276,-2.2332,-2.2388,-2.2443,-2.2587,-0.7619,-0.7673,-0.7774,-0.7886,-0.8055,-0.8159,-0.8215,-0.8212,-0.8206,-0.8421,-0.8685,-0.8952,-0.9155,-0.9263,-0.9263,-0.9424,-0.964,-0.9684,-0.9844,-1.0051,-1.0102,-1.0205,-1.0312,-1.0462,-1.0561,-1.062,-1.0871,-1.0968,-1.1023,-1.1221,-1.1322,-1.1423,-1.1528,-1.1628,-1.1623,-1.1623,-1.1619,-1.1656,-1.1707,-1.1389,-1.0774,-1.0705,-1.0502,-1.0115,-1.0082,-1.0045,-0.9902,-0.9544,-0.9333,-0.9282,-0.9004,-0.8836,-0.8832,-0.8841,-0.8836,-0.8854,-0.8893,-0.8939,-0.9024,-0.9391,-0.9852,-1.0278,-1.0464,-1.0646,-1.0816,-1.0894,-1.1216,-1.1985,-1.2724,-1.3296,-1.3502,-1.4075,-1.4589,-1.4959,-1.5528,-1.599,-1.6337,-1.6607,-1.6876,-1.7073,-1.7288,-1.7488,-1.774,-1.7956,-1.8142,-1.8457,-1.8767,-1.9078,-1.9235,-1.9391,-1.9596,-1.9869,-2.008,-2.022,-2.0392,-2.0561,-2.0687,-2.0771,-2.0966,-2.1135,-2.1254,-2.1309,-2.1417,-2.157,-2.1661,-2.173,-2.1802,-2.189,-2.192,-2.1957,-2.2044,-2.2118,-2.2183,-2.2248,-2.2388,-0.7424,-0.7518,-0.7538,-0.7518,-0.7591,-0.7589,-0.7594,-0.7642,-0.7729,-0.7777,-0.7898,-0.8418,-0.8738,-0.8857,-0.8959,-0.9113,-0.9263,-0.9364,-0.9469,-0.9521,-0.9618,-0.9729,-0.9844,-1.0003,-1.0154,-1.0316,-1.047,-1.062,-1.0718,-1.0769,-1.0922,-1.1124,-1.1272,-1.1322,-1.1326,-1.1322,-1.1372,-1.1528,-1.1538,-1.1412,-1.1178,-1.1003,-1.0753,-1.0377,-1.0359,-1.0159,-0.9764,-0.9584,-0.9424,-0.9306,-0.9261,-0.9239,-0.9239,-0.9243,-0.9248,-0.9234,-0.9479,-0.9667,-0.9857,-0.9973,-1.0074,-1.0151,-1.0671,-1.1008,-1.1054,-1.0972,-1.1149,-1.1843,-1.3072,-1.3753,-1.3718,-1.4255,-1.4722,-1.4976,-1.532,-1.5691,-1.5994,-1.6175,-1.6448,-1.6876,-1.6918,-1.7086,-1.7441,-1.7605,-1.7808,-1.8233,-1.8535,-1.8781,-1.8927,-1.9085,-1.9191,-1.9398,-1.9617,-1.9904,-2.0108,-2.0262,-2.0399,-2.052,-2.0687,-2.0893,-2.103,-2.1135,-2.1254,-2.1355,-2.1417,-2.1487,-2.1595,-2.1686,-2.17,-2.1721,-2.184,-2.1957,-2.1998,-2.2036,-2.215,-0.7333,-0.7385,-0.7385,-0.7445,-0.7507,-0.7562,-0.7619,-0.7608,-0.758,-0.7575,-0.7657,-0.7802,-0.8058,-0.8431,-0.859,-0.8742,-0.8844,-0.8893,-0.9001,-0.9162,-0.9208,-0.9319,-0.9424,-0.9577,-0.9681,-0.9784,-1.0003,-1.0106,-1.0209,-1.0364,-1.0569,-1.0718,-1.0773,-1.0875,-1.0918,-1.0972,-1.1023,-1.1129,-1.1175,-1.1094,-1.1019,-1.1062,-1.0849,-1.0505,-1.0218,-1.0024,-0.9811,-0.9542,-0.9328,-0.9248,-0.9248,-0.9208,-0.9132,-0.9132,-0.9172,-0.9252,-0.9368,-0.9585,-0.9797,-0.9832,-1.0005,-1.0357,-1.0709,-1.1042,-1.1289,-1.1316,-1.1563,-1.2231,-1.3144,-1.3779,-1.3909,-1.4275,-1.4605,-1.48,-1.5011,-1.5277,-1.5641,-1.5736,-1.5963,-1.6411,-1.6497,-1.6669,-1.7067,-1.7358,-1.7605,-1.7915,-1.8214,-1.8425,-1.8567,-1.8728,-1.8889,-1.8981,-1.9199,-1.9501,-1.979,-2.0025,-2.0131,-2.0254,-2.0426,-2.061,-2.0695,-2.0843,-2.0933,-2.1071,-2.1166,-2.1246,-2.1325,-2.1419,-2.1464,-2.1518,-2.1625,-2.1746,-2.1819,-2.1811,-2.1899,-0.7138,-0.7138,-0.72,-0.72,-0.7327,-0.7441,-0.7436,-0.7423,-0.7325,-0.7336,-0.7367,-0.732,-0.7478,-0.7851,-0.8106,-0.8315,-0.8471,-0.8468,-0.8633,-0.8847,-0.885,-0.8893,-0.905,-0.9099,-0.9204,-0.9312,-0.948,-0.964,-0.9692,-0.9943,-1.0154,-1.0257,-1.0308,-1.0364,-1.047,-1.0462,-1.0569,-1.0726,-1.0726,-1.0773,-1.0783,-1.0863,-1.0789,-1.0501,-1.0218,-1.0026,-0.9904,-0.9484,-0.9239,-0.9211,-0.9112,-0.9011,-0.8935,-0.8931,-0.8975,-0.9096,-0.9172,-0.9328,-0.9554,-0.9766,-1.0036,-1.0498,-1.0847,-1.1247,-1.1586,-1.1851,-1.2202,-1.2642,-1.3172,-1.353,-1.3868,-1.4051,-1.4233,-1.4477,-1.4651,-1.492,-1.5244,-1.5328,-1.5558,-1.5925,-1.605,-1.6244,-1.6663,-1.7073,-1.7352,-1.7503,-1.7808,-1.8062,-1.8161,-1.8372,-1.8595,-1.8651,-1.8836,-1.9131,-1.9508,-1.9756,-1.9891,-1.999,-2.0138,-2.0304,-2.0357,-2.0467,-2.061,-2.0786,-2.0885,-2.099,-2.1063,-2.1159,-2.1246,-2.134,-2.1411,-2.152,-2.1565,-2.1587,-2.1617,-0.6664,-0.6801,-0.6858,-0.6875,-0.6801,-0.6873,-0.6865,-0.6891,-0.6964,-0.6902,-0.681,-0.7025,-0.7131,-0.7058,-0.7467,-0.7889,-0.8165,-0.8165,-0.8265,-0.8424,-0.8424,-0.8524,-0.8626,-0.8626,-0.8791,-0.8956,-0.9008,-0.9162,-0.942,-0.9566,-0.9614,-0.9666,-0.9788,-0.9851,-0.9903,-0.9999,-1.0154,-1.0312,-1.032,-1.0364,-1.0466,-1.0494,-1.0506,-1.0439,-1.0473,-1.0271,-0.9897,-0.9441,-0.9208,-0.9199,-0.889,-0.8741,-0.8732,-0.8724,-0.8773,-0.8911,-0.8997,-0.9073,-0.9336,-0.9873,-1.0294,-1.0439,-1.1196,-1.1776,-1.1953,-1.2401,-1.2763,-1.3035,-1.2992,-1.3162,-1.3525,-1.3663,-1.3852,-1.414,-1.4321,-1.4507,-1.4702,-1.4971,-1.5204,-1.5474,-1.5659,-1.5887,-1.62,-1.6626,-1.6899,-1.7047,-1.7338,-1.755,-1.7713,-1.7975,-1.8189,-1.8268,-1.8503,-1.8858,-1.9221,-1.9465,-1.9574,-1.9676,-1.9812,-1.999,-2.0053,-2.0158,-2.0323,-2.046,-2.0486,-2.0587,-2.0761,-2.0893,-2.099,-2.1087,-2.1167,-2.127,-2.1277,-2.1317,-2.134,-0.648,-0.6546,-0.6669,-0.6733,-0.6733,-0.6801,-0.6867,-0.6856,-0.6786,-0.6757,-0.6713,-0.666,-0.666,-0.6796,-0.682,-0.7141,-0.7583,-0.7684,-0.7836,-0.7937,-0.794,-0.8043,-0.814,-0.814,-0.8256,-0.848,-0.859,-0.8745,-0.9008,-0.9054,-0.9162,-0.9211,-0.9263,-0.9372,-0.9528,-0.9629,-0.9681,-0.9829,-0.9829,-0.9884,-0.9936,-0.9999,-1.0045,-1.0078,-1.0102,-1.0072,-0.9886,-0.9498,-0.9219,-0.9211,-0.8893,-0.866,-0.8582,-0.8439,-0.8451,-0.8565,-0.8873,-0.9165,-0.946,-0.9887,-1.0414,-1.0922,-1.1355,-1.176,-1.219,-1.2585,-1.2881,-1.2779,-1.2832,-1.3017,-1.3152,-1.3329,-1.3563,-1.3758,-1.3952,-1.414,-1.4368,-1.4553,-1.4743,-1.4971,-1.5289,-1.5608,-1.5792,-1.6188,-1.6479,-1.6576,-1.6879,-1.7102,-1.7262,-1.7516,-1.7774,-1.7814,-1.8055,-1.8326,-1.8542,-1.8979,-1.9212,-1.9317,-1.9457,-1.956,-1.9669,-1.9797,-1.9932,-2.0123,-2.015,-2.0254,-2.0426,-2.0595,-2.0695,-2.0802,-2.0916,-2.0941,-2.099,-2.099,-2.099,-0.615,-0.6148,-0.6346,-0.648,-0.641,-0.6552,-0.6552,-0.6601,-0.6477,-0.6519,-0.6545,-0.6377,-0.6431,-0.6521,-0.6384,-0.6554,-0.6882,-0.7195,-0.7408,-0.7512,-0.7509,-0.7557,-0.7664,-0.7667,-0.7833,-0.8002,-0.8153,-0.8368,-0.848,-0.8593,-0.8646,-0.8748,-0.8847,-0.8945,-0.9152,-0.9152,-0.9263,-0.9309,-0.9361,-0.9417,-0.9413,-0.9528,-0.9587,-0.9607,-0.9663,-0.9746,-0.9891,-0.9579,-0.9345,-0.9248,-0.8974,-0.8748,-0.8669,-0.8534,-0.8497,-0.8653,-0.8981,-0.9286,-0.9539,-0.998,-1.0488,-1.1079,-1.1374,-1.1713,-1.2147,-1.248,-1.2529,-1.2529,-1.2529,-1.2676,-1.2779,-1.2953,-1.318,-1.3425,-1.3615,-1.3763,-1.3988,-1.4186,-1.4378,-1.4656,-1.4977,-1.5249,-1.5328,-1.5691,-1.5951,-1.602,-1.6386,-1.6693,-1.6772,-1.7054,-1.731,-1.731,-1.7598,-1.7841,-1.8009,-1.8286,-1.8704,-1.8851,-1.9071,-1.9153,-1.9265,-1.9398,-1.9545,-1.9741,-1.9848,-1.9955,-2.0088,-2.0262,-2.0399,-2.0509,-2.0577,-2.0644,-2.0636,-2.0628,-2.062,-0.5617,-0.5617,-0.5822,-0.5886,-0.5886,-0.5888,-0.5892,-0.5952,-0.6139,-0.6171,-0.618,-0.6255,-0.6235,-0.6155,-0.6191,-0.6192,-0.622,-0.6618,-0.6925,-0.7085,-0.7082,-0.7082,-0.7136,-0.7252,-0.7365,-0.7518,-0.7777,-0.7871,-0.7874,-0.8052,-0.8165,-0.8271,-0.8421,-0.857,-0.8629,-0.8685,-0.8804,-0.8801,-0.8906,-0.9008,-0.9012,-0.911,-0.9211,-0.9211,-0.9239,-0.9436,-0.9909,-0.9615,-0.9445,-0.9407,-0.9128,-0.8997,-0.8882,-0.8852,-0.8955,-0.8982,-0.9229,-0.9383,-0.9512,-1.0093,-1.054,-1.0822,-1.1206,-1.1579,-1.1859,-1.2026,-1.2175,-1.2224,-1.2175,-1.222,-1.2426,-1.252,-1.2706,-1.3122,-1.3324,-1.3472,-1.3621,-1.3821,-1.4161,-1.4482,-1.4662,-1.4743,-1.4915,-1.5238,-1.5463,-1.5552,-1.5869,-1.6188,-1.6231,-1.6565,-1.6827,-1.6954,-1.7102,-1.7297,-1.7462,-1.7632,-1.8009,-1.8347,-1.8606,-1.8791,-1.8829,-1.8936,-1.9124,-1.928,-1.9398,-1.9537,-1.982,-1.9955,-2.0045,-2.0158,-2.0227,-2.0304,-2.0262,-2.0254,-2.0247,-0.5025,-0.5092,-0.5289,-0.5357,-0.5357,-0.5493,-0.5624,-0.5686,-0.5749,-0.5851,-0.5925,-0.588,-0.589,-0.5819,-0.574,-0.5702,-0.5864,-0.5967,-0.6164,-0.6428,-0.6596,-0.6601,-0.6652,-0.6817,-0.698,-0.7093,-0.7244,-0.7345,-0.7348,-0.7523,-0.7634,-0.7732,-0.7886,-0.8037,-0.8084,-0.8146,-0.8206,-0.8381,-0.8427,-0.8484,-0.8583,-0.8738,-0.8781,-0.8781,-0.8956,-0.9166,-0.9316,-0.9324,-0.9277,-0.9263,-0.8969,-0.8691,-0.8471,-0.845,-0.8641,-0.8982,-0.916,-0.9387,-0.9622,-1.0138,-1.0593,-1.0818,-1.1065,-1.1314,-1.1578,-1.1673,-1.1728,-1.1868,-1.1864,-1.1963,-1.2175,-1.2328,-1.252,-1.2953,-1.3017,-1.3142,-1.3276,-1.3472,-1.3758,-1.4046,-1.4197,-1.4244,-1.4373,-1.4691,-1.4932,-1.4977,-1.5289,-1.5614,-1.5742,-1.5994,-1.6207,-1.6392,-1.6582,-1.6795,-1.697,-1.7096,-1.731,-1.7727,-1.8035,-1.8319,-1.8397,-1.8468,-1.8662,-1.8822,-1.8981,-1.9176,-1.945,-1.964,-1.969,-1.9797,-1.9869,-1.9876,-1.9876,-1.9912,-1.9897,-0.4495,-0.4561,-0.4756,-0.4823,-0.4891,-0.5027,-0.516,-0.5289,-0.5289,-0.542,-0.5531,-0.545,-0.5503,-0.5535,-0.5361,-0.5331,-0.5487,-0.5427,-0.5447,-0.5775,-0.6057,-0.6171,-0.6223,-0.6327,-0.6487,-0.6598,-0.6704,-0.681,-0.6812,-0.698,-0.7144,-0.7252,-0.7408,-0.7506,-0.7608,-0.7673,-0.7732,-0.7845,-0.7952,-0.8049,-0.8156,-0.8368,-0.8474,-0.8477,-0.8692,-0.8798,-0.8794,-0.8847,-0.8998,-0.9127,-0.9012,-0.8763,-0.8587,-0.8637,-0.8746,-0.8966,-0.9188,-0.9422,-0.9649,-1.0015,-1.0368,-1.0624,-1.0824,-1.0972,-1.1175,-1.1221,-1.1364,-1.1469,-1.1569,-1.1714,-1.1868,-1.1977,-1.2224,-1.2471,-1.2676,-1.2818,-1.2992,-1.318,-1.3372,-1.3663,-1.3758,-1.3805,-1.3947,-1.4186,-1.4436,-1.4477,-1.4805,-1.508,-1.5244,-1.5457,-1.568,-1.5863,-1.6026,-1.625,-1.6479,-1.6607,-1.6686,-1.7018,-1.7421,-1.7713,-1.7922,-1.8035,-1.818,-1.8436,-1.8599,-1.8738,-1.9011,-1.9131,-1.9236,-1.9354,-1.9428,-1.9472,-1.9479,-1.9479,-1.9464,-0.3962,-0.4027,-0.4156,-0.4356,-0.4558,-0.4558,-0.4628,-0.4762,-0.4762,-0.4894,-0.5017,-0.5072,-0.5145,-0.5269,-0.5093,-0.5061,-0.5038,-0.4921,-0.4901,-0.5066,-0.5403,-0.5681,-0.5789,-0.5891,-0.5996,-0.61,-0.6152,-0.6268,-0.6384,-0.6544,-0.6709,-0.6823,-0.6974,-0.7085,-0.7085,-0.7201,-0.7255,-0.7362,-0.7515,-0.7616,-0.7726,-0.7946,-0.8112,-0.8168,-0.8265,-0.8368,-0.8368,-0.8424,-0.8633,-0.905,-0.9079,-0.91,-0.9246,-0.9218,-0.8999,-0.9068,-0.9253,-0.9384,-0.9555,-0.971,-0.9899,-1.0213,-1.0364,-1.0522,-1.0667,-1.0858,-1.096,-1.1074,-1.1171,-1.1318,-1.1473,-1.1573,-1.1719,-1.1927,-1.2283,-1.2573,-1.2676,-1.2866,-1.3094,-1.3276,-1.3367,-1.342,-1.3525,-1.3763,-1.391,-1.4057,-1.4337,-1.4569,-1.4708,-1.4926,-1.5244,-1.5396,-1.5572,-1.59,-1.6203,-1.6599,-1.6696,-1.6945,-1.7193,-1.7316,-1.7479,-1.755,-1.7707,-1.7962,-1.8168,-1.8351,-1.85,-1.8623,-1.8738,-1.8891,-1.8974,-1.9026,-1.9071,-1.9071,-1.9071,-0.3494,-0.3631,-0.3695,-0.3826,-0.4025,-0.4023,-0.4095,-0.4229,-0.4228,-0.4427,-0.4625,-0.4758,-0.4801,-0.4947,-0.4709,-0.4639,-0.4664,-0.4464,-0.4463,-0.4625,-0.4737,-0.5122,-0.5395,-0.5447,-0.5502,-0.5555,-0.5664,-0.5784,-0.5841,-0.6057,-0.6164,-0.6275,-0.6379,-0.6487,-0.6542,-0.6603,-0.6766,-0.6985,-0.7041,-0.7252,-0.7362,-0.7473,-0.758,-0.7684,-0.7833,-0.7883,-0.794,-0.8106,-0.8374,-0.858,-0.8633,-0.8695,-0.8913,-0.8745,-0.8692,-0.8804,-0.8906,-0.9061,-0.9263,-0.9417,-0.9573,-0.9632,-0.984,-1.0051,-1.0158,-1.0391,-1.0498,-1.0616,-1.0769,-1.0922,-1.1023,-1.1171,-1.1377,-1.1623,-1.1977,-1.2323,-1.2421,-1.2529,-1.2725,-1.2968,-1.2915,-1.2958,-1.305,-1.3286,-1.3467,-1.3563,-1.3805,-1.4093,-1.4192,-1.4384,-1.4651,-1.4987,-1.5227,-1.5608,-1.6004,-1.6492,-1.6812,-1.6985,-1.7089,-1.7086,-1.7149,-1.7115,-1.731,-1.7516,-1.7632,-1.7781,-1.7948,-1.8114,-1.8273,-1.8383,-1.8468,-1.8514,-1.862,-1.8666,-1.8627,-0.296,-0.3027,-0.316,-0.3292,-0.3423,-0.3424,-0.3558,-0.3628,-0.3762,-0.3896,-0.4093,-0.4225,-0.4331,-0.4398,-0.4203,-0.4143,-0.4252,-0.412,-0.4082,-0.4187,-0.4298,-0.4574,-0.4958,-0.5067,-0.5064,-0.5117,-0.5228,-0.5344,-0.5403,-0.5565,-0.5673,-0.5723,-0.5889,-0.5996,-0.6055,-0.6168,-0.6332,-0.6495,-0.6606,-0.6768,-0.6931,-0.7041,-0.7152,-0.7255,-0.7354,-0.7456,-0.7571,-0.7788,-0.8002,-0.8268,-0.8371,-0.8477,-0.859,-0.8477,-0.8427,-0.8437,-0.8537,-0.8742,-0.8896,-0.8991,-0.9096,-0.9211,-0.9372,-0.958,-0.9681,-0.9869,-1.0072,-1.0201,-1.0304,-1.0462,-1.0624,-1.0769,-1.0918,-1.112,-1.1473,-1.1769,-1.2026,-1.217,-1.2328,-1.248,-1.2534,-1.2534,-1.2578,-1.2808,-1.2997,-1.3137,-1.3372,-1.3563,-1.3663,-1.3858,-1.4142,-1.4567,-1.4923,-1.532,-1.574,-1.618,-1.6539,-1.6736,-1.6886,-1.6878,-1.6873,-1.676,-1.6848,-1.7012,-1.7086,-1.7221,-1.738,-1.7544,-1.7713,-1.7828,-1.7915,-1.8002,-1.8062,-1.8156,-1.8156,-0.2356,-0.2356,-0.2553,-0.2754,-0.289,-0.2889,-0.3024,-0.316,-0.3296,-0.3364,-0.3492,-0.3614,-0.3753,-0.3849,-0.3655,-0.3672,-0.3755,-0.3692,-0.3699,-0.3741,-0.3853,-0.4078,-0.4467,-0.4575,-0.4682,-0.4736,-0.4791,-0.4903,-0.4961,-0.5014,-0.5122,-0.5232,-0.5399,-0.5508,-0.5618,-0.5784,-0.5893,-0.6003,-0.6166,-0.6275,-0.6384,-0.6601,-0.6768,-0.682,-0.6925,-0.7031,-0.7195,-0.7359,-0.7628,-0.8005,-0.8215,-0.8265,-0.8318,-0.8318,-0.8162,-0.8005,-0.8159,-0.8368,-0.8521,-0.8514,-0.8573,-0.8689,-0.8945,-0.9106,-0.9152,-0.935,-0.9551,-0.9684,-0.9847,-0.9995,-1.0205,-1.0312,-1.0466,-1.0616,-1.0769,-1.1074,-1.1477,-1.1728,-1.1873,-1.2017,-1.217,-1.2126,-1.2175,-1.2328,-1.2632,-1.2657,-1.2895,-1.3089,-1.3185,-1.3334,-1.379,-1.4291,-1.465,-1.4978,-1.5424,-1.5938,-1.6192,-1.6425,-1.6536,-1.6608,-1.6647,-1.6602,-1.653,-1.6554,-1.6773,-1.6834,-1.6831,-1.7005,-1.7115,-1.7221,-1.7304,-1.7393,-1.7447,-1.7536,-1.7577,-0.1883,-0.2018,-0.2018,-0.2153,-0.2356,-0.2356,-0.2421,-0.2557,-0.2624,-0.2818,-0.3076,-0.3085,-0.317,-0.3266,-0.3167,-0.3129,-0.3212,-0.3178,-0.3128,-0.324,-0.324,-0.3412,-0.3747,-0.3967,-0.4135,-0.4244,-0.4299,-0.4356,-0.4411,-0.4575,-0.4684,-0.4796,-0.4906,-0.5016,-0.5179,-0.5234,-0.5344,-0.5449,-0.5673,-0.5837,-0.5943,-0.6107,-0.627,-0.6322,-0.6485,-0.6544,-0.6655,-0.6877,-0.7093,-0.7195,-0.7461,-0.7732,-0.7898,-0.7842,-0.7681,-0.7628,-0.7726,-0.7883,-0.7984,-0.8034,-0.8037,-0.8093,-0.8349,-0.8564,-0.858,-0.8791,-0.8998,-0.9166,-0.9323,-0.9472,-0.9729,-0.984,-0.9999,-1.015,-1.0308,-1.0522,-1.0777,-1.1175,-1.1473,-1.1669,-1.1723,-1.1678,-1.1773,-1.1923,-1.2126,-1.222,-1.2417,-1.2608,-1.2754,-1.2856,-1.3367,-1.3907,-1.4323,-1.4681,-1.5349,-1.576,-1.6002,-1.6126,-1.6224,-1.6302,-1.636,-1.6445,-1.6421,-1.6403,-1.6514,-1.6514,-1.6415,-1.6386,-1.656,-1.6621,-1.668,-1.6765,-1.685,-1.6905,-1.6905,-0.1277,-0.1412,-0.1479,-0.1614,-0.1681,-0.1748,-0.1816,-0.1877,-0.2055,-0.2242,-0.2423,-0.2492,-0.2567,-0.2652,-0.2626,-0.2628,-0.2698,-0.2713,-0.2798,-0.2911,-0.2911,-0.2968,-0.308,-0.3302,-0.3524,-0.3745,-0.3859,-0.3916,-0.3971,-0.4079,-0.4185,-0.4298,-0.441,-0.4524,-0.4686,-0.4739,-0.4904,-0.5014,-0.5177,-0.5342,-0.5452,-0.5614,-0.5666,-0.5773,-0.5941,-0.6057,-0.6159,-0.6329,-0.6492,-0.6598,-0.681,-0.7136,-0.7574,-0.7464,-0.7303,-0.7192,-0.73,-0.7402,-0.7503,-0.7503,-0.7506,-0.7563,-0.7821,-0.7934,-0.8049,-0.8215,-0.8477,-0.8685,-0.8788,-0.8893,-0.9211,-0.9319,-0.948,-0.9632,-0.9788,-0.994,-1.0142,-1.0557,-1.0972,-1.112,-1.1179,-1.1175,-1.1272,-1.1423,-1.1573,-1.1723,-1.1927,-1.2121,-1.2166,-1.2375,-1.2952,-1.3478,-1.3868,-1.441,-1.5158,-1.5617,-1.5868,-1.5956,-1.6027,-1.6097,-1.6132,-1.6219,-1.6293,-1.6306,-1.6241,-1.6167,-1.6091,-1.6059,-1.5987,-1.5985,-1.605,-1.6126,-1.6163,-1.6113,-1.6113,-0.0672,-0.074,-0.0941,-0.1009,-0.1008,-0.1138,-0.1201,-0.1263,-0.1491,-0.1665,-0.172,-0.1862,-0.1936,-0.201,-0.2049,-0.2066,-0.2145,-0.23,-0.2408,-0.2464,-0.252,-0.252,-0.2577,-0.2632,-0.2798,-0.3303,-0.3416,-0.3417,-0.3524,-0.3577,-0.3685,-0.3798,-0.3967,-0.4081,-0.4136,-0.4244,-0.4408,-0.452,-0.4682,-0.4792,-0.4959,-0.5066,-0.5171,-0.5226,-0.5342,-0.5508,-0.5614,-0.5725,-0.5887,-0.5989,-0.5989,-0.6428,-0.6974,-0.7082,-0.6812,-0.6596,-0.6812,-0.6918,-0.6915,-0.6969,-0.6972,-0.6977,-0.7255,-0.7359,-0.741,-0.7631,-0.7895,-0.815,-0.8306,-0.8421,-0.8646,-0.8854,-0.8956,-0.911,-0.9208,-0.9364,-0.9521,-0.994,-1.0154,-1.0407,-1.0561,-1.0663,-1.0765,-1.0867,-1.1074,-1.1226,-1.1427,-1.1578,-1.1619,-1.1876,-1.2353,-1.2888,-1.3261,-1.3936,-1.4668,-1.4994,-1.5284,-1.5454,-1.5535,-1.5588,-1.5636,-1.5684,-1.5753,-1.5961,-1.5939,-1.5853,-1.5796,-1.5742,-1.5614,-1.5458,-1.5405,-1.548,-1.5417,-1.534,-1.5316,-0.0202,-0.0404,-0.0404,-0.0472,-0.0604,-0.0592,-0.0715,-0.0906,-0.0945,-0.1058,-0.1177,-0.1205,-0.1243,-0.1346,-0.1313,-0.1465,-0.1683,-0.1849,-0.1903,-0.1959,-0.1959,-0.1959,-0.196,-0.2016,-0.2126,-0.2295,-0.2633,-0.2855,-0.2963,-0.3015,-0.3186,-0.3412,-0.3524,-0.3581,-0.3638,-0.3749,-0.3853,-0.3965,-0.413,-0.4244,-0.4356,-0.452,-0.4624,-0.4624,-0.4739,-0.4851,-0.4906,-0.5014,-0.512,-0.5119,-0.5117,-0.5502,-0.5943,-0.6216,-0.6161,-0.6057,-0.6213,-0.6374,-0.6369,-0.6315,-0.6369,-0.6431,-0.6657,-0.6823,-0.6874,-0.7098,-0.7362,-0.7625,-0.7824,-0.7984,-0.804,-0.8259,-0.8477,-0.8583,-0.8745,-0.8906,-0.8956,-0.9057,-0.9316,-0.9566,-0.988,-1.0146,-1.0198,-1.03,-1.0506,-1.0608,-1.0757,-1.0909,-1.1002,-1.123,-1.1658,-1.2143,-1.2635,-1.3357,-1.4132,-1.4278,-1.4474,-1.4579,-1.4678,-1.4801,-1.486,-1.4991,-1.5109,-1.5255,-1.5478,-1.559,-1.5494,-1.5385,-1.5227,-1.5018,-1.493,-1.4804,-1.473,-1.4617,-1.4531,0.0202,0.0135,0.0133,0.0066,0.0,-0.0064,-0.0189,-0.0314,-0.0367,-0.0482,-0.0598,-0.0642,-0.0747,-0.0859,-0.0906,-0.1009,-0.1234,-0.129,-0.1344,-0.1344,-0.1401,-0.1456,-0.1457,-0.1513,-0.1569,-0.1682,-0.1906,-0.2184,-0.2516,-0.2629,-0.2796,-0.2911,-0.2969,-0.308,-0.3136,-0.3188,-0.3298,-0.3463,-0.3577,-0.3747,-0.3859,-0.397,-0.4024,-0.4079,-0.4079,-0.4135,-0.4244,-0.4294,-0.4349,-0.4406,-0.4403,-0.468,-0.4956,-0.5066,-0.5175,-0.5289,-0.5557,-0.5714,-0.5714,-0.5714,-0.5771,-0.5773,-0.6052,-0.6218,-0.6322,-0.6487,-0.6763,-0.7031,-0.7308,-0.7461,-0.7506,-0.772,-0.783,-0.7946,-0.8109,-0.8265,-0.8315,-0.8312,-0.8514,-0.8771,-0.9096,-0.9361,-0.9625,-0.9729,-0.9932,-1.0035,-1.0138,-1.0237,-1.034,-1.0593,-1.0906,-1.1587,-1.2109,-1.2785,-1.3417,-1.352,-1.3631,-1.3743,-1.3859,-1.3923,-1.3988,-1.4107,-1.4305,-1.4473,-1.4787,-1.4971,-1.5069,-1.4927,-1.4745,-1.4563,-1.4383,-1.4257,-1.4063,-1.3929,-1.3804,0.0666,0.0661,0.0647,0.064,0.0573,0.0434,0.0306,0.0304,0.0237,0.0117,-0.0058,-0.0057,-0.0225,-0.0449,-0.0561,-0.0617,-0.0785,-0.0785,-0.0785,-0.0841,-0.0897,-0.0953,-0.1009,-0.1066,-0.1122,-0.1178,-0.1234,-0.1514,-0.2017,-0.2184,-0.2297,-0.2409,-0.2465,-0.2578,-0.2576,-0.2685,-0.2796,-0.2965,-0.3134,-0.3303,-0.3361,-0.3417,-0.3417,-0.3417,-0.3417,-0.3469,-0.3577,-0.3574,-0.3631,-0.3688,-0.3744,-0.3855,-0.4076,-0.3965,-0.4018,-0.4401,-0.4842,-0.506,-0.5115,-0.5171,-0.5171,-0.5169,-0.5447,-0.5555,-0.5719,-0.5937,-0.6265,-0.6487,-0.6763,-0.6931,-0.6915,-0.702,-0.713,-0.7241,-0.7402,-0.7506,-0.7554,-0.7605,-0.761,-0.7874,-0.8309,-0.8573,-0.8834,-0.9103,-0.9256,-0.9357,-0.9458,-0.9569,-0.9669,-0.9777,-1.0178,-1.1,-1.1604,-1.2221,-1.2569,-1.2687,-1.2777,-1.2891,-1.2952,-1.3017,-1.3082,-1.3143,-1.3339,-1.3485,-1.366,-1.3861,-1.4119,-1.4388,-1.4301,-1.4138,-1.3883,-1.3615,-1.3302,-1.3153,-1.3022,0.1277,0.1124,0.112,0.1056,0.0865,0.0841,0.0829,0.0826,0.0802,0.0734,0.0566,0.0563,0.0393,0.0112,-0.0056,-0.0168,-0.0224,-0.028,-0.0336,-0.0393,-0.0449,-0.0505,-0.0505,-0.0505,-0.0617,-0.0729,-0.0785,-0.1122,-0.1514,-0.1626,-0.1794,-0.1848,-0.1903,-0.1959,-0.2073,-0.2128,-0.2296,-0.2519,-0.2576,-0.2688,-0.2801,-0.2801,-0.2801,-0.2801,-0.2801,-0.2801,-0.2854,-0.2854,-0.2856,-0.2856,-0.2857,-0.2967,-0.3187,-0.3128,-0.302,-0.3241,-0.3738,-0.44,-0.4513,-0.457,-0.4572,-0.4624,-0.4846,-0.4954,-0.5171,-0.5557,-0.5884,-0.5882,-0.6102,-0.6268,-0.6268,-0.6379,-0.649,-0.6542,-0.6645,-0.675,-0.6799,-0.6907,-0.691,-0.691,-0.723,-0.7667,-0.799,-0.8312,-0.8583,-0.8679,-0.8728,-0.8837,-0.9063,-0.9164,-0.9499,-1.0265,-1.0872,-1.1421,-1.1652,-1.1717,-1.1845,-1.1969,-1.2039,-1.2039,-1.21,-1.2158,-1.2224,-1.2385,-1.2524,-1.283,-1.3233,-1.3545,-1.374,-1.3642,-1.3408,-1.2946,-1.2439,-1.233,-1.2271,0.1963,0.1602,0.1573,0.1502,0.1435,0.1393,0.1374,0.137,0.1298,0.1178,0.1066,0.0953,0.0785,0.0617,0.0449,0.0393,0.028,0.0168,0.0112,0.0056,0.0,-0.0056,-0.0112,-0.0112,-0.0224,-0.028,-0.0336,-0.0449,-0.0785,-0.1066,-0.129,-0.1345,-0.14,-0.1458,-0.1625,-0.1738,-0.185,-0.1962,-0.2073,-0.2128,-0.2183,-0.2184,-0.2184,-0.2184,-0.2184,-0.2184,-0.2184,-0.2184,-0.2183,-0.2183,-0.2184,-0.2296,-0.2462,-0.2405,-0.2183,-0.2017,-0.2628,-0.3296,-0.3858,-0.3967,-0.3967,-0.4022,-0.4241,-0.446,-0.4679,-0.5009,-0.5287,-0.5175,-0.5173,-0.5338,-0.5504,-0.5616,-0.5782,-0.5891,-0.5941,-0.5993,-0.6046,-0.6154,-0.6211,-0.6154,-0.6154,-0.6532,-0.691,-0.7235,-0.756,-0.7886,-0.7937,-0.8043,-0.8323,-0.8697,-0.9062,-0.9528,-1.0067,-1.0567,-1.0647,-1.071,-1.0713,-1.0843,-1.0919,-1.0986,-1.1108,-1.117,-1.123,-1.1358,-1.1542,-1.1911,-1.2405,-1.2728,-1.2937,-1.294,-1.2928,-1.2482,-1.2036,-1.175,-1.1621,0.2707,0.2281,0.2112,0.2033,0.2029,0.1979,0.1961,0.1961,0.1795,0.1626,0.1458,0.1346,0.1234,0.1066,0.0953,0.0897,0.0785,0.0673,0.0561,0.0505,0.0449,0.0393,0.0336,0.028,0.0168,0.0168,0.0112,0.0,-0.0168,-0.0393,-0.0673,-0.0897,-0.0897,-0.1009,-0.1178,-0.129,-0.1402,-0.1458,-0.1513,-0.1567,-0.1568,-0.1568,-0.1568,-0.1568,-0.1567,-0.1567,-0.1567,-0.1567,-0.1567,-0.1624,-0.1624,-0.1736,-0.1847,-0.1792,-0.168,-0.1626,-0.2016,-0.2407,-0.2967,-0.3189,-0.3303,-0.347,-0.3577,-0.385,-0.4184,-0.446,-0.4625,-0.4515,-0.4239,-0.4405,-0.4682,-0.4849,-0.4904,-0.5069,-0.5177,-0.5232,-0.5285,-0.5281,-0.5226,-0.5171,-0.5169,-0.5277,-0.5603,-0.6041,-0.648,-0.6977,-0.7141,-0.7195,-0.7541,-0.7952,-0.8303,-0.8616,-0.9135,-0.9548,-0.9636,-0.9636,-0.9703,-0.977,-0.9846,-0.998,-1.0098,-1.0225,-1.0225,-1.0418,-1.0608,-1.0727,-1.0965,-1.1597,-1.2162,-1.205,-1.1995,-1.1964,-1.1655,-1.1296,-1.0989,0.3431,0.3268,0.2816,0.2647,0.2647,0.2525,0.2465,0.2408,0.224,0.2072,0.196,0.1791,0.1681,0.157,0.1458,0.1346,0.1122,0.1066,0.1009,0.0953,0.0841,0.0841,0.0785,0.0729,0.0617,0.0617,0.0505,0.0449,0.0336,0.028,-0.0056,-0.0393,-0.0449,-0.0561,-0.0673,-0.0785,-0.0841,-0.0897,-0.0953,-0.0953,-0.1009,-0.1009,-0.1009,-0.1009,-0.0953,-0.0953,-0.0953,-0.1009,-0.1065,-0.1121,-0.1177,-0.1233,-0.1289,-0.129,-0.1234,-0.129,-0.1458,-0.1737,-0.2015,-0.2464,-0.2747,-0.2801,-0.291,-0.3129,-0.3409,-0.3856,-0.3965,-0.3795,-0.3405,-0.3519,-0.3853,-0.4078,-0.4076,-0.4128,-0.4181,-0.4237,-0.4236,-0.4181,-0.4181,-0.4128,-0.4182,-0.4231,-0.4341,-0.4723,-0.5439,-0.5989,-0.6268,-0.6322,-0.6625,-0.7048,-0.7252,-0.7631,-0.8153,-0.85,-0.8611,-0.8681,-0.874,-0.8807,-0.8879,-0.9014,-0.9075,-0.9142,-0.9338,-0.9335,-0.9457,-0.9524,-0.9652,-1.0215,-1.0717,-1.0975,-1.1089,-1.1113,-1.0923,-1.0584,-1.0276,0.3913,0.3744,0.358,0.3301,0.2911,0.2909,0.2853,0.2852,0.2685,0.2574,0.241,0.2297,0.2185,0.213,0.1906,0.1793,0.1681,0.1569,0.1513,0.1457,0.1402,0.1347,0.1291,0.1178,0.1066,0.1066,0.0953,0.0897,0.0841,0.0841,0.0673,0.0449,0.0168,-0.0112,-0.0224,-0.028,-0.028,-0.0336,-0.0449,-0.0449,-0.0505,-0.0561,-0.0617,-0.0617,-0.0561,-0.0561,-0.0617,-0.0617,-0.0617,-0.0673,-0.0673,-0.0729,-0.0785,-0.0785,-0.0785,-0.0841,-0.0953,-0.1065,-0.1232,-0.1736,-0.2183,-0.2296,-0.235,-0.246,-0.2687,-0.3131,-0.313,-0.2906,-0.2515,-0.2516,-0.2965,-0.3077,-0.3131,-0.3183,-0.3182,-0.3183,-0.3183,-0.3126,-0.3125,-0.3124,-0.3181,-0.3235,-0.3292,-0.3403,-0.4229,-0.5001,-0.5224,-0.5474,-0.5817,-0.6078,-0.6329,-0.6583,-0.711,-0.7399,-0.7507,-0.7644,-0.7709,-0.7842,-0.7909,-0.7974,-0.8107,-0.8374,-0.8436,-0.8436,-0.8366,-0.8493,-0.8686,-0.8879,-0.9326,-0.9961,-1.0236,-1.0276,-1.0091,-0.9793,-0.9638,0.4358,0.4189,0.4187,0.391,0.3408,0.3354,0.3297,0.3297,0.3186,0.302,0.2914,0.2801,0.2689,0.2574,0.2406,0.2238,0.2183,0.2128,0.2072,0.2017,0.1906,0.1851,0.1738,0.1626,0.1513,0.1514,0.1458,0.1402,0.1289,0.1345,0.1233,0.1064,0.084,0.0616,0.028,0.028,0.0224,0.0168,0.0112,0.0,0.0,-0.0112,-0.0168,-0.0168,-0.0112,-0.0112,-0.0112,-0.0112,-0.0168,-0.0224,-0.0224,-0.028,-0.0336,-0.0336,-0.028,-0.028,-0.0336,-0.0449,-0.0616,-0.1064,-0.1511,-0.1568,-0.1569,-0.1624,-0.1847,-0.2238,-0.2238,-0.19,-0.151,-0.1456,-0.196,-0.2014,-0.2012,-0.2065,-0.2065,-0.2065,-0.2066,-0.2065,-0.2121,-0.212,-0.2121,-0.2121,-0.2289,-0.2401,-0.313,-0.3904,-0.4293,-0.456,-0.4837,-0.5089,-0.5376,-0.5664,-0.6037,-0.6201,-0.6404,-0.6531,-0.666,-0.673,-0.6863,-0.6931,-0.7064,-0.733,-0.7396,-0.7263,-0.726,-0.7456,-0.7647,-0.7834,-0.8417,-0.9128,-0.9282,-0.9249,-0.9159,-0.8899,-0.8903,0.4794,0.4689,0.4691,0.441,0.4021,0.3853,0.3796,0.3796,0.3635,0.3526,0.3357,0.3356,0.3187,0.2962,0.2907,0.2797,0.2745,0.269,0.2634,0.2521,0.2409,0.2352,0.2239,0.2071,0.2017,0.1959,0.1904,0.1848,0.179,0.1792,0.1792,0.1792,0.1679,0.14,0.0953,0.0897,0.0785,0.0729,0.0673,0.0561,0.0449,0.0393,0.0336,0.0336,0.0336,0.0336,0.0336,0.0336,0.028,0.0224,0.0224,0.0168,0.0056,0.0056,0.0056,0.0056,0.0056,0.0056,0.0112,-0.0505,-0.0729,-0.0728,-0.0785,-0.0785,-0.0841,-0.1065,-0.1289,-0.0951,-0.0448,-0.0448,-0.0727,-0.095,-0.1006,-0.1006,-0.1006,-0.095,-0.1006,-0.1006,-0.1006,-0.1006,-0.1006,-0.1006,-0.1174,-0.151,-0.2186,-0.2802,-0.3247,-0.3579,-0.3783,-0.4095,-0.4357,-0.4569,-0.4892,-0.5026,-0.5211,-0.5413,-0.5545,-0.5615,-0.5747,-0.5809,-0.5945,-0.6081,-0.6083,-0.6017,-0.621,-0.64,-0.6529,-0.666,-0.7177,-0.7565,-0.8037,-0.8153,-0.8089,-0.8066,-0.8052,0.523,0.5119,0.5119,0.5009,0.4787,0.4462,0.4296,0.4239,0.4078,0.3914,0.3802,0.369,0.3631,0.352,0.3412,0.3356,0.3303,0.3193,0.3136,0.3078,0.2909,0.2739,0.2628,0.2574,0.2465,0.2465,0.241,0.2409,0.241,0.2409,0.2409,0.241,0.2352,0.2072,0.1679,0.1456,0.1457,0.129,0.1178,0.1009,0.0841,0.0785,0.0729,0.0785,0.0729,0.0729,0.0785,0.0785,0.0729,0.0673,0.0673,0.0673,0.0617,0.0617,0.0617,0.0617,0.0673,0.0785,0.0897,0.0617,0.0393,0.0224,0.0056,0.0056,0.0,-0.028,-0.028,0.0,0.056,0.0504,0.0112,0.0,-0.0056,0.0,0.0,0.0112,0.0168,0.0168,0.0112,0.0112,0.0112,-0.0056,-0.0224,-0.0283,-0.085,-0.1382,-0.1792,-0.2322,-0.2663,-0.3018,-0.3315,-0.3409,-0.36,-0.385,-0.4018,-0.4215,-0.4349,-0.4417,-0.4482,-0.4612,-0.4683,-0.4821,-0.4956,-0.5019,-0.5148,-0.5342,-0.5406,-0.547,-0.554,-0.587,-0.6396,-0.699,-0.7116,-0.7179,-0.7228,0.5721,0.5607,0.5557,0.5557,0.5447,0.4956,0.4684,0.4627,0.452,0.4356,0.4245,0.4132,0.4075,0.4019,0.3912,0.3805,0.3805,0.3692,0.358,0.3522,0.3351,0.3186,0.3132,0.3078,0.3025,0.3027,0.3026,0.3025,0.3026,0.3027,0.3026,0.3026,0.297,0.28,0.2462,0.2294,0.2017,0.1906,0.1738,0.1569,0.1401,0.1289,0.1233,0.1233,0.1233,0.1233,0.1233,0.1233,0.1233,0.1232,0.1233,0.1233,0.1177,0.1177,0.1233,0.1289,0.1457,0.1626,0.1682,0.1851,0.1625,0.1399,0.1064,0.0896,0.084,0.0672,0.0784,0.1064,0.1513,0.1401,0.112,0.1008,0.1008,0.1008,0.1064,0.1176,0.1232,0.1232,0.1232,0.1176,0.112,0.0953,0.0789,0.0741,0.0518,0.0117,-0.0299,-0.0842,-0.1452,-0.1818,-0.2139,-0.2225,-0.2371,-0.2531,-0.2748,-0.2881,-0.3015,-0.3152,-0.3283,-0.3413,-0.355,-0.3686,-0.3822,-0.3956,-0.4086,-0.415,-0.4215,-0.428,-0.4346,-0.4478,-0.4808,-0.5403,-0.6065,-0.6199,-0.6201,0.6209,0.6209,0.6107,0.6057,0.5948,0.5454,0.5122,0.4954,0.4954,0.4847,0.4689,0.4686,0.4575,0.4519,0.4299,0.4247,0.4193,0.4079,0.3968,0.3909,0.3795,0.3744,0.3691,0.3635,0.3637,0.3638,0.3637,0.3635,0.364,0.3638,0.3638,0.3638,0.3638,0.3524,0.3355,0.3132,0.2798,0.2576,0.2408,0.2238,0.207,0.1903,0.1903,0.1847,0.1847,0.1792,0.1792,0.1847,0.1847,0.1791,0.1791,0.1791,0.1791,0.1847,0.1903,0.2071,0.2352,0.2464,0.2575,0.2746,0.28,0.2571,0.2234,0.2069,0.1847,0.1624,0.168,0.2015,0.2407,0.2351,0.2238,0.2183,0.2127,0.2127,0.2183,0.2238,0.2238,0.2238,0.2239,0.2239,0.2183,0.2078,0.1931,0.184,0.1763,0.1572,0.1173,0.0818,0.019,-0.0446,-0.0787,-0.0997,-0.1136,-0.1205,-0.141,-0.1609,-0.1744,-0.1879,-0.208,-0.2212,-0.2348,-0.2483,-0.2549,-0.2683,-0.2887,-0.2953,-0.3015,-0.3081,-0.3149,-0.3348,-0.3479,-0.4079,-0.4741,-0.4809,-0.4877,0.6812,0.6707,0.666,0.6603,0.649,0.6161,0.5782,0.5454,0.5397,0.5289,0.5119,0.5013,0.4963,0.4904,0.4792,0.4737,0.4629,0.4575,0.4524,0.441,0.4349,0.4298,0.4244,0.4242,0.4241,0.4241,0.4242,0.4244,0.4244,0.4245,0.4245,0.4245,0.4244,0.4242,0.4187,0.4078,0.3633,0.3299,0.3131,0.2963,0.2795,0.2627,0.2627,0.2571,0.2517,0.2464,0.2464,0.2464,0.2464,0.2465,0.241,0.2465,0.2465,0.2465,0.2521,0.2796,0.3021,0.3189,0.3408,0.352,0.3576,0.3685,0.3512,0.3181,0.2905,0.263,0.2519,0.2909,0.3352,0.335,0.3128,0.3018,0.3073,0.3073,0.3129,0.3183,0.3239,0.3239,0.324,0.3244,0.3188,0.3181,0.3044,0.2991,0.2941,0.2914,0.2671,0.2332,0.1769,0.1052,0.0528,0.0335,0.0134,0.0067,-0.0134,-0.0268,-0.047,-0.0672,-0.0873,-0.1006,-0.1074,-0.1208,-0.1276,-0.1477,-0.1679,-0.1746,-0.1813,-0.1879,-0.1944,-0.2014,-0.2214,-0.2816,-0.3283,-0.3416,-0.3549,0.7198,0.7147,0.7098,0.6985,0.6869,0.6704,0.6487,0.6161,0.5946,0.5721,0.5555,0.5508,0.5458,0.5348,0.5234,0.5175,0.512,0.5013,0.4904,0.4903,0.4846,0.4846,0.4789,0.4844,0.4844,0.4842,0.4842,0.4789,0.4791,0.4846,0.4844,0.4789,0.4787,0.4844,0.4789,0.4734,0.4568,0.4182,0.3907,0.3684,0.3518,0.3407,0.3352,0.3297,0.3245,0.319,0.3135,0.3134,0.3136,0.3083,0.3027,0.3081,0.3135,0.3244,0.3298,0.3573,0.3799,0.3965,0.413,0.4294,0.4351,0.446,0.4618,0.4506,0.407,0.3685,0.3684,0.385,0.4181,0.4346,0.4072,0.3852,0.3906,0.3961,0.407,0.4122,0.4179,0.4179,0.4185,0.4192,0.4182,0.4195,0.4155,0.4126,0.4105,0.4038,0.4002,0.3743,0.3182,0.2462,0.1932,0.1609,0.141,0.1275,0.1141,0.094,0.0738,0.0537,0.0336,0.0269,0.0202,0.0,-0.0201,-0.0336,-0.047,-0.0537,-0.0604,-0.0671,-0.0739,-0.0806,-0.0806,-0.1074,-0.1609,-0.2079,-0.2147,0.7571,0.7574,0.7422,0.7306,0.7187,0.7136,0.7136,0.7079,0.6588,0.6213,0.6112,0.6059,0.595,0.5843,0.5727,0.5618,0.5616,0.5504,0.5445,0.5391,0.5338,0.5336,0.5336,0.5334,0.5336,0.5334,0.5386,0.5389,0.5386,0.5386,0.5389,0.5386,0.5389,0.5389,0.5389,0.5391,0.5279,0.5169,0.4785,0.4508,0.4288,0.4182,0.4076,0.4076,0.4019,0.3964,0.3906,0.3852,0.3799,0.3748,0.3694,0.3802,0.3909,0.4072,0.4181,0.4348,0.4519,0.4686,0.4849,0.5013,0.512,0.5283,0.5498,0.5553,0.5226,0.4568,0.4458,0.473,0.506,0.5115,0.4895,0.4785,0.4785,0.4842,0.4897,0.5003,0.5058,0.506,0.5009,0.5039,0.5129,0.5106,0.5179,0.5109,0.5213,0.5217,0.5168,0.5053,0.4606,0.3883,0.3352,0.2952,0.2684,0.2547,0.228,0.2147,0.2013,0.1812,0.1611,0.1478,0.141,0.1142,0.0874,0.0873,0.0806,0.0738,0.0671,0.0604,0.0537,0.0537,0.0537,0.0605,0.0201,-0.0403,-0.0806,0.8109,0.8002,0.7833,0.7717,0.7714,0.7714,0.7664,0.7563,0.7402,0.7079,0.6712,0.6438,0.6329,0.6277,0.6161,0.605,0.6048,0.6048,0.5987,0.5934,0.5939,0.5884,0.583,0.5884,0.5832,0.5887,0.5939,0.5987,0.5987,0.5987,0.5989,0.5989,0.5989,0.5989,0.5989,0.5989,0.5937,0.5937,0.5771,0.5386,0.5113,0.4954,0.4851,0.4792,0.4736,0.468,0.4622,0.4622,0.4624,0.4572,0.457,0.4625,0.4679,0.4791,0.4903,0.4956,0.5236,0.5401,0.5563,0.5725,0.5889,0.6052,0.6213,0.6379,0.6161,0.5393,0.5226,0.5607,0.5882,0.5828,0.5773,0.5664,0.5607,0.5666,0.5723,0.583,0.5882,0.5828,0.583,0.5919,0.6025,0.6071,0.617,0.6233,0.6301,0.6351,0.6347,0.6207,0.5871,0.5343,0.4814,0.4349,0.3952,0.3751,0.3486,0.3284,0.3151,0.3017,0.2817,0.2684,0.262,0.235,0.2147,0.2148,0.208,0.1946,0.1812,0.1745,0.1745,0.1745,0.1745,0.1745,0.1812,0.1408,0.0872,0.8424,0.8371,0.8249,0.8196,0.8196,0.8146,0.8096,0.799,0.7943,0.7729,0.7416,0.7039,0.6766,0.6763,0.6647,0.6591,0.6591,0.6593,0.6591,0.6591,0.6487,0.6487,0.6436,0.6436,0.649,0.649,0.6539,0.6591,0.6586,0.6588,0.6591,0.6591,0.6588,0.6588,0.6588,0.6588,0.6591,0.6591,0.6591,0.6372,0.5989,0.5775,0.5614,0.5557,0.5502,0.5447,0.5395,0.5393,0.5338,0.5338,0.5338,0.5395,0.5449,0.5504,0.5616,0.5725,0.5946,0.6109,0.6268,0.6431,0.6647,0.6756,0.6972,0.713,0.7136,0.6475,0.6265,0.6647,0.6756,0.6758,0.6539,0.6428,0.6428,0.6485,0.6485,0.6537,0.6537,0.6539,0.6608,0.6768,0.692,0.7108,0.7181,0.7276,0.7333,0.7311,0.7323,0.7136,0.687,0.6669,0.6205,0.5743,0.5345,0.4886,0.4557,0.4422,0.4355,0.4155,0.402,0.382,0.362,0.3486,0.3351,0.3285,0.3153,0.302,0.2952,0.2883,0.2884,0.2884,0.2884,0.2884,0.2951,0.3085,0.2615,0.8676,0.8682,0.8679,0.8676,0.8682,0.8527,0.848,0.8477,0.8378,0.8275,0.8168,0.7738,0.7413,0.7246,0.7187,0.7187,0.7187,0.7184,0.7187,0.7136,0.7036,0.7033,0.7031,0.7036,0.7087,0.7139,0.719,0.7187,0.7182,0.7184,0.7182,0.7184,0.7187,0.719,0.719,0.719,0.719,0.7187,0.7187,0.7184,0.6915,0.6647,0.6428,0.632,0.632,0.6265,0.6159,0.6107,0.605,0.605,0.6102,0.6052,0.6161,0.6213,0.6374,0.6487,0.6704,0.6869,0.7031,0.719,0.7348,0.7506,0.7717,0.7774,0.7777,0.7673,0.7461,0.7464,0.7628,0.7518,0.7297,0.7187,0.7187,0.7187,0.7187,0.7195,0.7198,0.7223,0.7429,0.7575,0.7784,0.8025,0.8193,0.8315,0.8308,0.8288,0.8177,0.7987,0.7792,0.7657,0.7391,0.7062,0.6734,0.6278,0.5688,0.5488,0.5416,0.5218,0.5082,0.4818,0.4621,0.4553,0.442,0.4221,0.4156,0.4155,0.4088,0.4086,0.4022,0.3955,0.3955,0.402,0.4084,0.4152,0.4088,0.905,0.9103,0.9103,0.9106,0.9054,0.9054,0.9008,0.8903,0.8854,0.8801,0.8649,0.859,0.8262,0.7717,0.7771,0.772,0.7723,0.772,0.767,0.7566,0.7568,0.7515,0.7515,0.7622,0.7616,0.7723,0.7774,0.7768,0.7774,0.7771,0.7768,0.7771,0.7768,0.7768,0.7768,0.7771,0.7774,0.7774,0.7774,0.7771,0.761,0.7343,0.7031,0.6923,0.6923,0.692,0.6866,0.6869,0.6866,0.6866,0.6866,0.6761,0.6812,0.6918,0.7077,0.7238,0.7402,0.7512,0.7673,0.7886,0.8043,0.82,0.8359,0.8464,0.8471,0.8533,0.8424,0.8371,0.8371,0.8099,0.7934,0.7771,0.7771,0.7771,0.7771,0.7797,0.7812,0.793,0.8089,0.8303,0.8491,0.8693,0.8938,0.9048,0.9172,0.9139,0.9014,0.8891,0.8638,0.8509,0.8444,0.8247,0.7984,0.7456,0.6795,0.6539,0.6404,0.6274,0.6077,0.5813,0.5683,0.5622,0.5489,0.5284,0.535,0.535,0.535,0.5148,0.5151,0.5084,0.509,0.509,0.5153,0.5216,0.515]}]]